[[{"header":{"parameterUnit":"m.s-1","parameterCategory":1,"la1":30.6,"la2":29.2853,"lo1":-89.7004,"lo2":-87.6739,"dy":0.0162,"dx":0.0183,"nx":112,"ny":82,"refTime":"2024-02-25T18:00:00:Z","depth":0,"parameterNumber":2,"parameterNumberName":"U-component_of_WINDS"},"data":[0.0,0.0,0.0,0.0,0.0,0.0,0.0,0.0,0.0,0.0,0.0,0.0,0.0,0.0,0.0,0.0,0.0,0.0,0.0,0.0,0.0,0.0,0.0,0.0,0.0,0.0,0.0,0.0,0.0,0.0,0.0,0.0,0.0,0.0,0.0,0.0,0.0,0.0,0.0,0.0,0.0,0.0,0.0,0.0,0.0,0.0,0.0,0.0,0.0,0.0,0.0,0.0,0.0,0.0,0.0,0.0,0.0,0.0,0.0,0.0,0.0,0.0,0.0,0.0,0.0,0.0,0.0,0.0,0.0,0.0,0.0,0.0,0.0,0.0,0.0,0.0,0.0,0.0,0.0,0.0,0.0,0.0,0.0,0.0,0.0,0.0,0.0,0.0,0.0,0.0,0.0,8.1303,8.1316,8.127,8.127,8.124,8.1229,8.1266,0.0,0.0,0.0,0.0,0.0,0.0,0.0,0.0,0.0,0.0,0.0,0.0,0.0,0.0,0.0,0.0,0.0,0.0,0.0,0.0,0.0,0.0,0.0,0.0,0.0,0.0,0.0,0.0,0.0,0.0,0.0,0.0,0.0,0.0,0.0,0.0,0.0,0.0,0.0,0.0,0.0,0.0,0.0,0.0,0.0,0.0,0.0,0.0,0.0,0.0,0.0,0.0,0.0,0.0,0.0,0.0,0.0,0.0,0.0,0.0,0.0,0.0,0.0,0.0,0.0,0.0,0.0,0.0,0.0,0.0,0.0,0.0,0.0,0.0,0.0,0.0,0.0,0.0,0.0,0.0,0.0,0.0,0.0,0.0,0.0,0.0,0.0,0.0,0.0,0.0,0.0,0.0,0.0,0.0,0.0,0.0,0.0,0.0,0.0,0.0,0.0,0.0,0.0,0.0,8.1219,8.1312,8.1276,8.1229,8.1229,8.1158,8.1147,8.1225,0.0,0.0,0.0,0.0,0.0,0.0,0.0,0.0,0.0,0.0,0.0,0.0,0.0,0.0,0.0,0.0,0.0,0.0,0.0,0.0,0.0,0.0,0.0,0.0,0.0,0.0,0.0,0.0,0.0,0.0,0.0,0.0,0.0,0.0,0.0,0.0,0.0,0.0,0.0,0.0,0.0,0.0,0.0,0.0,0.0,0.0,0.0,0.0,0.0,0.0,0.0,0.0,0.0,0.0,0.0,0.0,0.0,0.0,0.0,0.0,0.0,0.0,0.0,0.0,0.0,0.0,0.0,0.0,0.0,0.0,0.0,0.0,0.0,0.0,0.0,0.0,0.0,0.0,0.0,0.0,0.0,0.0,0.0,0.0,0.0,0.0,0.0,0.0,0.0,0.0,0.0,0.0,0.0,0.0,0.0,0.0,0.0,0.0,0.0,0.0,0.0,0.0,0.0,8.1414,8.1367,8.1295,8.1256,8.1238,8.1238,8.1203,8.1173,8.1211,8.1244,0.0,0.0,0.0,0.0,0.0,0.0,0.0,0.0,0.0,0.0,0.0,0.0,0.0,0.0,0.0,0.0,0.0,0.0,0.0,0.0,0.0,0.0,0.0,0.0,0.0,0.0,0.0,0.0,0.0,0.0,0.0,0.0,0.0,0.0,0.0,0.0,0.0,0.0,0.0,0.0,0.0,0.0,0.0,0.0,0.0,0.0,0.0,0.0,0.0,0.0,0.0,0.0,0.0,0.0,0.0,0.0,0.0,0.0,0.0,0.0,0.0,0.0,0.0,0.0,0.0,0.0,0.0,0.0,0.0,0.0,0.0,0.0,0.0,0.0,0.0,0.0,0.0,0.0,0.0,0.0,0.0,0.0,0.0,0.0,0.0,0.0,0.0,0.0,0.0,0.0,0.0,0.0,0.0,0.0,0.0,0.0,0.0,0.0,0.0,0.0,0.0,0.0,8.1367,8.1323,8.1266,8.1245,8.1234,8.1234,8.1218,8.1184,8.1184,8.1184,0.0,0.0,0.0,0.0,0.0,0.0,0.0,0.0,0.0,0.0,0.0,0.0,0.0,0.0,0.0,0.0,0.0,0.0,0.0,0.0,0.0,0.0,0.0,0.0,0.0,0.0,0.0,0.0,0.0,0.0,0.0,0.0,0.0,0.0,0.0,0.0,0.0,0.0,0.0,0.0,0.0,0.0,0.0,0.0,0.0,0.0,0.0,0.0,0.0,0.0,0.0,0.0,0.0,0.0,0.0,0.0,0.0,0.0,0.0,0.0,0.0,0.0,0.0,0.0,0.0,0.0,0.0,0.0,0.0,0.0,0.0,0.0,0.0,0.0,0.0,0.0,0.0,0.0,0.0,0.0,0.0,0.0,0.0,0.0,0.0,0.0,0.0,0.0,0.0,0.0,0.0,0.0,0.0,0.0,0.0,0.0,0.0,0.0,0.0,0.0,0.0,0.0,8.1277,8.1229,8.1222,8.1154,8.1108,8.1108,8.1104,8.11,8.11,8.11,0.0,0.0,0.0,0.0,0.0,0.0,0.0,0.0,0.0,0.0,0.0,0.0,0.0,0.0,0.0,0.0,0.0,0.0,0.0,0.0,0.0,0.0,0.0,0.0,0.0,0.0,0.0,0.0,0.0,0.0,0.0,0.0,0.0,0.0,0.0,0.0,0.0,0.0,0.0,0.0,0.0,0.0,0.0,0.0,0.0,0.0,0.0,0.0,0.0,0.0,0.0,0.0,0.0,0.0,0.0,0.0,0.0,0.0,0.0,0.0,0.0,0.0,0.0,0.0,0.0,0.0,0.0,0.0,0.0,0.0,0.0,0.0,0.0,0.0,0.0,0.0,0.0,0.0,0.0,0.0,0.0,0.0,0.0,0.0,0.0,0.0,0.0,0.0,0.0,0.0,0.0,0.0,0.0,0.0,0.0,0.0,0.0,0.0,0.0,0.0,0.0,0.0,8.1704,8.1924,0.0,8.2347,8.2443,8.19,8.1866,8.1631,8.1131,0.0,0.0,0.0,0.0,0.0,0.0,0.0,0.0,0.0,0.0,0.0,0.0,0.0,0.0,0.0,0.0,0.0,0.0,0.0,0.0,0.0,0.0,0.0,0.0,0.0,0.0,0.0,0.0,0.0,0.0,0.0,0.0,0.0,0.0,0.0,0.0,0.0,0.0,0.0,0.0,0.0,0.0,0.0,0.0,0.0,0.0,0.0,0.0,0.0,0.0,0.0,0.0,0.0,0.0,0.0,0.0,0.0,0.0,0.0,0.0,0.0,0.0,0.0,0.0,0.0,0.0,0.0,0.0,0.0,0.0,0.0,0.0,0.0,0.0,0.0,0.0,0.0,0.0,0.0,0.0,0.0,0.0,0.0,0.0,0.0,0.0,0.0,0.0,0.0,0.0,0.0,0.0,0.0,0.0,0.0,0.0,0.0,0.0,0.0,0.0,0.0,0.0,8.2069,8.2497,8.2771,0.0,8.3251,8.337,8.2751,8.2712,8.2481,8.1943,0.0,0.0,0.0,0.0,0.0,0.0,0.0,0.0,0.0,0.0,0.0,0.0,0.0,0.0,0.0,0.0,0.0,0.0,0.0,0.0,0.0,0.0,0.0,0.0,0.0,0.0,0.0,0.0,0.0,0.0,0.0,0.0,0.0,0.0,0.0,0.0,0.0,0.0,0.0,0.0,0.0,0.0,0.0,0.0,0.0,0.0,0.0,0.0,0.0,0.0,0.0,0.0,0.0,0.0,0.0,0.0,0.0,0.0,0.0,0.0,0.0,0.0,0.0,0.0,0.0,0.0,0.0,0.0,0.0,0.0,0.0,0.0,0.0,0.0,0.0,0.0,0.0,0.0,0.0,0.0,0.0,0.0,0.0,0.0,0.0,0.0,0.0,0.0,0.0,0.0,0.0,0.0,0.0,0.0,0.0,0.0,0.0,0.0,0.0,0.0,0.0,0.0,8.368,8.3649,8.3601,8.3601,8.3601,8.3636,8.3601,8.3601,8.3601,0.0,0.0,0.0,0.0,0.0,0.0,0.0,0.0,0.0,0.0,0.0,0.0,0.0,0.0,0.0,0.0,0.0,0.0,0.0,0.0,0.0,0.0,0.0,0.0,0.0,0.0,0.0,0.0,0.0,0.0,0.0,0.0,0.0,0.0,0.0,0.0,0.0,0.0,0.0,0.0,0.0,0.0,0.0,0.0,0.0,0.0,0.0,0.0,0.0,0.0,0.0,0.0,0.0,0.0,0.0,0.0,0.0,0.0,0.0,0.0,0.0,0.0,0.0,0.0,0.0,0.0,0.0,0.0,0.0,0.0,0.0,0.0,0.0,0.0,0.0,0.0,0.0,0.0,0.0,0.0,0.0,0.0,0.0,0.0,0.0,0.0,0.0,0.0,0.0,0.0,0.0,0.0,0.0,0.0,0.0,0.0,0.0,0.0,0.0,0.0,0.0,0.0,0.0,8.368,8.4184,8.4516,8.4516,8.5016,8.5132,8.4555,8.4516,8.4247,8.364,0.0,0.0,0.0,0.0,0.0,0.0,0.0,0.0,0.0,0.0,0.0,0.0,0.0,0.0,0.0,0.0,0.0,0.0,0.0,0.0,0.0,0.0,0.0,0.0,0.0,0.0,0.0,0.0,0.0,0.0,0.0,0.0,0.0,0.0,0.0,0.0,0.0,0.0,0.0,0.0,0.0,0.0,0.0,0.0,0.0,0.0,0.0,0.0,0.0,0.0,0.0,0.0,0.0,0.0,0.0,0.0,0.0,0.0,0.0,0.0,0.0,0.0,0.0,0.0,0.0,0.0,0.0,0.0,0.0,0.0,0.0,0.0,0.0,0.0,0.0,0.0,0.0,0.0,0.0,0.0,0.0,0.0,0.0,0.0,0.0,0.0,0.0,0.0,0.0,0.0,0.0,0.0,0.0,0.0,0.0,0.0,0.0,0.0,0.0,0.0,0.0,0.0,8.4669,8.5083,8.5397,8.5397,8.582,8.5897,8.5435,8.5397,8.5166,8.4636,0.0,0.0,0.0,0.0,0.0,0.0,0.0,0.0,0.0,0.0,0.0,0.0,0.0,0.0,0.0,0.0,0.0,0.0,0.0,0.0,0.0,0.0,0.0,0.0,0.0,0.0,0.0,0.0,0.0,0.0,0.0,0.0,0.0,0.0,0.0,0.0,0.0,0.0,0.0,0.0,0.0,0.0,0.0,0.0,0.0,0.0,0.0,0.0,0.0,0.0,0.0,0.0,0.0,0.0,0.0,0.0,0.0,0.0,0.0,0.0,0.0,0.0,0.0,0.0,0.0,0.0,0.0,0.0,0.0,0.0,0.0,0.0,0.0,0.0,0.0,0.0,0.0,0.0,0.0,0.0,0.0,0.0,0.0,0.0,0.0,0.0,0.0,0.0,0.0,0.0,0.0,0.0,0.0,0.0,0.0,0.0,0.0,0.0,0.0,0.0,0.0,0.0,8.6043,8.6014,8.5954,8.5954,8.6022,8.6043,8.6043,8.6073,8.6089,8.6089,0.0,0.0,0.0,0.0,0.0,0.0,0.0,0.0,0.0,0.0,0.0,0.0,0.0,0.0,0.0,0.0,0.0,0.0,0.0,0.0,0.0,0.0,0.0,0.0,0.0,0.0,0.0,0.0,0.0,0.0,0.0,0.0,0.0,0.0,0.0,0.0,0.0,0.0,0.0,0.0,0.0,0.0,0.0,0.0,0.0,0.0,0.0,0.0,0.0,0.0,0.0,0.0,0.0,0.0,0.0,0.0,0.0,0.0,0.0,0.0,8.2345,0.0,0.0,0.0,0.0,0.0,0.0,0.0,0.0,0.0,0.0,0.0,0.0,0.0,0.0,0.0,0.0,0.0,0.0,0.0,0.0,0.0,0.0,0.0,0.0,0.0,0.0,0.0,0.0,0.0,0.0,0.0,0.0,0.0,0.0,0.0,0.0,0.0,0.0,0.0,0.0,0.0,8.5538,8.524,8.498,8.498,8.5337,8.5538,8.5538,8.5889,8.6089,8.6089,0.0,0.0,0.0,0.0,0.0,0.0,0.0,0.0,0.0,0.0,0.0,0.0,0.0,0.0,0.0,0.0,0.0,0.0,0.0,0.0,0.0,0.0,0.0,0.0,0.0,0.0,0.0,0.0,0.0,0.0,0.0,0.0,0.0,0.0,0.0,0.0,0.0,0.0,0.0,0.0,0.0,0.0,0.0,0.0,0.0,0.0,0.0,0.0,0.0,0.0,0.0,0.0,0.0,0.0,0.0,0.0,0.0,0.0,0.0,0.0,0.0,8.2534,0.0,0.0,0.0,0.0,0.0,0.0,0.0,0.0,0.0,0.0,0.0,0.0,0.0,0.0,0.0,0.0,0.0,0.0,0.0,0.0,0.0,0.0,0.0,0.0,0.0,0.0,0.0,0.0,0.0,0.0,0.0,0.0,0.0,0.0,0.0,0.0,0.0,0.0,0.0,0.0,8.5707,8.5337,8.5103,8.5352,8.5604,8.573,8.573,8.5945,8.6089,8.6089,8.6089,0.0,0.0,0.0,0.0,0.0,0.0,0.0,0.0,0.0,0.0,0.0,0.0,0.0,0.0,0.0,0.0,0.0,0.0,0.0,0.0,0.0,0.0,0.0,0.0,0.0,0.0,0.0,0.0,0.0,0.0,0.0,0.0,0.0,0.0,0.0,0.0,0.0,0.0,0.0,0.0,0.0,0.0,0.0,0.0,0.0,0.0,0.0,0.0,0.0,0.0,0.0,0.0,0.0,8.2318,8.2666,8.337,8.337,8.3508,8.3715,8.2704,8.233,8.2446,8.2894,0.0,0.0,0.0,0.0,0.0,0.0,0.0,0.0,0.0,0.0,0.0,0.0,0.0,0.0,0.0,0.0,0.0,0.0,0.0,0.0,0.0,0.0,0.0,0.0,8.3564,8.3508,0.0,0.0,0.0,0.0,0.0,0.0,0.0,0.0,0.0,0.0,0.0,0.0,8.5688,8.5294,8.5161,8.5547,8.5684,8.5748,8.5858,8.5924,8.6026,8.6085,8.6089,8.6089,0.0,0.0,0.0,0.0,0.0,0.0,0.0,0.0,0.0,0.0,0.0,0.0,0.0,0.0,0.0,0.0,0.0,0.0,0.0,0.0,0.0,0.0,0.0,0.0,0.0,0.0,0.0,0.0,0.0,0.0,0.0,0.0,7.734,7.8228,0.0,0.0,0.0,0.0,0.0,0.0,0.0,0.0,0.0,0.0,0.0,0.0,0.0,8.2535,8.3205,8.2767,8.2911,8.3669,8.3256,8.3122,8.3241,8.3241,8.3235,8.3275,8.3123,0.0,8.3682,8.3752,0.0,0.0,0.0,0.0,0.0,0.0,0.0,0.0,0.0,0.0,0.0,0.0,0.0,0.0,0.0,0.0,0.0,0.0,0.0,0.0,0.0,0.0,8.3241,8.3241,8.3258,8.3252,0.0,8.384,8.4539,8.4607,8.47,0.0,0.0,0.0,0.0,0.0,0.0,0.0,8.4249,8.3763,8.3508,8.3585,8.3962,8.439,8.4832,8.5271,8.5675,8.6069,8.6089,8.6089,8.6089,8.6089,0.0,0.0,0.0,0.0,0.0,0.0,0.0,0.0,0.0,0.0,0.0,0.0,0.0,0.0,0.0,0.0,0.0,0.0,0.0,0.0,0.0,0.0,0.0,0.0,0.0,0.0,0.0,0.0,0.0,7.7968,7.8446,7.9047,7.9129,7.9461,0.0,0.0,0.0,0.0,0.0,0.0,0.0,0.0,0.0,8.2396,8.2848,8.3163,8.3278,8.3066,8.3128,8.3508,8.3282,8.3187,8.3187,8.3187,8.3187,8.3187,8.3187,8.3304,8.3529,8.3783,8.4161,8.4572,0.0,0.0,0.0,0.0,8.506,8.507,8.4871,8.4574,0.0,8.4641,0.0,0.0,0.0,0.0,0.0,0.0,0.0,0.0,0.0,0.0,8.3529,8.3268,8.3187,8.3187,8.3187,8.3536,8.3916,0.0,8.4236,8.4408,8.4915,0.0,0.0,0.0,0.0,0.0,8.4329,8.3903,8.3797,8.4384,8.4601,8.4959,8.5441,8.5842,8.6064,8.6107,8.6271,8.6287,8.612,8.6089,8.611,0.0,0.0,0.0,0.0,0.0,0.0,0.0,0.0,0.0,0.0,0.0,0.0,0.0,0.0,0.0,0.0,0.0,0.0,0.0,0.0,0.0,0.0,0.0,0.0,0.0,0.0,0.0,0.0,7.8683,7.9004,7.9303,7.9338,7.9607,0.0,0.0,0.0,0.0,0.0,0.0,8.155,8.2693,8.3176,8.276,8.3396,8.3564,8.3195,8.3187,8.3187,8.3187,8.3187,8.3299,8.3522,8.3522,8.3633,8.3819,8.3819,8.3819,8.3819,8.3742,8.3783,8.3955,8.4329,8.4563,8.4662,8.4571,8.448,8.4462,8.4373,8.4059,8.3807,8.4193,0.0,8.395,8.4365,0.0,0.0,0.0,0.0,8.4359,8.385,8.3733,8.3624,8.3297,8.3187,8.3187,8.3187,8.3187,8.3289,0.0,8.3733,8.3883,8.4396,0.0,0.0,0.0,0.0,8.4014,8.4293,8.3962,8.4027,8.4776,8.4854,8.504,8.5504,8.6072,8.6362,8.6273,8.6804,8.6947,8.6466,8.644,8.632,8.6089,0.0,0.0,0.0,0.0,0.0,0.0,0.0,0.0,0.0,0.0,0.0,0.0,0.0,0.0,0.0,0.0,0.0,0.0,0.0,0.0,0.0,0.0,0.0,0.0,0.0,0.0,0.0,0.0,0.0,7.838,7.838,0.0,0.0,0.0,0.0,8.1281,8.2083,8.2348,8.2004,8.2747,8.3194,8.3157,8.3194,8.3224,8.3187,8.3187,8.3187,8.3187,8.3187,8.3596,8.4339,8.4339,8.4748,8.5491,8.5491,8.5491,8.5342,8.3856,8.3494,8.3916,8.3942,8.4242,8.4659,8.4117,8.3955,8.3883,8.3447,8.3261,8.3239,8.3275,8.3571,8.3916,8.3942,8.4286,0.0,0.0,8.3955,8.3823,8.3354,8.3239,8.3232,8.3195,8.3187,8.3187,8.3187,8.3187,8.3202,0.0,8.3239,8.339,8.3863,0.0,8.3955,8.3955,8.3929,8.3767,8.3318,8.3253,8.3261,8.3326,8.3296,8.3494,8.395,8.518,8.6154,8.6629,8.7888,8.8235,8.7363,8.7325,8.694,8.6128,8.6175,0.0,0.0,0.0,0.0,0.0,0.0,0.0,0.0,0.0,0.0,0.0,0.0,0.0,0.0,0.0,0.0,0.0,0.0,0.0,0.0,0.0,0.0,0.0,0.0,0.0,0.0,0.0,0.0,7.8751,7.8956,0.0,8.0117,8.0408,8.0864,8.1715,8.2051,8.237,8.2756,8.3039,8.3187,8.3187,8.3708,8.3968,8.3968,8.4488,8.4748,8.4748,8.4748,8.4897,8.5157,8.5157,8.5342,8.5602,8.5602,8.5602,8.5558,8.4971,8.4837,8.499,8.499,8.5126,8.5251,8.5076,8.499,8.4961,8.4785,8.4748,8.4674,8.4153,8.3743,8.3438,8.3438,8.3585,8.3679,8.3501,8.3438,8.3426,8.3246,8.3187,8.3187,8.3187,8.3187,8.3336,8.3856,8.3968,8.4116,8.4636,8.3893,8.3261,8.3433,8.3438,8.3438,8.3438,8.3438,8.3397,8.3217,8.3187,8.3304,8.361,8.3651,8.385,8.4359,8.5326,8.6136,8.6676,8.7638,8.8216,8.8244,8.8252,8.7829,8.694,8.6973,8.6694,0.0,0.0,0.0,0.0,0.0,0.0,0.0,0.0,0.0,0.0,0.0,0.0,0.0,0.0,0.0,0.0,0.0,0.0,0.0,0.0,0.0,0.0,0.0,0.0,0.0,0.0,7.8851,7.9138,7.9372,7.9849,8.0713,8.1005,8.1478,8.234,8.2415,8.2637,8.315,8.3448,8.3596,8.3596,8.4376,8.4785,8.4785,8.5342,8.5602,8.5602,8.5602,8.5743,8.6011,8.6011,8.616,8.6457,8.6457,8.6457,8.6457,8.6457,8.6457,8.6383,8.5825,8.5602,8.5602,8.5602,8.5602,8.5602,8.5602,8.5602,8.5483,8.4674,8.4042,8.3559,8.3262,8.3373,8.3596,8.3596,8.3782,8.4005,8.4005,8.4005,8.4005,8.4005,8.4005,8.4153,8.4674,8.4785,8.4971,8.5483,8.4748,8.4005,8.4005,8.4005,8.4005,8.4005,8.4005,8.3893,8.3633,8.3596,8.3601,8.3661,8.3665,8.3827,8.4167,8.5236,8.6107,8.6576,8.785,8.8639,8.8818,8.8991,8.8709,8.7867,8.756,8.7139,8.6647,0.0,0.0,0.0,0.0,0.0,0.0,0.0,0.0,0.0,0.0,0.0,0.0,0.0,0.0,0.0,0.0,0.0,0.0,0.0,0.0,0.0,0.0,0.0,7.8935,7.8629,7.8625,7.9435,7.9546,8.0215,8.1857,8.2006,8.2377,8.3187,8.3225,8.3262,8.3262,8.4005,8.4451,8.4451,8.5231,8.564,8.564,8.5669,8.5677,8.5677,8.5677,8.6078,8.6821,8.6821,8.7312,8.8092,8.8092,8.8092,8.8092,8.8092,8.8092,8.7943,8.6308,8.5677,8.5677,8.5677,8.5677,8.5677,8.5677,8.5669,8.5528,8.4748,8.4451,8.4302,8.3522,8.3819,8.4451,8.4451,8.5008,8.5602,8.5602,8.5602,8.5602,8.5602,8.5602,8.5602,8.5632,8.564,8.564,8.5677,8.5677,8.5669,8.5602,8.5602,8.5602,8.5602,8.5602,0.0,8.4525,8.4414,8.4116,8.3373,8.3239,8.3247,8.3225,8.4851,8.5999,8.6369,8.8556,8.9624,8.9129,8.9644,8.9538,8.8756,8.7867,8.7482,8.7525,0.0,0.0,0.0,0.0,0.0,0.0,0.0,0.0,0.0,0.0,0.0,0.0,0.0,0.0,0.0,0.0,0.0,0.0,0.0,0.0,0.0,0.0,7.9231,7.9352,7.9242,7.9472,8.0252,8.0921,8.1486,8.1969,8.2519,8.3187,8.4005,8.4079,8.4302,8.4897,8.5157,8.5268,8.5268,8.6041,8.6486,8.6486,8.7089,8.7423,8.7423,8.7423,8.7534,8.7757,8.7757,8.7869,8.8092,8.8092,8.8092,8.8092,8.8092,8.8092,8.8055,8.7609,8.7423,8.7423,8.7423,8.7423,8.7423,8.7423,8.7014,8.6412,8.6189,8.5743,8.5231,8.5008,8.5082,8.5268,8.5268,8.5417,8.5602,8.5602,8.5602,8.5602,8.5602,8.5602,8.5751,8.6338,8.6486,8.6672,8.7274,8.7423,8.7014,8.5818,8.5602,8.5602,8.5602,8.5602,0.0,8.5305,8.4748,8.4525,8.4897,8.4211,8.3809,8.4042,8.4643,8.5309,8.5973,8.7177,8.843,8.9642,9.0067,9.0033,8.9586,8.8748,8.8371,0.0,0.0,0.0,0.0,0.0,0.0,0.0,0.0,0.0,0.0,0.0,0.0,0.0,0.0,0.0,0.0,0.0,0.0,0.0,0.0,0.0,0.0,7.9472,8.0141,8.0512,8.0215,8.0327,8.1144,8.1701,8.2266,8.2935,8.341,8.4042,8.4859,8.4897,8.5119,8.5565,8.5929,8.6115,8.6115,8.6895,8.7341,8.7341,8.7869,8.8092,8.8092,8.8092,8.8092,8.8092,8.8092,8.8092,8.8092,8.8092,8.8092,8.8092,8.8092,8.8092,0.0,0.0,0.0,0.0,0.0,8.8092,8.8092,8.8092,8.7757,8.7267,8.6932,8.6486,8.6041,8.5714,8.5855,8.6115,8.6115,8.6383,8.6643,8.6643,8.6643,8.6643,8.6643,8.6643,8.6791,8.7237,8.7341,8.7497,8.8017,8.8092,0.0,8.6829,8.6643,8.6643,8.6643,8.6643,8.6531,8.6152,8.5669,8.5454,8.5595,8.4729,8.4204,8.4369,8.4384,0.0,0.0,0.0,8.8353,9.0371,9.0401,0.0,0.0,0.0,8.9235,8.9243,0.0,0.0,0.0,8.6582,8.6342,0.0,0.0,0.0,0.0,0.0,0.0,0.0,0.0,0.0,0.0,0.0,0.0,0.0,0.0,0.0,0.0,8.0327,8.1107,8.1894,8.1478,8.1404,8.2192,8.2266,8.2853,8.4376,8.4525,8.4859,8.5677,8.5743,8.5781,8.59,0.0,0.0,0.0,0.0,8.8129,8.824,8.824,8.8278,8.8389,8.8389,8.8389,8.8389,8.8389,8.8389,8.8389,8.8389,8.8389,8.8352,8.8278,8.8166,8.8092,8.8092,8.8092,8.8092,8.8092,8.8092,8.8092,8.8092,0.0,0.0,8.7192,8.6932,8.6821,8.6085,8.6375,8.6932,8.6932,8.749,8.8092,8.8092,8.8092,8.8092,8.8092,8.8092,8.8092,8.8092,8.8092,8.8129,8.8203,8.824,8.8278,8.8352,8.8315,8.824,8.824,8.8315,8.8092,8.7304,8.7155,8.6821,8.6234,0.0,0.0,8.483,8.444,8.4257,8.448,8.6609,8.8786,9.0694,9.0606,9.0674,9.11,9.0414,9.0047,9.0047,8.9325,8.8983,8.8949,8.8139,8.7704,0.0,0.0,0.0,0.0,0.0,0.0,0.0,0.0,0.0,0.0,0.0,0.0,0.0,0.0,0.0,8.0364,8.1181,8.182,8.1969,8.2965,8.3745,8.3931,8.3931,8.4302,8.5268,8.538,8.5714,8.6524,8.6561,8.6858,8.7572,8.7757,8.7869,8.7869,8.8017,8.8426,8.9058,8.9058,8.9392,9.0053,0.0,0.0,9.0053,9.0053,9.0053,9.0053,9.0053,9.0053,8.9979,8.9355,8.8686,8.8092,8.8092,8.8092,8.8092,8.8092,8.8092,8.8092,8.8092,8.8092,8.8055,8.7906,8.7869,8.7832,8.7646,8.772,0.0,8.7869,8.798,8.8092,8.8092,8.8092,8.8092,8.8092,8.8092,8.8092,8.8092,8.8092,8.8278,8.8946,8.9058,8.9281,8.9904,8.9496,8.9058,8.9058,8.9607,8.9979,8.9793,8.9198,8.9013,8.9496,8.86,8.7799,8.7432,8.6489,8.5651,8.5017,8.6795,8.8026,8.8287,9.0074,9.0905,9.0574,9.0817,9.0936,9.0936,9.0787,9.071,9.0671,8.9171,8.8495,0.0,0.0,0.0,0.0,0.0,0.0,0.0,0.0,0.0,0.0,0.0,7.9026,7.9435,0.0,8.0891,8.1293,8.2036,8.2742,8.315,8.3893,8.4414,8.4414,8.4748,8.5298,8.6115,8.6189,8.6561,8.7386,8.746,8.7646,8.8092,8.85,8.8686,8.8686,8.9095,8.9504,8.9904,8.9904,9.009,9.0499,9.0499,9.0499,9.0499,9.0499,9.0499,9.0499,9.0499,9.0499,9.0462,9.0053,8.9644,8.9318,8.9318,8.8798,8.8092,8.8092,8.8092,8.8092,8.8092,8.8092,8.8092,8.8092,8.8092,8.8092,8.8092,8.8092,8.8092,8.8092,8.8092,8.8092,8.8092,8.8389,8.8686,8.8686,8.9021,8.9318,8.9318,8.9318,8.9429,8.9838,8.9904,9.0016,9.0424,9.0499,9.035,8.9942,9.0239,9.0499,9.0499,9.0164,9.0053,9.0462,8.962,8.898,8.871,8.7399,8.6518,8.6374,8.6597,8.726,8.8362,8.9026,8.9713,9.0402,9.0654,9.08,9.08,9.1073,9.1206,9.1167,9.0325,8.971,0.0,0.0,0.0,0.0,0.0,0.0,0.0,0.0,7.855,7.855,7.9175,7.9769,7.9955,8.1077,8.2043,8.2229,8.2898,8.367,8.4302,8.4674,8.4859,8.4859,8.5446,8.6152,8.6969,8.7044,8.7341,8.8055,8.824,8.8315,8.8315,8.9095,8.9533,8.9533,9.0164,9.0573,9.0722,9.0722,9.0833,9.0982,9.0982,9.0982,9.0982,9.0982,9.0982,9.0982,9.0982,9.0907,9.0722,9.0722,9.0647,9.0499,9.0499,8.9719,8.8538,8.8389,8.8315,8.8315,8.8166,8.8092,8.8092,8.8092,8.8092,8.8092,8.8092,8.8203,8.8315,8.8315,8.8463,8.8575,8.8575,8.9058,8.9533,8.9533,9.0016,9.0499,9.0499,9.0499,9.0536,9.0685,9.0722,9.0796,9.0945,9.1502,9.1688,9.087,9.087,9.0982,9.0982,9.0982,9.0982,9.0982,9.0395,8.9875,8.957,8.8158,8.7347,8.7445,8.6674,8.6899,8.8419,8.8035,8.8413,8.9821,8.9964,9.0089,9.0236,9.0669,9.0905,9.0905,9.0905,9.0601,7.6729,7.7473,7.803,7.8141,7.8216,7.829,0.0,0.0,7.9361,7.9361,7.9992,8.081,8.1597,8.1857,8.2229,8.2965,8.3745,8.4302,8.4376,8.5632,8.6524,8.6524,8.6598,8.7007,8.7869,8.7943,8.8017,8.8092,8.8761,8.9161,8.9161,8.9942,9.0387,9.0387,9.0462,9.0833,9.1576,9.1576,9.1948,9.2736,9.2736,9.2736,9.2736,9.2736,9.2736,9.2736,9.2736,9.2282,9.1576,9.1576,9.113,9.0499,9.0499,9.0387,9.0127,8.9429,8.9161,8.9058,8.8352,8.8092,8.8092,8.8092,8.8092,8.8092,8.8092,8.8612,8.9161,8.9161,8.9681,9.0239,9.0239,9.0313,9.0387,9.0387,9.0424,9.0499,9.0499,9.0499,9.0722,9.1428,9.1576,9.1799,9.2587,9.2802,9.255,9.1688,9.2208,9.2736,9.2736,9.2736,9.2736,9.2736,9.2625,9.1993,9.0499,8.9533,8.8412,8.6965,8.788,8.7696,8.6056,8.7489,8.818,8.7924,8.8374,8.8988,8.9697,8.9751,8.978,8.978,8.978,9.0236,7.7584,7.803,7.829,7.829,7.829,7.8439,7.8878,7.9249,7.9621,8.0104,8.0884,8.1553,8.1931,8.2779,8.3522,0.0,8.4562,8.5261,8.5751,8.6375,8.7007,8.7497,8.7572,8.772,8.8055,8.8092,8.8278,8.8761,8.9132,8.9496,8.9979,9.0759,9.1205,9.1205,9.1688,9.2133,9.2431,9.2468,9.2653,9.2996,9.2996,9.2996,9.2996,9.2996,9.2996,9.2996,9.2996,9.2802,9.2468,9.2468,9.2245,9.1948,9.1948,9.1948,9.1807,9.0462,8.9979,8.9942,8.9615,8.9496,8.9496,8.9496,8.9496,8.9496,8.9496,8.9727,8.9979,8.9979,9.0239,9.0499,9.0499,9.0833,9.1205,9.1205,9.1576,9.1948,9.1948,9.1948,9.2059,9.2393,9.2839,9.3285,9.3628,9.4102,9.4288,9.3917,9.3359,9.2996,9.2996,9.2996,9.281,9.2282,9.2691,9.2505,9.1316,9.0907,9.0016,8.8344,8.8346,8.7906,8.6819,8.723,8.7506,8.7602,8.7814,8.8016,8.8166,8.8463,8.8858,8.9315,8.9622,8.9931,7.8141,7.829,7.829,7.829,7.8476,7.8773,7.9361,7.9851,8.0364,8.0921,8.1746,8.2415,8.263,8.3596,8.4488,8.4674,8.5409,8.6115,8.6709,8.7007,8.7386,8.8017,8.8092,8.8203,8.8426,8.8426,8.8686,8.9273,8.9719,9.0202,9.0796,9.1613,9.2059,9.2059,9.2653,9.3099,9.333,9.333,9.3434,9.3657,9.3657,9.3657,9.3657,9.3657,9.3657,9.3657,9.3442,9.333,9.333,9.3108,9.2996,9.2996,9.2996,9.2996,9.2847,9.1659,9.1019,9.0796,9.0573,9.0499,9.0499,9.0499,9.0499,9.0499,9.0499,9.0647,9.0833,9.0833,9.0982,9.1205,9.1205,9.1613,9.2059,9.2059,9.2691,9.333,9.333,9.3508,9.3657,9.3657,9.414,9.4511,9.4511,9.4994,9.5403,9.5403,9.44,9.3657,9.3657,9.3657,9.3434,9.2802,9.3099,9.2996,9.2133,9.2059,9.1353,8.9727,8.9095,8.8449,8.7756,8.7146,8.6967,8.7351,8.7396,8.738,8.7379,8.7771,8.8247,8.8816,8.9207,8.9269,7.829,7.829,7.829,7.829,7.8878,7.9472,7.9472,8.078,8.1931,8.1969,8.26,8.341,8.4191,8.4376,8.4674,8.5446,8.6226,8.6784,8.6784,8.7534,8.8055,8.8092,8.8092,8.8426,0.0,8.9273,8.9281,8.9318,9.0759,9.165,9.165,9.2468,9.2959,9.2959,9.2996,9.3368,9.4177,9.4177,9.4548,9.5328,9.5328,9.5328,9.5328,9.5328,9.5328,9.5291,9.4511,9.4177,9.4102,9.3322,9.2996,9.2996,9.2996,9.2996,9.2996,9.2959,9.2393,9.1539,9.0759,9.0499,9.0499,9.0499,9.0499,9.0499,9.0499,9.1056,9.165,9.165,9.2282,9.2914,9.2914,9.2959,9.2959,9.2959,9.3591,9.4177,9.4177,9.4771,9.5328,9.5328,9.5365,9.5365,9.5365,9.5365,9.5403,9.5403,9.5365,9.5328,9.5328,9.5328,9.5328,9.5291,9.4622,9.3842,9.3033,9.2959,9.2245,9.0573,9.0424,8.9734,8.816,8.7245,8.6791,8.6814,8.6814,8.7239,8.808,8.8095,8.8103,8.814,8.8163,8.7958,7.829,7.829,7.8439,7.8952,7.9293,7.9769,8.0928,8.1597,8.2154,8.2712,8.3448,8.4079,8.4339,8.5268,8.6078,8.6338,8.7126,8.7638,8.7638,8.7906,8.8315,8.8835,8.8909,0.0,0.0,0.0,0.0,9.0796,9.139,9.1948,9.2542,9.2847,9.3256,9.3768,9.3805,9.4177,9.4994,9.4994,9.5143,9.5403,9.5403,9.5403,9.5403,9.5403,9.5403,9.5365,9.5105,9.4994,9.4994,9.4697,9.4585,9.4585,9.4585,9.4585,9.4585,9.4585,9.44,9.3954,9.2616,9.2179,9.2179,9.2179,9.2179,9.2179,9.2179,9.2364,9.2542,9.2542,9.3174,9.3805,9.3805,9.4177,9.4585,9.4585,9.4808,9.4994,9.4994,9.5217,9.5403,9.5403,9.5848,9.622,9.622,9.6666,9.7074,9.7074,9.6108,9.5403,9.5403,9.5403,9.5217,9.466,9.4845,9.4437,9.3099,9.3479,9.2839,9.0647,9.0499,8.9793,8.8166,8.7832,8.7386,8.6821,8.6784,8.6877,8.6974,8.6974,8.7236,8.7759,8.8135,8.8169,7.8655,7.8736,7.8915,7.9732,8.0141,8.0661,8.1746,8.2229,8.2675,8.3448,8.4042,8.4599,8.5157,8.6115,8.6895,8.7192,8.772,8.8092,8.8092,8.8352,8.8723,8.9244,8.9541,9.0053,0.0,0.0,0.0,9.1613,9.1985,9.2542,9.3359,9.3442,9.3805,9.4585,9.4622,9.5031,9.5811,9.5848,9.5997,9.6294,9.6294,9.6294,9.6294,9.6294,9.6294,9.6294,9.596,9.5848,9.5811,9.5514,9.5403,9.5403,9.5403,9.5403,9.5403,9.5403,9.5403,9.5254,9.4214,9.3842,9.3842,9.3842,9.3842,9.3842,9.3842,9.3842,9.3842,9.3842,9.4214,9.4622,9.4622,9.4994,9.5403,9.5403,9.5626,9.5848,9.5848,9.6071,9.6294,9.6294,9.6703,9.7074,9.7074,9.752,9.7892,9.7892,9.6963,9.6294,9.6294,9.6294,9.6108,9.5588,9.57,9.518,9.3582,9.3879,9.3248,9.1056,9.0945,9.0462,8.9429,8.8835,8.8278,8.7712,8.7415,8.7168,8.6997,8.6997,8.7252,8.7782,8.8145,8.8073,7.9286,7.9509,7.9769,8.055,8.1404,8.2006,8.2117,8.2704,8.3485,8.4302,8.4488,8.5008,0.0,0.0,8.7126,8.798,8.8092,8.8092,8.8166,8.8835,8.9318,0.0,0.0,0.0,0.0,0.0,0.0,9.1836,0.0,9.3405,9.4177,9.4251,9.4622,9.544,9.5477,9.5848,9.6666,9.6666,9.7074,9.7892,9.7892,9.7892,9.7892,9.7892,9.7892,9.7855,9.7037,9.6666,9.6629,9.5848,9.5514,9.5514,9.5514,9.5514,9.5514,9.5514,9.5514,9.5514,9.5514,9.5477,9.5403,9.5403,9.5403,9.5403,9.5403,9.5403,9.5403,9.5403,9.544,9.5477,9.5477,9.5477,9.5514,9.5514,9.6108,9.6666,9.6666,9.7334,9.7892,9.7892,9.7892,9.7892,9.7892,9.7892,9.7892,9.7892,9.7892,9.7892,9.7892,9.7892,9.7892,9.7892,9.7149,9.6034,9.4474,9.4288,9.3545,9.1873,9.1725,9.1688,9.165,9.0164,8.9355,8.9355,8.8612,8.8203,8.8166,8.8166,8.8129,8.8092,8.8092,8.7646,7.9435,7.9955,8.0587,8.1448,8.1857,8.2303,8.3522,8.3968,8.4302,8.5119,8.5781,8.6301,0.0,0.0,0.0,8.8055,8.8092,0.0,8.8909,8.9161,0.0,9.0945,0.0,9.1725,9.2587,9.2653,0.0,0.0,9.3768,9.3991,9.4177,9.4771,9.5477,9.6257,9.6294,9.6703,9.7557,9.7557,9.7669,9.7892,9.7892,9.7892,9.7892,9.7892,9.7892,9.7892,9.7669,9.7557,9.7557,9.7334,9.726,9.726,9.726,9.726,9.726,9.726,9.726,9.726,9.726,9.6443,9.5403,9.5403,9.5403,9.5403,9.5403,9.5403,9.5403,9.5403,9.5848,9.6294,9.6294,9.6777,9.726,9.726,9.7409,9.7557,9.7557,9.7743,9.7892,9.7892,9.7892,9.7892,9.7892,9.7892,9.7892,9.7892,9.7892,9.7892,9.7892,9.7892,9.7892,9.7892,9.7706,9.7149,9.6071,9.544,9.44,9.2765,9.2059,9.1428,9.0833,9.0424,9.0202,9.0202,8.9979,8.957,8.8983,8.8983,8.8686,8.8092,8.8092,8.798,8.0401,8.1181,8.1999,8.2853,8.3336,8.3819,8.4711,8.4934,8.5157,8.5966,8.6486,8.6932,8.7312,8.7757,8.8092,0.0,0.0,0.0,8.9206,8.9607,9.0276,0.0,9.2022,0.0,9.3434,9.3545,9.3842,0.0,9.44,9.4511,9.5217,9.5663,9.6294,9.7149,9.7186,9.7409,9.7892,9.7892,9.7892,9.7892,9.7892,9.7892,9.7892,9.7892,9.7892,9.7892,0.0,9.7892,9.7892,9.7892,9.7892,9.7892,9.7892,9.7892,9.7892,9.7892,9.7892,9.7892,9.7892,9.726,9.648,9.648,9.648,9.648,9.648,9.648,9.648,9.648,9.6814,9.7186,9.7186,9.752,9.7892,9.7892,9.7892,9.7892,9.7892,9.7892,9.7892,9.7892,9.8189,9.8412,9.8412,9.8412,9.8412,9.8412,9.8115,9.7892,9.7892,9.7892,9.7892,9.7892,9.7892,9.7557,9.6666,9.5848,9.4845,9.3628,9.2728,9.2059,9.1613,9.1242,9.1019,9.1019,9.0685,9.0276,8.983,8.983,8.957,8.9169,8.9169,8.9169,8.1746,8.2742,8.3559,8.4376,8.5082,8.5632,8.5751,8.5751,8.6004,8.6784,8.6969,8.7192,8.7943,8.8092,8.8092,8.8092,0.0,8.8538,8.9347,9.0164,9.0945,9.1762,9.2616,9.3442,9.414,9.4288,9.4697,9.5514,9.492,9.5143,9.6509,9.6703,9.7112,9.7892,9.7892,9.7892,9.7892,9.7892,9.7892,9.7892,9.7892,9.7892,9.7892,9.7892,9.7892,9.7892,9.7892,0.0,9.7892,9.7892,9.7892,9.7892,9.7892,9.7892,9.7892,9.7892,9.7892,9.7892,9.7892,9.7892,9.7892,9.7892,9.7892,9.7892,9.7892,9.7892,9.7892,9.7892,9.7892,9.7892,9.7892,9.7892,9.7892,9.7892,9.7966,9.804,9.804,9.8152,9.8226,9.8226,9.8783,9.9266,9.9266,9.9155,9.9118,9.9118,9.8412,9.7892,9.7892,9.7892,9.7892,9.7892,9.7892,9.7595,9.6852,9.5923,9.5105,9.44,9.3508,9.2996,9.2996,9.2282,9.1873,9.1873,9.1205,9.0759,9.0647,9.0647,9.061,9.0499,9.0499,9.0499,8.2742,8.3596,8.4376,8.5194,8.5483,8.5781,8.6449,8.6598,0.0,0.0,8.7869,8.7906,8.8055,8.8092,8.8092,8.8092,8.8649,8.9355,9.0164,9.0982,9.1799,0.0,9.3471,9.4065,9.4177,9.4808,0.0,0.0,9.6257,9.6294,9.6583,9.7297,9.7743,9.7892,9.7892,9.7892,9.7892,9.7892,9.7892,9.7892,9.7892,9.7892,9.7892,9.7892,9.7892,9.7892,9.7892,0.0,9.7892,9.7892,9.7892,9.7892,9.7892,9.7892,9.7892,9.7892,9.7892,9.7892,9.7892,9.7892,9.7892,9.7892,9.7892,9.7892,9.7892,9.7892,9.7892,9.7892,9.7892,9.7892,9.7892,9.7892,9.7892,9.7892,9.8412,9.8895,9.8895,9.9415,9.9898,9.9898,10.0009,10.0084,10.0084,9.9526,9.9118,9.9118,9.8412,9.7892,9.7892,9.7892,9.7892,9.7892,9.7892,9.7855,9.7669,9.6294,9.5328,9.5217,9.3805,9.2996,9.2996,9.2839,9.2765,9.2765,9.2625,9.2208,9.1502,9.1502,9.1167,9.0499,9.0499,9.0499,8.3596,8.4711,8.5743,8.6115,8.6568,8.7014,8.7386,0.0,0.0,8.8017,8.8092,8.8092,8.8092,8.8092,8.8092,8.8092,8.8798,8.9578,9.0387,9.1205,9.2171,9.3471,9.3954,9.4511,9.5365,9.5811,9.6369,9.7223,9.7297,9.7297,9.7297,9.7669,9.7892,9.7892,9.7892,9.7892,9.7892,9.83,9.8523,9.8523,9.8932,9.9155,9.9155,9.9155,9.9155,9.9155,9.9155,0.0,9.9155,9.9155,9.9155,9.9155,9.9155,9.9155,9.9155,9.9155,9.9155,9.9155,9.9155,9.9155,9.9155,9.9155,9.8598,9.7892,9.7892,9.7892,9.7892,9.7892,9.8189,9.8523,9.8523,9.882,9.9155,9.9155,9.9452,9.9712,9.9712,10.0,10.0307,10.0307,10.0595,10.0892,10.0892,10.0307,9.9712,9.9712,9.8672,9.7892,9.7892,9.7892,9.7892,9.7892,9.7892,9.7892,9.7892,9.6369,9.5403,9.5403,9.3879,9.2996,9.2996,9.2996,9.2996,9.2996,9.2996,9.2802,9.2393,9.2393,9.2171,9.1799,9.1799,9.1799,8.4451,8.5706,8.6821,8.7044,8.7609,8.8092,8.8092,8.8092,8.8092,8.8092,8.8092,8.8092,8.8092,8.8092,8.8092,8.8092,8.8909,8.9793,9.0424,9.1353,9.2542,9.4028,9.4362,0.0,9.648,9.6777,0.0,9.7855,9.7892,9.7892,9.7892,9.804,9.8152,9.8152,9.83,9.8412,9.8412,9.9043,9.9378,9.9378,10.0009,10.0307,10.0307,10.0307,10.0307,10.0307,10.0307,0.0,0.0,10.0307,10.0307,10.0307,10.0307,10.0307,10.0307,10.0307,10.0307,10.0307,10.0307,10.0307,10.0307,10.0307,9.9452,9.8412,9.8412,9.8412,9.8412,9.8412,9.8858,9.9378,9.9378,9.9824,10.0298,10.0483,10.0604,10.0604,10.0789,10.0781,10.0781,10.0781,10.1301,10.1793,10.1793,10.0892,10.0307,10.0307,9.8932,9.7892,9.7892,9.7892,9.7892,9.7892,9.7892,9.7892,9.7892,9.6517,9.5588,9.5403,9.4065,9.3182,9.2996,9.2996,9.2996,9.2996,9.2996,9.2996,9.2996,9.2996,9.2996,9.2996,9.2996,9.2996,8.5268,8.6115,8.7007,8.7795,8.8055,8.8092,8.8092,0.0,8.8092,8.8092,8.8092,8.8092,8.8092,8.8092,8.8092,8.8092,0.0,9.0424,9.0499,9.1873,9.3219,9.4102,9.4845,0.0,9.6517,9.7334,9.7817,9.7892,9.7892,9.7892,9.7892,9.8598,9.9006,9.9006,9.9712,10.0084,10.0084,10.0195,10.0195,10.0195,10.0307,10.0307,10.0307,10.0307,10.0307,10.0307,10.0307,0.0,0.0,10.0307,10.0307,10.0307,10.0307,10.0307,10.0307,10.0307,10.0307,10.0307,10.0307,10.0307,10.0307,10.0307,10.0195,10.0084,10.0084,10.0084,10.0084,10.0084,10.0112,10.0195,10.0195,10.0186,10.0492,10.1189,10.1421,10.1598,10.2304,10.2489,10.2489,10.2489,10.2489,10.2601,10.2601,10.1301,10.0307,10.0307,9.8932,9.7892,9.7892,9.7892,9.7892,9.7892,9.7892,9.7892,9.7892,9.7037,9.6183,9.544,9.4585,9.3776,9.3033,9.2996,9.2996,9.2996,9.2996,9.2996,9.2996,9.2996,9.2996,9.2996,9.2996,9.2996,8.5372,8.6189,8.7007,8.7869,8.8092,8.8092,8.8092,0.0,8.8092,8.8092,8.8092,8.8092,8.8092,8.8092,8.8092,8.8092,0.0,0.0,9.0499,9.1948,9.3471,9.4771,9.5217,9.5923,0.0,0.0,9.8115,9.8598,9.8635,9.882,9.9303,9.9192,9.9303,9.9824,10.0112,10.0307,10.0307,10.0789,10.1003,10.1003,10.1486,10.1709,10.1709,10.1709,10.1709,10.1709,10.1709,0.0,0.0,10.1709,10.1709,10.1709,10.1709,10.1709,10.1709,10.1709,10.1709,10.1709,10.1709,10.1709,10.1709,10.1709,10.1709,10.1607,10.0604,10.0307,10.0307,10.0307,10.0595,10.1003,10.1003,10.1421,10.1784,10.2118,10.2192,10.2304,10.2601,10.2712,10.2712,10.2712,10.2712,10.2489,10.2081,10.1003,10.0112,9.9638,9.8635,9.7892,9.7892,9.7892,9.7892,9.7892,9.7892,9.7892,9.7892,9.7112,9.648,9.6146,9.5365,9.4771,9.4474,9.3991,9.3731,9.3731,9.3256,9.2996,9.2996,9.2996,9.2996,9.2996,9.2996,9.2996,8.5082,8.6004,8.6932,8.7572,8.7906,8.8092,8.8092,8.8092,8.8092,8.8092,8.8092,8.8092,8.8092,8.8092,8.8092,0.0,0.0,9.0499,9.0499,9.1948,9.3582,9.5217,9.5403,9.6071,9.7743,9.7892,9.8226,9.9043,9.9118,9.9563,10.0604,10.0112,10.0084,10.0595,10.0892,10.1003,10.1003,10.1607,10.1904,10.1904,10.2415,10.2712,10.2712,10.2712,10.2712,10.2712,10.2712,0.0,0.0,10.2712,10.2712,10.2712,10.2712,10.2712,10.2712,10.2712,10.2712,10.2712,10.2712,10.2712,10.2712,10.2712,10.2712,10.2489,10.1384,10.1003,10.1003,10.1003,10.1412,10.1904,10.1904,10.2304,10.2712,10.2712,10.2712,10.2712,10.2712,10.2712,10.2712,10.2712,10.2712,10.2415,10.1598,10.0781,10.0,9.9229,9.8412,9.7892,9.7892,9.7892,9.7892,9.7892,9.7892,9.7892,9.7892,9.7334,9.6889,9.662,9.6071,9.5663,9.5403,9.4845,9.4548,9.4548,9.3776,9.3359,9.3359,9.3108,9.2996,9.2996,9.2996,9.2996,8.4414,8.5565,8.6784,8.6821,8.746,8.8092,8.8092,8.8092,8.8092,8.8092,8.8092,8.8092,8.8092,8.8092,8.8092,8.8092,8.9466,9.0499,9.0499,9.1948,9.3582,9.5217,9.5403,9.6071,9.7743,9.7892,9.8226,9.9043,9.9118,0.0,10.1412,10.1495,10.1495,10.1486,10.2313,10.2712,10.2712,10.2712,10.2712,10.2712,10.2712,10.2712,10.2712,10.2712,10.2712,10.2712,0.0,0.0,0.0,10.2712,10.2712,10.2712,10.2712,10.2712,10.2712,10.2712,10.2712,10.2712,10.2712,10.2712,10.2712,10.2712,10.2712,10.2712,10.2712,10.2712,10.2712,10.2712,10.2712,10.2712,10.2712,10.2712,10.2712,10.2712,10.2712,10.2712,10.2712,10.2712,10.2712,10.2712,10.2712,10.2415,10.1598,10.0781,10.0,9.9229,9.8412,9.7892,9.7892,9.7892,9.7892,9.7892,9.7892,9.7892,9.7892,9.7892,9.752,9.6657,9.6583,9.622,9.544,9.5403,9.5403,9.5403,9.4585,9.4177,9.4177,9.3405,9.2996,9.2996,9.2996,9.2996,8.4934,8.5595,8.6271,8.7386,8.7906,8.8092,8.8092,8.8092,8.8092,8.8092,8.8092,8.8092,8.8092,8.8092,8.8092,8.8092,8.9466,9.0499,9.0499,9.1948,9.3582,9.5217,9.6406,9.7334,0.0,0.0,9.9043,9.9861,10.0409,10.1189,10.2313,10.2304,10.2304,10.2304,10.2601,10.2712,10.2712,10.2712,10.2712,10.2712,10.2712,10.2712,10.2712,10.2712,10.2712,0.0,0.0,0.0,0.0,10.2712,10.2712,10.2712,10.2712,10.2712,10.2712,10.2712,10.2712,10.2712,10.2712,10.2712,10.2712,10.2712,10.2712,10.2712,10.2712,10.2712,10.2712,10.2712,10.2712,10.2712,10.2712,10.2712,10.2712,10.2712,10.2712,10.2712,10.2712,10.2712,10.2712,10.2712,10.2712,10.2304,10.0892,10.0492,9.9861,9.8486,9.804,9.7892,9.7892,9.7892,9.7892,9.7892,9.7892,9.7892,9.7892,9.7892,9.778,9.752,9.7483,9.7372,9.7112,9.6554,9.622,9.622,9.544,9.5031,9.5031,9.4214,9.3545,9.2996,9.2996,9.2996,8.5342,8.5825,8.6301,8.7341,8.7869,8.8092,8.8092,8.8092,8.8092,8.8092,8.8092,8.8092,8.8092,8.8092,8.8203,8.85,8.9644,9.061,9.0907,9.2393,9.4065,9.5663,9.7074,0.0,0.0,9.8635,9.9415,10.0186,10.1003,10.1904,10.2712,10.2712,10.2712,10.2712,10.2712,10.2712,10.2712,10.2712,10.2712,10.2712,10.2712,10.2712,10.2712,10.2712,10.2712,0.0,0.0,0.0,0.0,10.2712,10.2712,10.2712,10.2712,10.2704,10.2602,10.2602,10.251,10.2491,10.2491,10.2491,10.2501,10.2584,10.2611,10.2712,10.2712,10.2712,10.2712,10.2712,10.2712,10.2712,10.2712,10.2712,10.2712,10.2712,10.2712,10.2712,10.2712,10.2712,10.2712,10.2712,10.2489,10.1784,10.0483,10.0,9.9415,9.8115,9.7892,9.7892,9.7892,9.7892,9.7892,9.7892,9.7892,9.7892,9.7892,9.7892,9.7892,9.7892,9.7892,9.7892,9.7892,9.7372,9.7074,9.7074,9.6294,9.5848,9.5848,9.4734,9.3954,9.3434,9.3136,9.2996,0.0,8.6271,8.6821,8.6895,8.749,8.8092,8.8092,8.8092,0.0,8.8092,8.8092,8.8092,8.8092,8.8092,8.8352,8.9161,8.9979,9.0796,9.1576,9.3174,9.4845,9.6406,9.7372,0.0,9.7966,9.8709,9.9518,10.028,10.1097,10.1905,10.2592,10.2713,10.2713,10.2713,10.2713,10.2685,10.2712,10.2712,10.2703,10.2694,10.2703,10.2703,10.2713,10.2685,10.2685,0.0,0.0,0.0,0.0,10.2713,10.2713,10.2713,10.2713,10.2519,10.2398,10.2398,10.2313,10.2114,10.2114,10.2114,10.2096,10.2295,10.2491,10.2694,10.2694,10.2703,10.2712,10.2694,10.2703,10.2712,10.2694,10.2703,10.2712,10.2712,10.2712,10.2712,10.2712,10.2712,10.2712,10.2712,10.209,10.1189,10.0409,9.9638,9.882,9.8003,9.7892,9.7892,9.7892,9.7892,9.7892,9.7892,9.7892,9.7892,9.7892,9.7892,9.7892,9.7892,9.7892,9.7892,9.7892,9.7892,9.7892,9.7892,9.7112,9.6666,9.6591,9.5105,9.4325,9.4177,9.3442,9.3062,8.7349,0.0,8.6969,8.7646,8.7943,8.8092,0.0,8.8092,0.0,0.0,0.0,8.8092,8.8092,8.8092,8.8352,8.9161,8.9979,9.0796,9.1576,9.3657,0.0,9.648,9.7372,9.8152,9.8746,9.9563,10.0318,10.0897,10.1704,10.2195,10.2183,10.221,10.221,10.221,10.221,10.2407,10.2712,10.2712,10.2602,10.2491,10.2602,10.251,10.222,10.2417,10.2407,0.0,0.0,0.0,10.221,10.221,10.221,10.221,10.221,10.2191,10.2181,10.2181,10.2105,10.2114,10.2114,10.2114,10.2114,10.2208,10.2286,10.2491,10.2491,10.2593,10.2685,10.2491,10.2593,10.2713,10.2482,10.2602,10.2712,10.2712,10.2712,10.2712,10.2712,10.2712,10.2712,10.2712,10.209,10.1189,10.0409,9.9638,9.882,9.8003,9.7892,9.7892,9.7892,9.7892,9.7892,9.7892,9.7892,9.7892,9.7892,9.7892,9.7892,9.7892,9.7892,9.7892,9.7892,9.7892,9.7892,9.7892,9.7706,9.726,9.6591,9.622,9.5403,9.4214,9.3991,9.3582,8.798,8.7757,8.7497,8.798,8.8092,8.8092,8.8092,8.8092,0.0,0.0,0.0,8.8092,8.8092,8.8389,8.8909,0.0,9.0536,9.1613,9.3174,9.4883,9.6257,9.7112,9.7595,9.8226,0.0,9.9744,10.0498,10.1083,10.1888,10.2191,10.2114,10.2114,10.2114,10.2114,10.2114,10.2219,10.2398,10.2398,10.2389,10.2322,10.2389,10.2286,10.2114,10.2191,10.2219,0.0,0.0,0.0,10.2114,10.2114,10.2114,10.2114,10.2114,10.2009,10.2006,10.2006,10.191,10.1795,10.1795,10.1891,10.2006,10.2006,10.2114,10.2322,10.2322,10.2314,10.2398,10.2417,10.2389,10.2398,10.2417,10.2501,10.2602,10.2694,10.2712,10.2712,10.2712,10.2712,10.2712,10.2712,10.1793,10.0781,10.0418,9.9341,9.8412,9.7966,9.7892,9.7892,9.7892,9.7892,9.7892,9.7892,9.7892,9.7892,9.7892,9.7892,9.7892,9.7892,9.7892,9.7892,9.7892,9.7892,9.7892,9.7892,9.7892,9.7669,9.7186,9.6814,9.596,9.4734,9.4362,9.3768,8.8092,8.8092,8.8092,8.8092,8.8092,8.8092,8.8092,0.0,0.0,0.0,0.0,0.0,8.8092,8.8761,0.0,0.0,0.0,0.0,9.5105,9.6108,9.6926,9.778,9.7874,0.0,9.9148,9.9674,10.0278,10.1213,10.1792,10.2009,10.198,10.198,10.198,10.198,10.198,10.198,10.198,10.2085,10.2094,10.2102,10.2094,10.2085,10.198,10.2009,10.2009,10.198,0.0,0.0,10.198,10.198,10.198,10.198,10.198,10.191,10.18,10.18,10.1607,10.1504,10.1504,10.1614,10.18,10.18,10.1891,10.2102,10.2102,10.2102,10.2104,10.2313,10.2182,10.2105,10.2286,10.2398,10.251,10.2704,10.2712,10.2712,10.2712,10.2712,10.2712,10.2489,10.1301,10.0307,10.0112,9.8895,9.7892,9.7892,9.7892,9.7892,9.7892,9.7892,9.7892,9.7892,9.7892,9.7892,9.7892,9.7892,9.7892,9.7892,9.7892,9.7892,9.7892,9.7892,9.7892,9.7892,9.7892,9.7892,9.7892,9.7149,9.6331,9.5365,9.4697,9.3879,8.8092,8.8092,8.8092,8.8092,8.8092,8.8092,8.8092,8.8092,0.0,0.0,0.0,0.0,0.0,8.8761,8.957,0.0,0.0,9.4177,0.0,0.0,9.6926,9.778,0.0,9.822,9.9721,9.977,10.0285,10.1615,10.1788,10.181,10.1614,10.1604,10.1604,10.1604,10.1604,10.1604,10.1604,10.1903,10.198,10.1805,10.199,10.1893,10.1604,10.181,10.18,10.1604,0.0,10.1604,10.1604,10.1604,10.1604,10.1604,10.1604,10.1584,10.1507,10.1507,10.1497,10.1504,10.1504,10.1487,10.1507,10.1507,10.1684,10.1805,10.1805,10.1805,10.1898,10.1891,10.1998,10.2114,10.2105,10.2285,10.251,10.2704,10.2712,10.2712,10.2712,10.2712,10.2489,10.1784,10.0892,10.0084,9.9415,9.8523,9.7892,9.7892,9.7892,9.7892,9.7892,9.7892,9.7892,9.7892,9.7892,9.7892,9.7892,9.7892,9.7892,9.7892,9.7892,9.7892,9.7892,9.7892,9.7892,9.7892,9.7892,9.7892,9.7892,9.778,9.6926,9.5403,9.5254,9.44,8.8092,8.8092,8.8092,8.8092,8.8092,8.8092,8.8092,0.0,0.0,0.0,0.0,0.0,0.0,0.0,9.0499,9.2208,0.0,9.5143,9.596,9.6777,9.7411,0.0,0.0,9.8677,9.9723,9.9998,10.0611,10.1692,10.1704,10.1604,10.1514,10.1504,10.1504,10.1504,10.1504,10.1504,10.1504,10.1694,10.1697,10.1597,10.1697,10.1694,10.1514,10.1604,10.1594,10.1504,0.0,10.1504,10.1504,10.1504,10.1504,10.1504,10.1504,10.1504,10.1504,10.1504,10.1504,10.1504,10.1504,10.1504,10.1504,10.1504,10.1611,10.1597,10.1597,10.1597,10.1597,10.1597,10.1714,10.1795,10.2009,10.2181,10.2295,10.2602,10.2712,10.2712,10.2712,10.2378,10.1895,10.1607,10.0483,9.9526,9.9155,9.8412,9.7892,9.7892,9.7892,9.7892,9.7892,9.7892,9.7892,9.7892,9.7892,9.7892,9.7892,9.7892,9.7892,9.7892,9.7892,9.7892,9.7892,9.7892,9.7892,9.7892,9.7892,9.7892,9.7892,9.7892,9.7037,9.5403,9.5403,9.4548,8.8092,8.8092,8.8092,8.8092,8.8092,8.8092,8.8092,0.0,0.0,0.0,0.0,0.0,0.0,9.009,0.0,9.3842,9.4883,9.5663,9.648,9.73,9.7778,9.7609,9.8233,9.8928,9.9565,10.0194,10.0914,10.1697,10.1594,10.1504,10.1504,10.1504,10.1504,10.1504,10.1504,10.1504,10.1504,10.1504,10.1504,10.1504,10.1504,10.1504,10.1504,10.1504,10.1504,10.1504,10.1504,10.1504,10.1504,10.1504,10.1504,10.1504,10.1504,10.1504,10.1504,10.1504,10.1504,10.1504,10.1504,10.1504,10.1504,10.1504,10.1504,10.1504,10.1504,10.1504,10.1504,10.1504,10.1504,10.1604,10.2008,10.2114,10.2209,10.2621,10.2712,10.2712,10.2712,10.2081,10.1412,10.131,10.0084,9.9043,9.8858,9.83,9.7892,9.7892,9.7892,9.7892,9.7892,9.7892,9.7892,9.7892,9.7892,9.7892,9.7892,9.7892,9.7892,9.7892,9.7892,9.7892,9.7892,9.7892,9.7892,9.7892,9.7892,9.7892,9.7892,9.7892,9.7037,9.5403,9.5403,9.4548,8.8092,8.8092,8.8092,8.8092,8.8092,0.0,8.8092,8.8092,0.0,8.8092,0.0,0.0,0.0,9.0573,9.2171,9.3917,9.4883,9.5663,9.648,0.0,9.76,9.7591,9.7996,9.8564,9.9328,9.999,10.068,10.1497,10.1514,10.1504,10.1504,10.1504,10.1504,10.1504,10.1504,10.1504,10.1504,10.1504,10.1504,10.1504,10.1504,10.1504,10.1504,10.1504,10.1504,10.1504,10.1504,10.1504,10.1504,10.1504,10.1504,10.1504,10.1504,10.1504,10.1504,10.1504,10.1504,10.1504,10.1504,10.1504,10.1504,10.1504,10.1504,10.1504,10.1504,10.1504,10.1504,10.1504,10.1504,10.1604,10.2008,10.2114,10.2209,10.2621,10.2712,10.2712,10.2712,10.2081,10.1301,10.0483,9.9675,9.8858,9.8115,9.7929,9.7892,9.7892,9.7892,9.7892,9.7892,9.7892,9.7892,9.7892,9.7892,9.7892,9.7892,9.7892,9.7892,9.7892,9.7892,9.7892,9.7892,9.7892,9.7892,9.7892,9.7892,9.7892,9.7892,9.7892,9.7037,9.5403,9.5403,9.4548,8.8092,8.8092,8.8092,8.8092,8.8092,0.0,0.0,0.0,0.0,0.0,0.0,0.0,0.0,0.0,9.3619,9.4771,9.5626,9.64,9.7113,9.745,9.7502,9.7257,9.8225,9.903,9.9198,10.0296,10.121,10.1514,10.1504,10.1504,10.1504,10.1504,10.1504,10.1504,10.1504,10.1504,10.1504,10.1504,10.1504,10.1504,10.1504,10.1504,10.1504,10.1504,10.1504,10.1504,10.1504,10.1504,10.1504,10.1504,10.1504,10.1504,10.1504,10.1504,10.1504,10.1504,10.1504,10.1504,10.1504,10.1504,10.1504,10.1504,10.1504,10.1504,10.1504,10.1504,10.1504,10.1504,10.1594,10.18,10.2,10.2114,10.2209,10.2621,10.2712,10.261,10.2081,10.1301,10.0483,9.9712,9.8895,9.8263,9.7966,9.7892,9.7892,9.7892,9.7892,9.7892,9.7892,9.7892,9.7892,9.7892,9.7892,9.7892,9.7892,9.7892,9.7892,9.7892,9.7892,9.7892,9.7892,9.7892,9.7892,9.7892,9.7892,9.7892,9.7892,9.7892,9.7037,9.5403,9.5403,9.4548,8.8092,8.8092,8.8092,8.8092,8.8092,0.0,8.8426,8.85,8.8649,0.0,0.0,0.0,0.0,0.0,0.0,0.0,9.6257,9.6828,9.7507,9.7538,9.7478,9.7404,9.8515,9.9338,9.9485,10.0696,10.1504,10.1504,10.1504,10.1504,10.1504,10.1504,10.1504,10.1504,10.1504,10.1504,10.1504,10.1504,10.1504,10.1504,10.1504,10.1504,10.1504,10.1504,10.1504,10.1504,10.1504,10.1504,10.1504,10.1504,10.1504,10.1504,10.1504,10.1504,10.1504,10.1504,10.1504,10.1504,10.1504,10.1504,10.1504,10.1504,10.1504,10.1504,10.1504,10.1504,10.1504,10.1504,10.1607,10.1805,10.2009,10.2115,10.2295,10.2593,10.2712,10.2489,10.1709,10.0901,10.0084,9.9266,9.8449,9.7892,9.7892,9.7892,9.7892,9.7892,9.7892,9.7892,9.7892,9.7892,9.7892,9.7892,9.7892,9.7892,9.7892,9.7892,9.7892,9.7892,9.7892,9.7892,9.7892,9.7892,9.7892,9.7892,9.7892,9.7892,9.7892,9.7892,9.7037,9.5403,9.5403,9.4548,8.8092,8.8092,8.8092,8.8092,8.8092,0.0,8.9132,8.9318,8.9318,8.931,0.0,9.2245,0.0,0.0,0.0,9.6323,9.6583,9.682,9.7498,9.7412,9.7507,9.8149,9.8748,9.9428,10.0209,10.099,10.1504,10.1504,10.1504,10.1504,10.1504,10.1504,10.1504,10.1504,10.1504,10.1504,10.1504,10.1504,10.1504,10.1504,10.1504,10.1504,10.1504,10.1504,10.1504,10.1504,10.1504,10.1504,10.1504,10.1504,10.1504,10.1504,10.1504,10.1504,10.1504,10.1504,10.1504,10.1504,10.1504,10.1504,10.1504,10.1504,10.1504,10.1504,10.1504,10.1504,10.1504,10.1504,10.1607,10.1805,10.2009,10.2183,10.251,10.2704,10.2712,10.2489,10.1718,10.0901,10.0084,9.9229,9.8449,9.7892,9.7892,9.7892,9.7892,9.7892,9.7892,9.7892,9.7892,9.7892,9.7892,9.7892,9.7892,9.7892,9.7892,9.7892,9.7892,9.7892,9.7892,9.7892,9.7892,9.7892,9.7892,9.7892,9.7892,9.7892,9.7892,9.7892,9.7037,9.5403,9.5403,9.4511,8.8092,8.8092,8.8092,8.8092,8.8092,0.0,0.0,8.9318,0.0,0.0,9.2319,9.3619,9.4102,0.0,0.0,9.6345,9.6883,9.7259,9.7193,9.7128,9.7302,9.7912,9.866,9.9428,10.0209,10.099,10.1504,10.1504,10.1504,10.1504,10.1504,10.1504,10.1504,10.1504,10.1504,10.1504,10.1504,10.1504,10.1504,10.1504,10.1504,10.1504,10.1504,10.1504,10.1504,10.1504,10.1504,10.1504,10.1504,10.1504,10.1504,10.1504,10.1504,10.1504,10.1504,10.1504,10.1504,10.1504,10.1504,10.1504,10.1504,10.1504,10.1504,10.1504,10.1504,10.1504,10.1504,10.1504,10.1607,10.1805,10.2009,10.2183,10.251,10.2704,10.2304,10.1598,10.0781,10.0,9.9229,9.8412,9.804,9.7892,9.7892,9.7892,9.7892,9.7892,9.7892,9.7892,9.7892,9.7892,9.7892,9.7892,9.7892,9.7892,9.7892,9.7892,9.7892,9.7892,9.7892,9.7892,9.7892,9.7892,9.7892,9.7892,9.7892,9.7892,9.7892,9.7297,9.6443,9.5403,9.4808,9.3991,8.8092,8.8092,8.8092,8.8092,8.8352,8.8872,8.9979,0.0,0.0,0.0,0.0,9.44,9.5031,9.5863,0.0,9.6785,9.7187,9.7367,9.7054,9.7007,9.7328,9.8256,9.8805,9.9539,10.0696,10.121,10.1504,10.1504,10.1504,10.1504,10.1504,10.1504,10.1504,10.1504,10.1504,10.1504,10.1504,10.1504,10.1504,10.1504,10.1504,10.1504,10.1504,10.1504,10.1504,10.1504,10.1504,10.1504,10.1504,10.1504,10.1504,10.1504,10.1504,10.1504,10.1504,10.1504,10.1504,10.1504,10.1504,10.1504,10.1504,10.1504,10.1504,10.1504,10.1504,10.1504,10.1504,10.1504,10.1714,10.1912,10.2085,10.2286,10.2491,10.2313,10.1904,10.1189,10.0084,9.9452,9.8858,9.804,9.7892,9.7892,9.7892,9.7892,9.7892,9.7892,9.7892,9.7892,9.7892,9.7892,9.7892,9.7892,9.7892,9.7892,9.7892,9.7892,9.7892,9.7892,9.7892,9.7892,9.7892,9.7892,9.7892,9.7892,9.7892,9.7892,9.7892,9.7037,9.6183,9.5365,9.4585,9.3768,8.8092,8.8092,8.8129,8.8203,8.8872,0.0,9.1353,9.1783,9.2332,9.3879,0.0,9.4746,9.6306,9.6456,9.6621,9.7427,9.7385,9.7193,9.6998,9.6979,9.7493,9.8944,9.9098,9.9732,10.132,10.1504,10.1504,10.1504,10.1504,10.1504,10.1504,10.1504,10.1504,10.1504,10.1504,10.1504,10.1504,10.1504,10.1504,10.1504,10.1504,10.1504,10.1504,10.1504,10.1504,10.1504,10.1504,10.1504,10.1504,10.1504,10.1504,10.1504,10.1504,10.1504,10.1504,10.1504,10.1504,10.1504,10.1504,10.1504,10.1504,10.1504,10.1504,10.1504,10.1504,10.1504,10.1504,10.1504,10.1793,10.2085,10.2104,10.2287,10.2388,10.1617,10.1403,10.1012,9.9415,9.9043,9.8783,9.804,9.7892,9.7892,9.7892,9.7892,9.7892,9.7892,9.7892,9.7892,9.7892,9.7892,9.7892,9.7892,9.7892,9.7892,9.7892,9.7892,9.7892,9.7892,9.7892,9.7892,9.7892,9.7892,9.7892,9.7892,9.7892,9.7892,9.7892,9.6963,9.6108,9.5365,9.4511,9.3702,8.8092,8.8092,8.824,8.8872,9.0127,9.1279,9.1613,9.2612,9.3584,9.4077,9.4587,9.5198,9.619,9.6781,9.7081,9.7119,9.7091,9.6998,9.6781,9.6752,9.7358,9.8924,9.9098,9.9732,10.132,10.1504,10.1504,10.1504,10.1504,10.1504,10.1504,10.1504,10.1504,10.1504,10.1504,10.1504,10.1504,10.1504,10.1504,10.1504,10.1504,10.1504,10.1504,10.1504,10.1504,10.1504,10.1504,10.1504,10.1504,10.1504,10.1504,10.1504,10.1504,10.1504,10.1504,10.1504,10.1504,10.1504,10.1504,10.1504,10.1504,10.1504,10.1504,10.1504,10.1504,10.1504,10.1504,10.1504,10.1684,10.1901,10.2112,10.1814,10.1296,10.0499,10.0385,10.0307,9.9303,9.8598,9.8115,9.7929,9.7892,9.7892,9.7892,9.7892,9.7892,9.7892,9.7892,9.7892,9.7892,9.7892,9.7892,9.7892,9.7892,9.7892,9.7892,9.7892,9.7892,9.7892,9.7892,9.7892,9.7892,9.7892,9.7892,9.7892,9.7892,9.7892,9.7892,9.6406,9.5588,9.5365,9.3917,9.3174,8.8092,8.8092,8.8389,8.9578,9.0796,9.1775,9.2101,9.3068,9.4,9.4425,9.5059,9.5811,9.6625,9.6989,9.7119,9.7026,9.6923,9.6809,9.6695,9.7016,9.7713,9.8951,9.9428,10.0219,10.1394,10.1504,10.1504,10.1504,10.1504,10.1504,10.1504,10.1504,10.1504,10.1504,10.1504,10.1504,10.1504,10.1504,10.1504,10.1504,10.1504,10.1504,10.1504,10.1504,10.1504,10.1504,10.1504,10.1504,10.1504,10.1504,10.1504,10.1504,10.1504,10.1504,10.1504,10.1504,10.1504,10.1504,10.1504,10.1504,10.1504,10.1504,10.1504,10.1504,10.1504,10.1504,10.1504,10.1504,10.1687,10.2015,10.2085,10.1887,10.1593,10.0878,10.0198,9.9463,9.8566,9.8128,9.7892,9.7892,9.7892,9.7892,9.7892,9.7892,9.7892,9.7892,9.7892,9.7892,9.7892,9.7892,9.7892,9.7892,9.7892,9.7892,9.7892,9.7892,9.7892,9.7892,9.7892,9.7892,9.7892,9.7892,9.7892,9.7892,9.7892,9.7892,9.7892,9.622,9.5403,9.5365,9.3731,9.2996,8.8092,8.8315,8.8835,9.0164,9.1205,9.2084,9.2763,9.3501,9.4229,9.4857,9.5486,9.6233,9.7091,9.7082,9.6951,9.6951,9.68,9.6685,9.6685,9.7392,9.82,9.8988,9.9805,10.0613,10.1394,10.1504,10.1504,10.1504,10.1504,10.1504,10.1504,10.1504,10.1504,10.1504,10.1504,10.1504,10.1504,10.1504,10.1504,10.1504,10.1504,10.1504,10.1504,10.1504,10.1504,10.1504,10.1504,10.1504,10.1504,10.1504,10.1504,10.1504,10.1504,10.1504,10.1504,10.1504,10.1504,10.1504,10.1504,10.1504,10.1504,10.1504,10.1504,10.1504,10.1504,10.1504,10.1504,10.1504,10.1803,10.2114,10.2114,10.2109,10.2093,10.1591,10.029,9.9038,9.8255,9.8195,9.8263,9.8115,9.8115,9.8152,9.83,9.83,9.83,9.83,9.8189,9.8115,9.8115,9.8003,9.7892,9.7892,9.7892,9.7892,9.7892,9.7892,9.7892,9.7892,9.7892,9.7892,9.7892,9.7892,9.7892,9.7892,9.7892,9.7817,9.7669,9.6146,9.5328,9.5143,9.3694,9.2996,8.8092,8.9132,9.0239,9.0462,9.165,9.2975,9.3598,9.424,9.4848,9.5525,9.5746,9.6078,9.6897,9.6866,9.6724,9.6724,9.6705,9.6685,9.6685,9.7392,9.82,9.8988,9.9805,10.0613,10.1394,10.1504,10.1504,10.1504,10.1504,10.1504,10.1504,10.1504,10.1504,10.1504,10.1504,10.1504,10.1504,10.1504,10.1504,10.1504,10.1504,10.1504,10.1504,10.1504,10.1504,10.1504,10.1504,10.1504,10.1504,10.1504,10.1504,10.1504,10.1504,10.1504,10.1504,10.1504,10.1504,10.1504,10.1504,10.1504,10.1504,10.1504,10.1504,10.1504,10.1504,10.1504,10.1504,10.1504,10.1803,10.2114,10.2114,10.1702,10.1306,10.1287,10.0499,9.9906,9.9938,9.9954,9.9786,9.9081,9.8932,9.9155,9.9861,9.9972,9.9972,9.9972,9.9378,9.8932,9.8932,9.8338,9.7892,9.7892,9.7892,9.7892,9.7892,9.7892,9.7892,9.7892,9.7892,9.7892,9.7892,9.7892,9.7892,9.7892,9.7892,9.752,9.6777,9.5848,9.5031,9.4325,9.3434,9.2996,8.8092,8.9281,9.0499,9.0499,9.177,9.3136,9.3618,9.4292,9.497,9.5515,9.5974,9.6415,9.6755,9.6752,9.6685,9.6685,9.6685,9.6869,9.7319,9.808,9.8888,9.9695,10.0513,10.11,10.1514,10.1504,10.1504,10.1504,10.1504,10.1504,10.1504,10.1504,10.1504,10.1504,10.1504,10.1504,10.1504,10.1504,10.1504,10.1504,10.1504,10.1504,10.1504,10.1504,10.1504,10.1504,10.1504,10.1504,10.1504,10.1504,10.1504,10.1504,10.1504,10.1504,10.1504,10.1504,10.1504,10.1504,10.1504,10.1504,10.1504,10.1504,10.1504,10.1504,10.1504,10.1504,10.1504,10.1504,10.1803,10.2085,10.2006,10.1789,10.1711,10.1796,10.1518,10.1296,10.1609,10.0892,10.0195,9.9861,9.9786,9.9898,10.0186,10.0307,10.0307,10.0307,9.9638,9.9118,9.9118,9.8412,9.7892,9.7892,9.7892,9.7892,9.7892,9.7892,9.7892,9.7892,9.7892,9.7892,9.7892,9.7892,9.7892,9.7892,9.7892,9.7483,9.6591,9.5774,9.4994,9.4177,9.3368,9.2996,8.8092,8.9281,9.0499,9.0499,9.1729,9.3024,9.3496,9.4166,9.4889,9.5384,9.6125,9.6685,9.6685,9.6685,9.6685,9.6685,9.6685,9.6979,9.7796,9.8594,9.9392,10.0209,10.099,10.1504,10.1504,10.1504,10.1504,10.1504,10.1504,10.1504,10.1504,10.1504,10.1504,10.1504,10.1504,10.1504,10.1504,10.1504,10.1504,10.1504,10.1504,10.1504,10.1504,10.1504,10.1504,10.1504,10.1504,10.1504,10.1504,10.1504,10.1504,10.1504,10.1504,10.1504,10.1504,10.1504,10.1504,10.1504,10.1504,10.1504,10.1504,10.1504,10.1504,10.1504,10.1504,10.1504,10.1504,10.1504,10.18,10.1998,10.1795,10.191,10.2094,10.2314,10.222,10.2182,10.2593,10.1598,10.0715,10.0901,10.0706,10.0715,10.0901,10.0892,10.0781,10.0595,9.9935,9.9341,9.9118,9.8412,9.7892,9.7892,9.7892,9.7892,9.7892,9.7892,9.7892,9.7892,9.7892,9.7892,9.7892,9.7892,9.7892,9.7892,9.7669,9.7149,9.6294,9.5477,9.4697,9.3879,9.3293,9.2996,8.8092,8.9281,9.0499,9.0499,9.1639,9.2872,9.347,9.4059,9.4688,9.5356,9.6125,9.6685,9.6685,9.6685,9.6685,9.6685,9.6685,9.6979,9.7796,9.8594,9.9392,10.0209,10.099,10.1504,10.1504,10.1504,10.1504,10.1504,10.1504,10.1504,10.1504,10.1504,10.1504,10.1504,10.1504,10.1504,10.1504,10.1504,10.1504,10.1504,10.1504,10.1504,10.1504,10.1504,10.1504,10.1504,10.1504,10.1504,10.1504,10.1504,10.1504,10.1504,10.1504,10.1504,10.1504,10.1504,10.1504,10.1504,10.1504,10.1504,10.1504,10.1504,10.1504,10.1504,10.1504,10.1504,10.1504,10.1504,10.1701,10.1812,10.1803,10.1803,10.191,10.2286,10.222,10.2182,10.2593,10.2006,10.1718,10.2415,10.2015,10.1709,10.2415,10.2601,10.2304,10.1607,10.0789,9.9972,9.9192,9.8412,9.7892,9.7892,9.7892,9.7892,9.7892,9.7892,9.7892,9.7892,9.7892,9.7892,9.7892,9.7892,9.7892,9.7892,9.7074,9.6257,9.5477,9.466,9.3842,9.307,9.3025,9.2996,8.8092,8.9281,9.0499,9.0499,9.1223,9.2225,9.3359,9.3681,9.4081,9.5245,9.6125,9.6685,9.6685,9.6685,9.6685,9.6685,9.6685,9.6979,9.7796,9.8594,9.9392,10.0209,10.099,10.1504,10.1504,10.1504,10.1504,10.1504,10.1504,10.1504,10.1504,10.1504,10.1504,10.1504,10.1504,10.1504,10.1504,10.1504,10.1504,10.1504,10.1504,10.1504,10.1504,10.1504,10.1504,10.1504,10.1504,10.1504,10.1504,10.1504,10.1504,10.1504,10.1504,10.1504,10.1504,10.1504,10.1504,10.1504,10.1504,10.1504,10.1504,10.1504,10.1504,10.1504,10.1504,10.1504,10.1504,10.1504,10.1607,10.181,10.1607,10.1704,10.1908,10.2115,10.2286,10.2501,10.2685,10.2489,10.2378,10.2601,10.2489,10.2378,10.2721,10.2304,10.1784,10.1486,10.0418,9.9415,9.9155,9.8412,9.7892,9.7892,9.7892,9.7892,9.7892,9.7892,9.7892,9.7892,9.7892,9.7892,9.7892,9.7892,9.7632,9.7074,9.6257,9.57,9.5403,9.4585,9.3776,9.2996,9.2996,9.2996,8.8426,8.9466,9.0573,9.0833,9.1186,9.1781,9.2961,9.3248,9.3639,9.4851,9.5951,9.6685,9.6685,9.6685,9.6685,9.6685,9.6685,9.6979,9.7796,9.8374,9.9108,10.0219,10.0806,10.121,10.1514,10.1504,10.1504,10.1504,10.1504,0.0,10.1504,10.1504,10.1504,10.1504,10.1504,10.1504,10.1504,10.1504,10.1504,10.1504,10.1504,10.1504,10.1504,10.1504,10.1504,10.1504,10.1504,10.1504,10.1504,10.1504,10.1504,10.1504,10.1504,10.1504,10.1504,10.1504,10.1504,10.1504,10.1504,10.1504,10.1504,10.1504,10.1504,10.1504,10.1504,10.1504,10.1504,10.1504,10.1604,10.1711,10.1497,10.1704,10.192,10.1988,10.2416,10.2694,10.2593,10.2704,10.2712,10.2712,10.2712,10.2601,10.2304,10.1904,10.1301,10.0789,9.9786,9.9006,9.8746,9.8226,9.7892,9.7892,9.7892,9.7892,9.7892,9.7892,9.7892,9.7892,9.7892,9.7892,9.7892,9.7892,9.7483,9.662,9.5811,9.5254,9.4994,9.4177,9.3516,9.2996,9.2996,9.2996,0.0,0.0,0.0,9.1494,9.1586,9.1625,9.2222,9.2805,9.3455,9.4116,9.5547,9.6685,9.6685,9.6685,9.6685,9.6685,9.6685,9.6979,9.776,9.7906,9.8494,9.9989,10.0293,10.0613,10.1394,10.1504,10.1504,10.1504,10.1504,10.1504,10.1504,10.1504,10.1504,10.1504,10.1504,10.1504,10.1504,10.1504,10.1504,10.1504,10.1504,10.1504,10.1504,10.1504,10.1504,10.1504,10.1504,10.1504,10.1504,10.1504,10.1504,10.1504,10.1504,10.1504,10.1504,10.1504,10.1504,10.1504,10.1504,10.1504,10.1504,10.1504,10.1504,10.1504,10.1504,10.1504,10.1504,10.1504,10.1504,10.1504,10.1514,10.1812,10.2009,10.1898,10.2313,10.2611,10.2417,10.2612,10.2703,10.2703,10.2712,10.2415,10.1589,10.1486,10.0892,9.9341,9.9081,9.8783,9.8003,9.7892,9.7892,9.7892,9.7892,9.7892,9.7892,9.7892,9.7892,9.7892,9.7892,9.7892,9.7892,9.7892,9.7446,9.6591,9.5774,9.4957,9.4177,9.3359,9.2996,9.2996,9.2996,9.2996,8.9095,0.0,0.0,0.0,0.0,0.0,9.1157,9.1799,9.2501,9.3281,9.518,9.6685,9.6685,9.6685,9.6685,9.6685,9.6685,9.6795,9.7016,9.7539,9.8053,9.8494,9.9595,10.0393,10.0613,10.121,10.1504,0.0,10.1504,10.1504,10.1504,10.1504,10.1504,10.1504,10.1504,10.1504,10.1504,10.1504,10.1504,10.1504,10.1504,10.1504,10.1504,10.1504,10.1504,10.1504,10.1504,10.1504,10.1504,10.1504,10.1504,10.1504,10.1504,10.1504,10.1504,10.1504,10.1504,10.1504,10.1504,10.1504,10.1504,10.1504,10.1504,10.1504,10.1504,10.1504,10.1504,10.1504,10.1504,10.1497,10.1684,10.1803,10.191,10.2008,10.2313,10.2482,10.2389,10.2417,10.2501,10.2501,10.2092,10.1701,10.1296,10.0394,9.9601,9.9155,9.8598,9.8152,9.7929,9.7892,9.7892,9.7892,9.7892,9.7892,9.7892,9.7892,9.7892,9.7892,9.7892,9.7892,9.7892,9.7297,9.6554,9.5737,9.4957,9.414,9.333,9.3099,9.2996,9.2996,9.2996,9.2653,0.0,0.0,0.0,0.0,0.0,0.0,9.0747,9.1202,9.1793,9.2886,9.474,9.6309,9.6649,9.6685,9.6685,9.6685,9.6685,9.6685,9.6685,9.7089,9.7539,9.787,9.8714,9.9438,9.9769,10.0503,10.099,10.099,10.1284,10.1504,10.1504,10.1504,10.1504,10.1504,10.1504,10.1504,10.1504,10.1504,10.1504,10.1504,10.1504,10.1504,10.1504,10.1504,10.1504,10.1504,10.1504,10.1504,10.1504,10.1504,10.1504,10.1504,10.1504,10.1504,10.1504,10.1504,10.1504,10.1504,10.1504,10.1504,10.1504,10.1504,10.1504,10.1504,10.1504,10.1504,10.1504,10.1504,10.1504,10.1497,10.1607,10.1697,10.1803,10.1805,10.2105,10.2407,10.22,10.1999,10.1908,10.1908,10.1592,10.111,10.0296,9.9588,9.9006,9.8635,9.8189,9.7892,9.7892,9.7892,9.7892,9.7892,9.7892,9.7892,9.7892,9.7892,9.7892,9.7892,9.7892,9.7892,9.7892,9.7074,9.622,9.544,9.4622,9.3805,9.2996,9.2996,9.2996,9.2996,9.2996,9.2542,0.0,0.0,0.0,0.0,0.0,0.0,9.0517,9.0731,9.123,9.2565,9.4253,9.5721,9.6428,9.6649,9.6685,9.6685,9.6685,9.6685,9.6685,9.6685,9.6979,9.7686,9.7833,9.819,9.8915,9.9695,10.0209,10.0283,10.098,10.1504,10.1504,10.1504,10.1504,10.1504,10.1504,10.1504,10.1504,10.1504,10.1504,10.1504,10.1504,10.1504,10.1504,10.1504,10.1504,10.1504,10.1504,10.1504,10.1504,10.1504,10.1504,10.1504,10.1504,10.1504,10.1504,10.1504,10.1504,10.1504,10.1504,10.1504,10.1504,10.1504,10.1504,10.1504,10.1504,10.1504,10.1504,10.1504,10.1504,10.1514,10.1497,10.1607,10.1687,10.1621,10.1922,10.221,10.1807,10.1402,10.1083,10.0898,10.0917,10.0491,9.9,9.8874,9.8709,9.7977,9.7883,9.7892,9.7866,9.7883,9.7892,9.7892,9.7892,9.7892,9.7892,9.7892,9.7892,9.7892,9.7892,9.7855,9.7743,9.6926,9.6108,9.5291,9.4474,9.3694,9.2996,9.2996,9.2996,9.2996,9.2922,9.2393,0.0,0.0,0.0,0.0,0.0,0.0,8.8855,8.9728,9.0738,9.1033,9.3446,9.5538,9.5721,9.6282,9.6685,9.6685,9.6685,9.6685,9.6685,9.6685,9.6759,9.6906,9.7503,9.798,9.8127,9.8851,9.9612,10.0293,10.098,10.1504,10.1504,10.1504,10.1504,10.1504,10.1504,10.1504,10.1504,10.1504,10.1504,10.1504,10.1504,10.1504,10.1504,10.1504,10.1504,10.1504,10.1504,10.1504,10.1504,10.1504,10.1504,10.1504,10.1504,10.1504,10.1504,10.1504,10.1504,10.1504,10.1504,10.1504,10.1504,10.1504,10.1504,10.1504,10.1504,10.1504,10.1504,10.1504,10.1504,10.1507,10.1704,10.1691,10.1594,10.1714,10.1795,10.1716,10.0985,10.0785,10.0281,9.9046,9.9039,9.913,9.8633,9.834,9.8034,9.7699,9.7805,9.784,9.7662,9.7805,9.7892,9.7892,9.7892,9.7892,9.7892,9.7892,9.7892,9.7892,9.7892,9.7595,9.6889,9.6071,9.5254,9.4437,9.3628,9.3145,9.2996,9.2996,9.2996,9.2996,9.2282,9.1502,0.0,0.0,0.0,9.079,0.0,0.0,0.0,8.9409,9.0253,9.1069,9.2868,9.4547,9.5354,9.5832,9.6235,9.6649,9.6685,9.6685,9.6685,9.6685,9.6685,9.6685,9.7052,9.7309,9.7309,9.8043,9.8851,9.9659,10.0393,10.0917,10.0917,10.1284,10.1504,10.1504,10.1504,10.1504,10.1504,10.1504,10.1504,10.1504,10.1504,10.1504,10.1504,10.1504,10.1504,10.1504,10.1504,10.1504,10.1504,10.1504,10.1504,10.1504,10.1504,10.1504,10.1504,10.1504,10.1504,10.1504,10.1504,10.1504,10.1504,10.1504,10.1504,10.1504,10.1504,10.1504,10.1504,10.1504,10.1504,10.1487,10.1587,10.1584,10.1497,10.1587,10.1402,10.1083,10.0581,9.9904,9.9142,9.8237,9.806,9.8032,9.7931,9.7825,9.7734,9.76,9.7708,9.7726,9.76,9.7787,9.7892,9.7892,9.7892,9.7892,9.7892,9.7892,9.7892,9.7892,9.7892,9.752,9.6629,9.5848,9.4845,9.3619,9.3219,9.2996,9.2996,9.2996,9.2996,9.2996,9.2096,9.1279,0.0,0.0,0.0,0.0,0.0,8.8793,0.0,0.0,0.0,9.1372,9.2427,9.3483,9.4804,9.5171,9.5428,9.5914,9.6282,9.6428,9.6245,9.6502,9.6685,9.6685,9.6685,9.6685,9.6685,9.7429,9.8163,9.8814,9.9622,10.0089,10.0283,10.0907,10.132,10.1504,10.1504,10.1504,10.1504,10.1504,10.1504,10.1504,10.1504,10.1504,10.1504,10.1504,10.1504,10.1504,10.1504,10.1504,10.1504,10.1504,10.1504,10.1504,10.1504,10.1504,10.1504,10.1504,10.1504,10.1504,10.1504,10.1504,10.1504,10.1504,10.1504,10.1504,10.1504,10.1504,10.1504,10.1504,10.1504,10.1504,10.1504,10.1504,10.1514,10.1284,10.0899,10.0389,9.9955,9.8924,9.8045,9.7715,9.7431,9.723,9.723,9.743,9.7573,9.7538,9.7564,9.7591,9.7591,9.7787,9.7892,9.7892,9.7892,9.7892,9.7892,9.7892,9.7892,9.7892,9.7743,9.726,9.6406,9.544,9.4325,9.3033,9.2996,9.2996,9.2996,9.2996,9.2922,9.2728,9.1873,9.1056,0.0,0.0,0.0,0.0,9.0996,0.0,0.0,0.0,9.051,9.0693,0.0,9.3161,9.3336,0.0,0.0,9.3602,9.4694,9.5391,9.4676,9.5804,9.6685,9.6685,9.6685,9.6685,9.6685,9.7429,9.7943,9.8016,9.8778,9.9539,10.0293,10.0393,10.0806,10.1514,10.1504,10.1504,10.1504,10.1504,10.1504,10.1504,10.1504,10.1504,10.1504,10.1504,10.1504,10.1504,10.1504,10.1504,10.1504,10.1504,10.1504,10.1504,10.1504,10.1504,10.1504,10.1504,10.1504,10.1504,10.1504,10.1504,10.1504,10.1504,10.1504,10.1504,10.1504,10.1504,10.1504,10.1504,10.1504,10.1504,10.1504,10.1504,10.1284,10.0613,10.0413,9.9945,9.8503,9.8036,9.7715,9.6989,9.6949,9.7035,9.7035,9.7349,9.7529,9.7349,9.7475,9.7591,9.7591,9.7787,9.7892,9.7892,9.7892,9.7892,9.7892,9.7892,9.7892,9.7892,9.7186,9.6369,9.5588,9.4065,9.3182,9.2996,9.2996,9.2996,9.2996,9.2996,9.2579,9.1836,9.1019,9.0202,0.0,0.0,0.0,0.0,0.0,0.0,0.0,0.0,9.073,0.0,0.0,0.0,0.0,0.0,0.0,0.0,9.4373,9.4703,9.4345,9.4887,9.5658,9.6575,9.6685,9.6685,9.6685,9.7016,9.7199,9.7199,9.7933,9.8557,9.8898,9.9769,10.0513,10.0806,10.1294,10.1504,10.1504,10.1504,10.1504,10.1504,10.1504,10.1504,10.1504,10.1504,10.1504,10.1504,10.1504,10.1504,10.1504,10.1504,10.1504,10.1504,10.1504,10.1504,10.1504,10.1504,10.1504,10.1504,10.1504,10.1504,10.1504,10.1504,10.1504,10.1504,10.1504,10.1504,10.1504,10.1504,10.1504,10.1504,10.1504,10.1504,10.1284,10.0513,9.9952,9.9292,9.8163,9.7539,9.7089,9.6759,9.6857,9.6961,9.6838,9.7063,9.7257,9.7285,9.7358,9.7457,9.7573,9.7653,9.7778,9.7883,9.7805,9.7778,9.7883,9.7892,9.7892,9.7892,9.6629,9.5551,9.4734,9.3628,9.2996,9.2996,9.2996,9.2996,9.2996,9.2996,9.2319,9.1019,9.0647,9.0053,9.496,0.0,0.0,0.0,0.0,0.0,0.0,0.0,0.0,0.0,0.0,0.0,0.0,0.0,0.0,0.0,0.0,9.3896,9.3648,9.4015,9.4813,9.6208,9.6575,9.6685,9.6685,9.6685,9.6685,9.6685,9.7236,9.7686,9.7906,9.9008,9.9842,10.0293,10.0917,10.1284,10.1504,10.1504,10.1504,10.1504,10.1504,10.1504,10.1504,10.1504,10.1504,10.1504,10.1504,10.1504,10.1504,10.1504,10.1504,10.1504,10.1504,10.1504,10.1504,10.1504,10.1504,10.1504,10.1504,10.1504,10.1504,10.1504,10.1504,10.1504,10.1504,10.1504,10.1504,10.1504,10.1504,10.1504,10.1504,10.132,10.099,10.0219,9.9365,9.8557,9.775,9.7126,9.6685,9.6685,9.6809,9.6866,9.6714,9.6866,9.7073,9.7257,9.7285,9.7376,9.7636,9.7618,9.7662,9.7874,9.7734,9.7662,9.7874,9.7892,9.7706,9.7223,9.6071,9.4957,9.3917,9.333,9.2996,9.2996,9.2996,9.2996,9.2996,9.2765,9.191,9.0499,9.0499,8.9942,0.0,0.0,0.0,9.5382,0.0,0.0,0.0,0.0,9.3015,0.0,0.0,0.0,0.0,0.0,0.0,0.0,0.0,0.0,0.0,9.3281,9.4593,9.5428,9.6235,9.6685,9.6685,9.6685,9.6685,9.6685,9.6722,9.7089,9.787,9.7943,9.8677,10.0293,10.0319,10.0686,10.1504,10.1504,10.1504,10.1504,10.1504,10.1504,10.1504,10.1504,10.1504,10.1504,10.1504,10.1504,10.1504,10.1504,10.1504,10.1504,10.1504,10.1504,10.1504,10.1504,10.1504,10.1504,10.1504,10.1504,10.1504,10.1504,10.1504,10.1504,10.1504,10.1504,10.1504,10.1504,10.1504,10.1504,10.1504,10.0907,10.0089,9.9318,9.8521,9.7723,9.6906,9.6722,9.6685,9.6685,9.6695,9.6695,9.6685,9.6866,9.7073,9.7257,9.7285,9.743,9.784,9.7734,9.7662,9.7874,9.7734,9.7662,9.7874,9.7892,9.7223,9.5588,9.544,9.4697,9.3108,9.2996,9.2996,9.2996,9.2996,9.2996,9.2996,9.2133,9.1316,9.0499,9.0499,8.9644,0.0,0.0,9.5501,9.5501,0.0,0.0,0.0,0.0,0.0,0.0,0.0,0.0,0.0,0.0,0.0,0.0,0.0,0.0,0.0,9.2794,9.3602,9.3886,9.5098,9.6125,9.6649,9.6685,9.6685,9.6685,9.6685,9.6832,9.7089,9.7613,9.8374,9.9465,9.9989,10.0696,10.1504,10.1504,10.1504,10.1504,10.1504,10.1504,10.1504,10.1504,10.1504,10.1504,10.1504,10.1504,10.1504,10.1504,10.1504,10.1504,10.1504,10.1504,10.1504,10.1504,10.1504,10.1504,10.1504,10.1504,10.1504,10.1504,10.1504,10.1504,10.1504,10.1504,10.1504,10.1504,10.1504,10.1394,10.0796,10.0503,9.9952,9.8631,9.809,9.7686,9.6869,9.6685,9.6685,9.6685,9.6685,9.6685,9.6685,9.6743,9.6904,9.7239,9.7285,9.7385,9.7681,9.7548,9.7466,9.7662,9.7511,9.7557,9.7866,9.7372,9.6554,9.5477,9.4883,9.4102,9.3033,9.2996,9.2996,9.2996,9.2996,9.2736,9.2133,9.1836,9.1019,8.9719,8.9719,8.9132,9.6795,9.6318,0.0,9.5942,9.5547,0.0,9.5144,0.0,0.0,0.0,0.0,0.0,0.0,0.0,0.0,0.0,0.0,0.0,0.0,9.2281,9.2758,9.3042,9.451,9.5685,9.6199,9.6539,9.6685,9.6685,9.6685,9.6685,9.6685,9.7199,9.7823,9.8668,9.9438,10.0293,10.11,10.1404,10.1504,10.1504,10.1504,10.1504,10.1504,10.1504,10.1504,10.1504,10.1504,10.1504,10.1504,10.1504,10.1504,10.1504,10.1504,10.1504,10.1504,10.1504,10.1504,10.1504,10.1504,10.1504,10.1504,10.1504,10.1504,10.1504,10.1504,10.1504,10.1587,10.1788,10.1504,10.099,10.0806,10.0109,9.9191,9.8163,9.7686,9.7319,9.6795,9.6685,9.6685,9.6685,9.6685,9.6685,9.6685,9.6685,9.6828,9.723,9.723,9.7285,9.7556,9.7358,9.7294,9.7564,9.7412,9.7439,9.7866,9.7112,9.6257,9.544,9.4622,9.3842,9.3033,9.2996,9.3145,9.3434,9.3145,9.2736,9.2171,9.1576,9.0573,8.9273,8.9021,8.8612]},{"header":{"parameterUnit":"m.s-1","parameterCategory":1,"la1":30.6,"la2":29.2853,"lo1":-89.7004,"lo2":-87.6739,"dy":0.0162,"dx":0.0183,"nx":112,"ny":82,"refTime":"2024-02-25T18:00:00:Z","depth":0,"parameterNumber":3,"parameterNumberName":"V-component_of_WINDS"},"data":[0.0,0.0,0.0,0.0,0.0,0.0,0.0,0.0,0.0,0.0,0.0,0.0,0.0,0.0,0.0,0.0,0.0,0.0,0.0,0.0,0.0,0.0,0.0,0.0,0.0,0.0,0.0,0.0,0.0,0.0,0.0,0.0,0.0,0.0,0.0,0.0,0.0,0.0,0.0,0.0,0.0,0.0,0.0,0.0,0.0,0.0,0.0,0.0,0.0,0.0,0.0,0.0,0.0,0.0,0.0,0.0,0.0,0.0,0.0,0.0,0.0,0.0,0.0,0.0,0.0,0.0,0.0,0.0,0.0,0.0,0.0,0.0,0.0,0.0,0.0,0.0,0.0,0.0,0.0,0.0,0.0,0.0,0.0,0.0,0.0,0.0,0.0,0.0,0.0,0.0,0.0,1.2287,1.272,1.3008,1.3008,1.3436,1.3502,1.303,0.0,0.0,0.0,0.0,0.0,0.0,0.0,0.0,0.0,0.0,0.0,0.0,0.0,0.0,0.0,0.0,0.0,0.0,0.0,0.0,0.0,0.0,0.0,0.0,0.0,0.0,0.0,0.0,0.0,0.0,0.0,0.0,0.0,0.0,0.0,0.0,0.0,0.0,0.0,0.0,0.0,0.0,0.0,0.0,0.0,0.0,0.0,0.0,0.0,0.0,0.0,0.0,0.0,0.0,0.0,0.0,0.0,0.0,0.0,0.0,0.0,0.0,0.0,0.0,0.0,0.0,0.0,0.0,0.0,0.0,0.0,0.0,0.0,0.0,0.0,0.0,0.0,0.0,0.0,0.0,0.0,0.0,0.0,0.0,0.0,0.0,0.0,0.0,0.0,0.0,0.0,0.0,0.0,0.0,0.0,0.0,0.0,0.0,0.0,0.0,0.0,0.0,0.0,0.0,1.232,1.2742,1.3214,1.3502,1.3502,1.3923,1.3989,1.3524,0.0,0.0,0.0,0.0,0.0,0.0,0.0,0.0,0.0,0.0,0.0,0.0,0.0,0.0,0.0,0.0,0.0,0.0,0.0,0.0,0.0,0.0,0.0,0.0,0.0,0.0,0.0,0.0,0.0,0.0,0.0,0.0,0.0,0.0,0.0,0.0,0.0,0.0,0.0,0.0,0.0,0.0,0.0,0.0,0.0,0.0,0.0,0.0,0.0,0.0,0.0,0.0,0.0,0.0,0.0,0.0,0.0,0.0,0.0,0.0,0.0,0.0,0.0,0.0,0.0,0.0,0.0,0.0,0.0,0.0,0.0,0.0,0.0,0.0,0.0,0.0,0.0,0.0,0.0,0.0,0.0,0.0,0.0,0.0,0.0,0.0,0.0,0.0,0.0,0.0,0.0,0.0,0.0,0.0,0.0,0.0,0.0,0.0,0.0,0.0,0.0,0.0,0.0,1.2077,1.2387,1.2853,1.3097,1.3208,1.3208,1.3657,1.3834,1.3613,1.3413,0.0,0.0,0.0,0.0,0.0,0.0,0.0,0.0,0.0,0.0,0.0,0.0,0.0,0.0,0.0,0.0,0.0,0.0,0.0,0.0,0.0,0.0,0.0,0.0,0.0,0.0,0.0,0.0,0.0,0.0,0.0,0.0,0.0,0.0,0.0,0.0,0.0,0.0,0.0,0.0,0.0,0.0,0.0,0.0,0.0,0.0,0.0,0.0,0.0,0.0,0.0,0.0,0.0,0.0,0.0,0.0,0.0,0.0,0.0,0.0,0.0,0.0,0.0,0.0,0.0,0.0,0.0,0.0,0.0,0.0,0.0,0.0,0.0,0.0,0.0,0.0,0.0,0.0,0.0,0.0,0.0,0.0,0.0,0.0,0.0,0.0,0.0,0.0,0.0,0.0,0.0,0.0,0.0,0.0,0.0,0.0,0.0,0.0,0.0,0.0,0.0,0.0,1.2387,1.2676,1.303,1.3163,1.323,1.323,1.3568,1.3768,1.3768,1.3768,0.0,0.0,0.0,0.0,0.0,0.0,0.0,0.0,0.0,0.0,0.0,0.0,0.0,0.0,0.0,0.0,0.0,0.0,0.0,0.0,0.0,0.0,0.0,0.0,0.0,0.0,0.0,0.0,0.0,0.0,0.0,0.0,0.0,0.0,0.0,0.0,0.0,0.0,0.0,0.0,0.0,0.0,0.0,0.0,0.0,0.0,0.0,0.0,0.0,0.0,0.0,0.0,0.0,0.0,0.0,0.0,0.0,0.0,0.0,0.0,0.0,0.0,0.0,0.0,0.0,0.0,0.0,0.0,0.0,0.0,0.0,0.0,0.0,0.0,0.0,0.0,0.0,0.0,0.0,0.0,0.0,0.0,0.0,0.0,0.0,0.0,0.0,0.0,0.0,0.0,0.0,0.0,0.0,0.0,0.0,0.0,0.0,0.0,0.0,0.0,0.0,0.0,1.2964,1.3502,1.3546,1.3945,1.421,1.421,1.4232,1.4255,1.4255,1.4255,0.0,0.0,0.0,0.0,0.0,0.0,0.0,0.0,0.0,0.0,0.0,0.0,0.0,0.0,0.0,0.0,0.0,0.0,0.0,0.0,0.0,0.0,0.0,0.0,0.0,0.0,0.0,0.0,0.0,0.0,0.0,0.0,0.0,0.0,0.0,0.0,0.0,0.0,0.0,0.0,0.0,0.0,0.0,0.0,0.0,0.0,0.0,0.0,0.0,0.0,0.0,0.0,0.0,0.0,0.0,0.0,0.0,0.0,0.0,0.0,0.0,0.0,0.0,0.0,0.0,0.0,0.0,0.0,0.0,0.0,0.0,0.0,0.0,0.0,0.0,0.0,0.0,0.0,0.0,0.0,0.0,0.0,0.0,0.0,0.0,0.0,0.0,0.0,0.0,0.0,0.0,0.0,0.0,0.0,0.0,0.0,0.0,0.0,0.0,0.0,0.0,0.0,1.3261,1.3847,0.0,1.4381,1.4514,1.4441,1.4412,1.4394,1.4306,0.0,0.0,0.0,0.0,0.0,0.0,0.0,0.0,0.0,0.0,0.0,0.0,0.0,0.0,0.0,0.0,0.0,0.0,0.0,0.0,0.0,0.0,0.0,0.0,0.0,0.0,0.0,0.0,0.0,0.0,0.0,0.0,0.0,0.0,0.0,0.0,0.0,0.0,0.0,0.0,0.0,0.0,0.0,0.0,0.0,0.0,0.0,0.0,0.0,0.0,0.0,0.0,0.0,0.0,0.0,0.0,0.0,0.0,0.0,0.0,0.0,0.0,0.0,0.0,0.0,0.0,0.0,0.0,0.0,0.0,0.0,0.0,0.0,0.0,0.0,0.0,0.0,0.0,0.0,0.0,0.0,0.0,0.0,0.0,0.0,0.0,0.0,0.0,0.0,0.0,0.0,0.0,0.0,0.0,0.0,0.0,0.0,0.0,0.0,0.0,0.0,0.0,1.3205,1.3736,1.4223,0.0,1.4656,1.4654,1.4568,1.4561,1.4521,1.4426,0.0,0.0,0.0,0.0,0.0,0.0,0.0,0.0,0.0,0.0,0.0,0.0,0.0,0.0,0.0,0.0,0.0,0.0,0.0,0.0,0.0,0.0,0.0,0.0,0.0,0.0,0.0,0.0,0.0,0.0,0.0,0.0,0.0,0.0,0.0,0.0,0.0,0.0,0.0,0.0,0.0,0.0,0.0,0.0,0.0,0.0,0.0,0.0,0.0,0.0,0.0,0.0,0.0,0.0,0.0,0.0,0.0,0.0,0.0,0.0,0.0,0.0,0.0,0.0,0.0,0.0,0.0,0.0,0.0,0.0,0.0,0.0,0.0,0.0,0.0,0.0,0.0,0.0,0.0,0.0,0.0,0.0,0.0,0.0,0.0,0.0,0.0,0.0,0.0,0.0,0.0,0.0,0.0,0.0,0.0,0.0,0.0,0.0,0.0,0.0,0.0,0.0,1.4003,1.442,1.4694,1.4694,1.4694,1.4724,1.4694,1.4694,1.4694,0.0,0.0,0.0,0.0,0.0,0.0,0.0,0.0,0.0,0.0,0.0,0.0,0.0,0.0,0.0,0.0,0.0,0.0,0.0,0.0,0.0,0.0,0.0,0.0,0.0,0.0,0.0,0.0,0.0,0.0,0.0,0.0,0.0,0.0,0.0,0.0,0.0,0.0,0.0,0.0,0.0,0.0,0.0,0.0,0.0,0.0,0.0,0.0,0.0,0.0,0.0,0.0,0.0,0.0,0.0,0.0,0.0,0.0,0.0,0.0,0.0,0.0,0.0,0.0,0.0,0.0,0.0,0.0,0.0,0.0,0.0,0.0,0.0,0.0,0.0,0.0,0.0,0.0,0.0,0.0,0.0,0.0,0.0,0.0,0.0,0.0,0.0,0.0,0.0,0.0,0.0,0.0,0.0,0.0,0.0,0.0,0.0,0.0,0.0,0.0,0.0,0.0,0.0,1.4003,1.4536,1.4903,1.4903,1.4991,1.5011,1.4909,1.4903,1.4855,1.4701,0.0,0.0,0.0,0.0,0.0,0.0,0.0,0.0,0.0,0.0,0.0,0.0,0.0,0.0,0.0,0.0,0.0,0.0,0.0,0.0,0.0,0.0,0.0,0.0,0.0,0.0,0.0,0.0,0.0,0.0,0.0,0.0,0.0,0.0,0.0,0.0,0.0,0.0,0.0,0.0,0.0,0.0,0.0,0.0,0.0,0.0,0.0,0.0,0.0,0.0,0.0,0.0,0.0,0.0,0.0,0.0,0.0,0.0,0.0,0.0,0.0,0.0,0.0,0.0,0.0,0.0,0.0,0.0,0.0,0.0,0.0,0.0,0.0,0.0,0.0,0.0,0.0,0.0,0.0,0.0,0.0,0.0,0.0,0.0,0.0,0.0,0.0,0.0,0.0,0.0,0.0,0.0,0.0,0.0,0.0,0.0,0.0,0.0,0.0,0.0,0.0,0.0,1.4478,1.4835,1.5082,1.5082,1.5157,1.517,1.5089,1.5082,1.5041,1.49,0.0,0.0,0.0,0.0,0.0,0.0,0.0,0.0,0.0,0.0,0.0,0.0,0.0,0.0,0.0,0.0,0.0,0.0,0.0,0.0,0.0,0.0,0.0,0.0,0.0,0.0,0.0,0.0,0.0,0.0,0.0,0.0,0.0,0.0,0.0,0.0,0.0,0.0,0.0,0.0,0.0,0.0,0.0,0.0,0.0,0.0,0.0,0.0,0.0,0.0,0.0,0.0,0.0,0.0,0.0,0.0,0.0,0.0,0.0,0.0,0.0,0.0,0.0,0.0,0.0,0.0,0.0,0.0,0.0,0.0,0.0,0.0,0.0,0.0,0.0,0.0,0.0,0.0,0.0,0.0,0.0,0.0,0.0,0.0,0.0,0.0,0.0,0.0,0.0,0.0,0.0,0.0,0.0,0.0,0.0,0.0,0.0,0.0,0.0,0.0,0.0,0.0,1.5462,1.5626,1.5737,1.5737,1.558,1.5462,1.5462,1.5298,1.5204,1.5204,0.0,0.0,0.0,0.0,0.0,0.0,0.0,0.0,0.0,0.0,0.0,0.0,0.0,0.0,0.0,0.0,0.0,0.0,0.0,0.0,0.0,0.0,0.0,0.0,0.0,0.0,0.0,0.0,0.0,0.0,0.0,0.0,0.0,0.0,0.0,0.0,0.0,0.0,0.0,0.0,0.0,0.0,0.0,0.0,0.0,0.0,0.0,0.0,0.0,0.0,0.0,0.0,0.0,0.0,0.0,0.0,0.0,0.0,0.0,0.0,1.7667,0.0,0.0,0.0,0.0,0.0,0.0,0.0,0.0,0.0,0.0,0.0,0.0,0.0,0.0,0.0,0.0,0.0,0.0,0.0,0.0,0.0,0.0,0.0,0.0,0.0,0.0,0.0,0.0,0.0,0.0,0.0,0.0,0.0,0.0,0.0,0.0,0.0,0.0,0.0,0.0,0.0,1.7476,1.8873,1.9839,1.9839,1.8431,1.7476,1.7476,1.6088,1.5204,1.5204,0.0,0.0,0.0,0.0,0.0,0.0,0.0,0.0,0.0,0.0,0.0,0.0,0.0,0.0,0.0,0.0,0.0,0.0,0.0,0.0,0.0,0.0,0.0,0.0,0.0,0.0,0.0,0.0,0.0,0.0,0.0,0.0,0.0,0.0,0.0,0.0,0.0,0.0,0.0,0.0,0.0,0.0,0.0,0.0,0.0,0.0,0.0,0.0,0.0,0.0,0.0,0.0,0.0,0.0,0.0,0.0,0.0,0.0,0.0,0.0,0.0,1.9149,0.0,0.0,0.0,0.0,0.0,0.0,0.0,0.0,0.0,0.0,0.0,0.0,0.0,0.0,0.0,0.0,0.0,0.0,0.0,0.0,0.0,0.0,0.0,0.0,0.0,0.0,0.0,0.0,0.0,0.0,0.0,0.0,0.0,0.0,0.0,0.0,0.0,0.0,0.0,0.0,1.683,1.8431,1.9306,1.8361,1.7343,1.6713,1.6713,1.5784,1.5204,1.5204,1.5204,0.0,0.0,0.0,0.0,0.0,0.0,0.0,0.0,0.0,0.0,0.0,0.0,0.0,0.0,0.0,0.0,0.0,0.0,0.0,0.0,0.0,0.0,0.0,0.0,0.0,0.0,0.0,0.0,0.0,0.0,0.0,0.0,0.0,0.0,0.0,0.0,0.0,0.0,0.0,0.0,0.0,0.0,0.0,0.0,0.0,0.0,0.0,0.0,0.0,0.0,0.0,0.0,0.0,2.1649,2.1861,2.1949,2.1949,2.2938,2.45,2.262,2.1604,2.1154,1.9495,0.0,0.0,0.0,0.0,0.0,0.0,0.0,0.0,0.0,0.0,0.0,0.0,0.0,0.0,0.0,0.0,0.0,0.0,0.0,0.0,0.0,0.0,0.0,0.0,2.3322,2.4093,0.0,0.0,0.0,0.0,0.0,0.0,0.0,0.0,0.0,0.0,0.0,0.0,1.6923,1.8446,1.905,1.7429,1.6946,1.6619,1.6252,1.5901,1.5556,1.5228,1.5204,1.5204,0.0,0.0,0.0,0.0,0.0,0.0,0.0,0.0,0.0,0.0,0.0,0.0,0.0,0.0,0.0,0.0,0.0,0.0,0.0,0.0,0.0,0.0,0.0,0.0,0.0,0.0,0.0,0.0,0.0,0.0,0.0,0.0,1.9037,1.9187,0.0,0.0,0.0,0.0,0.0,0.0,0.0,0.0,0.0,0.0,0.0,0.0,0.0,2.0483,2.0866,2.2541,2.3481,2.3671,2.5355,2.6183,2.6196,2.6196,2.6344,2.6606,2.6308,0.0,2.3625,2.3374,0.0,0.0,0.0,0.0,0.0,0.0,0.0,0.0,0.0,0.0,0.0,0.0,0.0,0.0,0.0,0.0,0.0,0.0,0.0,0.0,0.0,0.0,2.6196,2.6196,2.6401,2.6549,0.0,2.3497,2.1004,2.0728,2.0677,0.0,0.0,0.0,0.0,0.0,0.0,0.0,2.2747,2.4613,2.573,2.548,2.3927,2.2218,2.0464,1.8733,1.6993,1.5321,1.5204,1.5204,1.5204,1.5204,0.0,0.0,0.0,0.0,0.0,0.0,0.0,0.0,0.0,0.0,0.0,0.0,0.0,0.0,0.0,0.0,0.0,0.0,0.0,0.0,0.0,0.0,0.0,0.0,0.0,0.0,0.0,0.0,0.0,1.809,1.8449,1.9617,1.9775,1.9077,0.0,0.0,0.0,0.0,0.0,0.0,0.0,0.0,0.0,2.2415,2.2538,2.3161,2.4323,2.5173,2.5638,2.573,2.6584,2.7004,2.7004,2.7004,2.7004,2.7004,2.7004,2.6515,2.5662,2.4545,2.3068,2.1356,0.0,0.0,0.0,0.0,1.932,1.9274,2.0131,2.1185,0.0,2.1079,0.0,0.0,0.0,0.0,0.0,0.0,0.0,0.0,0.0,0.0,2.5662,2.6755,2.7004,2.7004,2.7004,2.5639,2.4087,0.0,2.2793,2.2149,2.0117,0.0,0.0,0.0,0.0,0.0,2.2448,2.4133,2.4499,2.2241,2.124,1.9932,1.7942,1.8124,1.7437,1.5328,1.6379,1.6504,1.5258,1.5204,1.5087,0.0,0.0,0.0,0.0,0.0,0.0,0.0,0.0,0.0,0.0,0.0,0.0,0.0,0.0,0.0,0.0,0.0,0.0,0.0,0.0,0.0,0.0,0.0,0.0,0.0,0.0,0.0,0.0,1.9299,1.9629,2.1133,2.1305,2.0588,0.0,0.0,0.0,0.0,0.0,0.0,2.4108,2.3103,2.3116,2.4564,2.4753,2.5548,2.6981,2.7004,2.7004,2.7004,2.7004,2.704,2.7113,2.7113,2.7149,2.7209,2.7209,2.7209,2.7083,2.5503,2.4545,2.395,2.2448,2.155,2.1158,2.1675,2.1873,2.1942,2.2435,2.3583,2.4601,2.3102,0.0,2.3825,2.231,0.0,0.0,0.0,0.0,2.2333,2.4316,2.4853,2.5218,2.6664,2.7004,2.7004,2.7004,2.7004,2.6561,0.0,2.4853,2.4202,2.2195,0.0,0.0,0.0,0.0,2.3744,2.2734,2.3927,2.3698,2.0696,2.0372,1.9584,1.7639,1.8541,1.8308,1.616,1.7119,1.6999,1.5319,1.5242,1.5245,1.5204,0.0,0.0,0.0,0.0,0.0,0.0,0.0,0.0,0.0,0.0,0.0,0.0,0.0,0.0,0.0,0.0,0.0,0.0,0.0,0.0,0.0,0.0,0.0,0.0,0.0,0.0,0.0,0.0,0.0,2.5113,2.5113,0.0,0.0,0.0,0.0,2.3355,2.3537,2.4441,2.6348,2.6587,2.6731,2.6844,2.6856,2.6891,2.7004,2.7004,2.7004,2.7004,2.7004,2.7137,2.7378,2.7378,2.7511,2.7752,2.7752,2.7752,2.7704,2.7095,2.5776,2.4087,2.3996,2.277,2.1329,2.3229,2.395,2.4202,2.6061,2.6777,2.6845,2.6732,2.5525,2.4087,2.3996,2.2609,0.0,0.0,2.395,2.4407,2.6356,2.6845,2.6868,2.6981,2.7004,2.7004,2.7004,2.7004,2.6959,0.0,2.6845,2.6243,2.427,0.0,2.395,2.395,2.4041,2.4738,2.647,2.68,2.6777,2.6573,2.6538,2.5776,2.3825,2.2128,2.0311,1.8364,1.6661,1.5633,1.5404,1.5398,1.533,1.5211,1.4711,0.0,0.0,0.0,0.0,0.0,0.0,0.0,0.0,0.0,0.0,0.0,0.0,0.0,0.0,0.0,0.0,0.0,0.0,0.0,0.0,0.0,0.0,0.0,0.0,0.0,0.0,0.0,0.0,2.3654,2.4847,0.0,2.3163,2.4248,2.5157,2.5447,2.5551,2.5971,2.6814,2.6956,2.7004,2.7004,2.7173,2.7257,2.7257,2.7426,2.7511,2.7511,2.7511,2.7559,2.7643,2.7643,2.7704,2.7788,2.7788,2.7788,2.7799,2.7583,2.7106,2.6492,2.6492,2.6051,2.5505,2.6214,2.6492,2.6585,2.7268,2.7511,2.7487,2.7318,2.668,2.5958,2.5958,2.548,2.5035,2.5753,2.5958,2.6129,2.6823,2.7004,2.7004,2.7004,2.7004,2.7052,2.7221,2.7257,2.7306,2.7475,2.7233,2.6777,2.6106,2.5958,2.5958,2.5958,2.5958,2.622,2.6913,2.7004,2.6515,2.5263,2.5126,2.4316,2.2333,2.172,2.0555,1.8522,1.793,1.7023,1.5585,1.5536,1.5462,1.533,1.514,1.4921,0.0,0.0,0.0,0.0,0.0,0.0,0.0,0.0,0.0,0.0,0.0,0.0,0.0,0.0,0.0,0.0,0.0,0.0,0.0,0.0,0.0,0.0,0.0,0.0,0.0,0.0,2.3591,2.3724,2.4955,2.5392,2.4316,2.5492,2.6449,2.6704,2.6728,2.6801,2.6992,2.7089,2.7137,2.7137,2.739,2.7523,2.7523,2.7704,2.7788,2.7788,2.7788,2.786,2.7921,2.7921,2.7969,2.8066,2.8066,2.8066,2.8066,2.8066,2.8066,2.8041,2.786,2.7788,2.7788,2.7788,2.7788,2.7788,2.7788,2.7788,2.7775,2.7487,2.7282,2.7125,2.7028,2.7064,2.7137,2.7137,2.7197,2.727,2.727,2.727,2.727,2.727,2.727,2.7318,2.7487,2.7523,2.7583,2.7775,2.7511,2.727,2.727,2.727,2.727,2.727,2.727,2.7233,2.7149,2.7137,2.661,2.5229,2.5081,2.4533,2.3193,2.2068,2.117,2.0561,1.8823,1.7506,1.6787,1.6067,1.5642,1.5469,1.5414,1.5096,1.45,0.0,0.0,0.0,0.0,0.0,0.0,0.0,0.0,0.0,0.0,0.0,0.0,0.0,0.0,0.0,0.0,0.0,0.0,0.0,0.0,0.0,0.0,0.0,2.3031,2.4321,2.5499,2.5786,2.5822,2.6039,2.6548,2.6596,2.6716,2.7004,2.7016,2.7028,2.7028,2.727,2.7414,2.7414,2.7668,2.78,2.78,2.7836,2.7812,2.7812,2.7812,2.7968,2.821,2.821,2.8343,2.8596,2.8596,2.8596,2.8596,2.8596,2.8596,2.8548,2.8017,2.7812,2.7812,2.7812,2.7812,2.7812,2.7812,2.7836,2.7764,2.7511,2.7414,2.7366,2.7113,2.7209,2.7414,2.7414,2.7595,2.7788,2.7788,2.7788,2.7788,2.7788,2.7788,2.7788,2.7824,2.78,2.78,2.7812,2.7812,2.7836,2.7788,2.7788,2.7788,2.7788,2.7788,0.0,2.7438,2.7402,2.7306,2.7064,2.6971,2.6948,2.7016,2.3506,2.2241,2.446,1.9253,1.694,1.8818,1.7045,1.5889,1.56,1.5469,1.518,1.4696,0.0,0.0,0.0,0.0,0.0,0.0,0.0,0.0,0.0,0.0,0.0,0.0,0.0,0.0,0.0,0.0,0.0,0.0,0.0,0.0,0.0,0.0,2.5529,2.502,2.5366,2.5798,2.6051,2.6268,2.6427,2.6584,2.6787,2.7004,2.727,2.7294,2.7366,2.7559,2.7643,2.768,2.768,2.7956,2.8101,2.8101,2.8271,2.8379,2.8379,2.8379,2.8415,2.8488,2.8488,2.8524,2.8596,2.8596,2.8596,2.8596,2.8596,2.8596,2.8584,2.8439,2.8379,2.8379,2.8379,2.8379,2.8379,2.8379,2.8246,2.8077,2.8005,2.786,2.7668,2.7595,2.7619,2.768,2.768,2.7728,2.7788,2.7788,2.7788,2.7788,2.7788,2.7788,2.7836,2.8053,2.8101,2.8162,2.8331,2.8379,2.8246,2.7884,2.7788,2.7788,2.7788,2.7788,0.0,2.7692,2.7511,2.7438,2.7559,2.5972,2.5548,2.7155,2.3523,2.1468,2.2184,2.0904,1.9099,1.6842,1.7737,1.7501,1.5847,1.5649,1.5309,0.0,0.0,0.0,0.0,0.0,0.0,0.0,0.0,0.0,0.0,0.0,0.0,0.0,0.0,0.0,0.0,0.0,0.0,0.0,0.0,0.0,0.0,2.5798,2.6015,2.6136,2.6039,2.6075,2.6341,2.6522,2.668,2.6897,2.7077,2.7282,2.7547,2.7559,2.7631,2.7776,2.792,2.798,2.798,2.8234,2.8379,2.8379,2.8524,2.8596,2.8596,2.8596,2.8596,2.8596,2.8596,2.8596,2.8596,2.8596,2.8596,2.8596,2.8596,2.8596,0.0,0.0,0.0,0.0,0.0,2.8596,2.8596,2.8596,2.8488,2.8355,2.8246,2.8101,2.7956,2.7824,2.7896,2.798,2.798,2.8041,2.8126,2.8126,2.8126,2.8126,2.8126,2.8126,2.8174,2.8319,2.8379,2.8403,2.8572,2.8596,0.0,2.8186,2.8126,2.8126,2.8126,2.8126,2.809,2.7993,2.7836,2.774,2.7811,2.641,2.5995,2.7286,2.4296,0.0,0.0,0.0,1.9082,1.6113,1.8059,0.0,0.0,0.0,1.5584,1.531,0.0,0.0,0.0,1.3931,1.3699,0.0,0.0,0.0,0.0,0.0,0.0,0.0,0.0,0.0,0.0,0.0,0.0,0.0,0.0,0.0,0.0,2.6075,2.6329,2.656,2.6449,2.6425,2.6656,2.668,2.6896,2.739,2.7438,2.7547,2.7812,2.786,2.7872,2.7885,0.0,0.0,0.0,0.0,2.8608,2.8644,2.8644,2.8657,2.8693,2.8693,2.8693,2.8693,2.8693,2.8693,2.8693,2.8693,2.8693,2.8681,2.8657,2.862,2.8596,2.8596,2.8596,2.8596,2.8596,2.8596,2.8596,2.8596,0.0,0.0,2.8331,2.8246,2.821,2.7945,2.8065,2.8246,2.8246,2.8427,2.8596,2.8596,2.8596,2.8596,2.8596,2.8596,2.8596,2.8596,2.8596,2.8608,2.8632,2.8644,2.8657,2.8681,2.8669,2.8644,2.8644,2.8669,2.8596,2.8367,2.8318,2.821,2.7993,0.0,0.0,2.7512,2.5489,2.5008,2.6941,2.1745,1.8165,1.7168,1.8228,1.8088,1.6474,1.6095,1.5928,1.5928,1.575,1.5665,1.5634,1.4576,1.4087,0.0,0.0,0.0,0.0,0.0,0.0,0.0,0.0,0.0,0.0,0.0,0.0,0.0,0.0,0.0,2.6088,2.6353,2.6536,2.6584,2.6932,2.7185,2.7245,2.7245,2.7366,2.768,2.7716,2.7824,2.8113,2.8125,2.8222,2.8427,2.8488,2.8524,2.8524,2.8572,2.8705,2.891,2.891,2.9018,2.926,0.0,0.0,2.926,2.926,2.926,2.926,2.926,2.926,2.9236,2.9006,2.8789,2.8596,2.8596,2.8596,2.8596,2.8596,2.8596,2.8596,2.8596,2.8596,2.8584,2.8536,2.8524,2.8512,2.8451,2.8476,0.0,2.8524,2.856,2.8596,2.8596,2.8596,2.8596,2.8596,2.8596,2.8596,2.8596,2.8596,2.8657,2.8874,2.891,2.8982,2.9212,2.9079,2.891,2.891,2.9115,2.9236,2.9175,2.8982,2.8922,2.9079,2.7246,2.666,2.8224,2.6133,2.4838,2.5057,2.0988,2.0019,2.3218,1.9069,1.731,1.8582,1.6934,1.606,1.606,1.6008,1.5995,1.5988,1.5498,1.5281,0.0,0.0,0.0,0.0,0.0,0.0,0.0,0.0,0.0,0.0,0.0,2.5653,2.5786,0.0,2.6234,2.6389,2.663,2.6859,2.6992,2.7233,2.7402,2.7402,2.7511,2.7715,2.798,2.8005,2.8125,2.8367,2.8391,2.8451,2.8596,2.8729,2.8789,2.8789,2.8922,2.9055,2.9212,2.9212,2.9272,2.9405,2.9405,2.9405,2.9405,2.9405,2.9405,2.9405,2.9405,2.9405,2.9393,2.926,2.9127,2.8994,2.8994,2.8825,2.8596,2.8596,2.8596,2.8596,2.8596,2.8596,2.8596,2.8596,2.8596,2.8596,2.8596,2.8596,2.8596,2.8596,2.8596,2.8596,2.8596,2.8693,2.8789,2.8789,2.8898,2.8994,2.8994,2.8994,2.903,2.9163,2.9212,2.9248,2.9381,2.9405,2.9357,2.9224,2.932,2.9405,2.9405,2.9296,2.926,2.9393,2.8177,2.7736,2.8717,2.7426,2.6039,2.4869,2.3787,2.2821,2.198,2.1065,2.0171,1.9216,1.8187,1.765,1.765,1.6623,1.6108,1.6101,1.5927,1.5818,0.0,0.0,0.0,0.0,0.0,0.0,0.0,0.0,2.5475,2.5475,2.5702,2.5895,2.5955,2.6295,2.6608,2.6668,2.6885,2.7161,2.7366,2.7487,2.7547,2.7547,2.7763,2.7993,2.8258,2.8282,2.8379,2.8584,2.8644,2.8669,2.8669,2.8922,2.9091,2.9091,2.9296,2.9429,2.9477,2.9477,2.9513,2.9562,2.9562,2.9562,2.9562,2.9562,2.9562,2.9562,2.9562,2.9538,2.9477,2.9477,2.9453,2.9405,2.9405,2.9151,2.8741,2.8693,2.8669,2.8669,2.862,2.8596,2.8596,2.8596,2.8596,2.8596,2.8596,2.8632,2.8669,2.8669,2.8717,2.8753,2.8753,2.891,2.9091,2.9091,2.9248,2.9405,2.9405,2.9405,2.9417,2.9465,2.9477,2.9501,2.955,2.9731,2.9791,2.9526,2.9526,2.9562,2.9562,2.9562,2.9562,2.9562,2.9344,2.9175,2.9103,2.8644,2.7593,2.5799,2.6732,2.5303,2.0744,2.3101,2.32,2.0402,1.9945,1.974,1.9798,1.8112,1.731,1.731,1.731,1.6817,2.4885,2.5126,2.5306,2.5343,2.5367,2.5391,0.0,0.0,2.5762,2.5762,2.5967,2.6232,2.6463,2.6548,2.6668,2.6932,2.7185,2.7366,2.739,2.7824,2.8113,2.8113,2.8137,2.827,2.8524,2.8548,2.8572,2.8596,2.8813,2.897,2.897,2.9224,2.9369,2.9369,2.9393,2.9513,2.9755,2.9755,2.9876,3.0104,3.0104,3.0104,3.0104,3.0104,3.0104,3.0104,3.0104,2.9984,2.9755,2.9755,2.961,2.9405,2.9405,2.9369,2.9284,2.903,2.897,2.891,2.8681,2.8596,2.8596,2.8596,2.8596,2.8596,2.8596,2.8765,2.897,2.897,2.9139,2.932,2.932,2.9344,2.9369,2.9369,2.9381,2.9405,2.9405,2.9405,2.9477,2.9707,2.9755,2.9827,3.0056,3.0153,3.0043,2.9791,2.996,3.0104,3.0104,3.0104,3.0104,3.0104,3.0068,2.9863,2.9405,2.9091,2.862,2.789,2.6527,2.6055,2.6747,2.3929,2.301,2.4409,2.2572,2.1724,2.1949,2.1729,2.1606,2.1606,2.1606,1.9618,2.5162,2.5306,2.5391,2.5391,2.5391,2.5439,2.5605,2.5726,2.5846,2.6003,2.6256,2.6473,2.6572,2.6872,2.7113,0.0,2.745,2.7703,2.7836,2.8065,2.827,2.8403,2.8427,2.8476,2.8584,2.8596,2.8657,2.8813,2.8934,2.9079,2.9236,2.9489,2.9634,2.9634,2.9791,2.9936,3.0033,3.0045,3.0105,3.0188,3.0188,3.0188,3.0188,3.0188,3.0188,3.0188,3.0188,3.0153,3.0045,3.0045,2.9972,2.9876,2.9876,2.9876,2.9802,2.9393,2.9236,2.9224,2.9091,2.9079,2.9079,2.9079,2.9079,2.9079,2.9079,2.9127,2.9236,2.9236,2.932,2.9405,2.9405,2.9513,2.9634,2.9634,2.9755,2.9876,2.9876,2.9876,2.9912,3.002,3.0165,3.031,3.0393,3.0576,3.0636,3.0515,3.0334,3.0188,3.0188,3.0188,3.0128,2.9984,3.0117,3.0057,2.967,2.9538,2.9248,2.8705,2.7802,2.698,2.6259,2.5839,2.5454,2.512,2.4224,2.3173,2.1957,2.0728,2.0234,2.0338,1.9126,1.8987,2.5343,2.5391,2.5391,2.5391,2.5451,2.5547,2.5762,2.5897,2.6088,2.6268,2.6512,2.6728,2.6823,2.7137,2.7426,2.7487,2.7751,2.798,2.8174,2.827,2.8367,2.8572,2.8596,2.8632,2.8705,2.8705,2.8789,2.9006,2.9151,2.9308,2.9501,2.9767,2.9912,2.9912,3.0105,3.025,3.0297,3.0297,3.0358,3.0431,3.0431,3.0431,3.0431,3.0431,3.0431,3.0431,3.0333,3.0297,3.0297,3.0224,3.0188,3.0188,3.0188,3.0188,3.014,2.9754,2.9574,2.9501,2.9429,2.9405,2.9405,2.9405,2.9405,2.9405,2.9405,2.9453,2.9513,2.9513,2.9562,2.9634,2.9634,2.9767,2.9912,2.9912,3.0117,3.0297,3.0297,3.0383,3.0431,3.0431,3.0588,3.0708,3.0708,3.0865,3.0998,3.0998,3.0672,3.0431,3.0431,3.0431,3.0358,3.0153,3.025,3.0188,2.9936,2.9912,2.9682,2.9127,2.8922,2.7994,2.6125,2.7451,2.7499,2.5978,2.5966,2.5185,2.3592,2.2087,2.1466,2.1605,2.0109,2.0712,2.5391,2.5391,2.5391,2.5391,2.5605,2.5798,2.5798,2.6198,2.6572,2.6584,2.6789,2.7077,2.733,2.739,2.7487,2.7763,2.8017,2.8198,2.8198,2.8415,2.8584,2.8596,2.8596,2.8705,0.0,2.9006,2.8982,2.8994,2.9489,2.9779,2.9779,3.0045,3.0176,3.0176,3.0188,3.0309,3.06,3.06,3.0721,3.0974,3.0974,3.0974,3.0974,3.0974,3.0974,3.0962,3.0708,3.06,3.0576,3.0322,3.0188,3.0188,3.0188,3.0188,3.0188,3.0176,3.002,2.9743,2.9489,2.9405,2.9405,2.9405,2.9405,2.9405,2.9405,2.9586,2.9779,2.9779,2.9984,3.0189,3.0189,3.0176,3.0176,3.0176,3.0381,3.06,3.06,3.0793,3.0974,3.0974,3.0986,3.0986,3.0986,3.0986,3.0998,3.0998,3.0986,3.0974,3.0974,3.0974,3.0974,3.0962,3.0745,3.0491,3.02,3.0176,2.9972,2.9429,2.9381,2.9102,2.8512,2.8295,2.8174,2.8103,2.8103,2.8188,2.838,2.8332,2.8308,2.832,2.8248,2.7075,2.5391,2.5391,2.5439,2.5629,2.5716,2.5895,2.6246,2.6463,2.6644,2.6825,2.7089,2.7294,2.7378,2.768,2.7968,2.8053,2.8283,2.8475,2.8475,2.8536,2.8669,2.8837,2.8862,0.0,0.0,0.0,0.0,2.9501,2.9695,2.9876,3.0069,3.014,3.0273,3.0467,3.0479,3.06,3.0865,3.0865,3.0914,3.0998,3.0998,3.0998,3.0998,3.0998,3.0998,3.0986,3.0902,3.0865,3.0865,3.0769,3.0733,3.0733,3.0733,3.0733,3.0733,3.0733,3.0672,3.0527,3.0093,2.9923,2.9923,2.9923,2.9923,2.9923,2.9923,2.9983,3.0069,3.0069,3.0274,3.0479,3.0479,3.06,3.0733,3.0733,3.0805,3.0865,3.0865,3.0938,3.0998,3.0998,3.1143,3.1264,3.1264,3.1409,3.1541,3.1541,3.1228,3.0998,3.0998,3.0998,3.0938,3.0757,3.0817,3.0684,3.025,3.0345,3.0165,2.9453,2.9405,2.9175,2.862,2.8512,2.8367,2.821,2.8198,2.7523,2.615,2.615,2.6229,2.6386,2.496,2.5412,2.5533,2.5535,2.5617,2.5883,2.6015,2.6184,2.6512,2.6668,2.6813,2.7089,2.7282,2.7462,2.7643,2.798,2.8234,2.8331,2.8476,2.8596,2.8596,2.8681,2.8801,2.897,2.9067,2.926,0.0,0.0,0.0,2.9767,2.9888,3.0069,3.0334,3.0333,3.0479,3.0733,3.0745,3.0877,3.1131,3.1143,3.1191,3.1288,3.1288,3.1288,3.1288,3.1288,3.1288,3.1288,3.1179,3.1143,3.1131,3.1034,3.0998,3.0998,3.0998,3.0998,3.0998,3.0998,3.0998,3.095,3.0612,3.0491,3.0491,3.0491,3.0491,3.0491,3.0491,3.0491,3.0491,3.0491,3.0612,3.0745,3.0745,3.0865,3.0998,3.0998,3.1071,3.1143,3.1143,3.1215,3.1288,3.1288,3.1421,3.1541,3.1541,3.1686,3.1807,3.1807,3.1505,3.1288,3.1288,3.1288,3.1228,3.1059,3.1095,3.0926,3.0407,3.0503,3.0298,2.9586,2.955,2.9393,2.903,2.8837,2.8657,2.85,2.8403,2.7641,2.6209,2.6209,2.6312,2.6446,2.5067,2.588,2.5738,2.581,2.5895,2.6148,2.6425,2.6596,2.6632,2.6847,2.7101,2.7366,2.7426,2.7595,0.0,0.0,2.8283,2.856,2.8596,2.8596,2.862,2.8837,2.8994,0.0,0.0,0.0,0.0,0.0,0.0,2.9839,0.0,3.0321,3.06,3.0624,3.0745,3.101,3.1022,3.1143,3.1409,3.1409,3.1541,3.1807,3.1807,3.1807,3.1807,3.1807,3.1807,3.1795,3.1529,3.1409,3.1397,3.1143,3.1034,3.1034,3.1034,3.1034,3.1034,3.1034,3.1034,3.1034,3.1034,3.1022,3.0998,3.0998,3.0998,3.0998,3.0998,3.0998,3.0998,3.0998,3.101,3.1022,3.1022,3.1022,3.1034,3.1034,3.1228,3.1409,3.1409,3.1626,3.1807,3.1807,3.1807,3.1807,3.1807,3.1807,3.1807,3.1807,3.1807,3.1807,3.1807,3.1807,3.1807,3.1807,3.1566,3.1203,3.0696,3.0636,3.0395,2.9851,2.9803,2.9791,2.9779,2.9296,2.9006,2.9006,2.8765,2.8632,2.862,2.862,2.8608,2.8596,2.8596,2.8451,2.5786,2.5955,2.616,2.6415,2.6548,2.6692,2.7113,2.7257,2.7366,2.7631,2.7872,2.8041,0.0,0.0,0.0,2.8584,2.8596,0.0,2.8862,2.897,0.0,2.955,0.0,2.9803,3.0056,3.0105,0.0,0.0,3.0467,3.0539,3.06,3.0793,3.1022,3.1276,3.1288,3.1421,3.1698,3.1698,3.1735,3.1807,3.1807,3.1807,3.1807,3.1807,3.1807,3.1807,3.1735,3.1698,3.1698,3.1626,3.1602,3.1602,3.1602,3.1602,3.1602,3.1602,3.1602,3.1602,3.1602,3.1336,3.0998,3.0998,3.0998,3.0998,3.0998,3.0998,3.0998,3.0998,3.1143,3.1288,3.1288,3.1445,3.1602,3.1602,3.165,3.1698,3.1698,3.1759,3.1807,3.1807,3.1807,3.1807,3.1807,3.1807,3.1807,3.1807,3.1807,3.1807,3.1807,3.1807,3.1807,3.1807,3.1747,3.1566,3.1215,3.101,3.0672,3.0141,2.9912,2.9707,2.9513,2.9381,2.9308,2.9308,2.9236,2.9103,2.8886,2.8886,2.8789,2.8596,2.8596,2.856,2.61,2.6353,2.6618,2.6896,2.7052,2.7209,2.7499,2.7571,2.7643,2.7932,2.8101,2.8246,2.8343,2.8488,2.8596,0.0,0.0,0.0,2.8958,2.9115,2.9332,0.0,2.99,0.0,3.0358,3.0395,3.0491,0.0,3.0672,3.0708,3.0938,3.1083,3.1288,3.1566,3.1578,3.165,3.1807,3.1807,3.1807,3.1807,3.1807,3.1807,3.1807,3.1807,3.1807,3.1807,0.0,3.1807,3.1807,3.1807,3.1807,3.1807,3.1807,3.1807,3.1807,3.1807,3.1807,3.1807,3.1807,3.1602,3.1348,3.1348,3.1348,3.1348,3.1348,3.1348,3.1348,3.1348,3.1457,3.1578,3.1578,3.1686,3.1807,3.1807,3.1807,3.1807,3.1807,3.1807,3.1807,3.1807,3.1904,3.1976,3.1976,3.1976,3.1976,3.1976,3.1879,3.1807,3.1807,3.1807,3.1807,3.1807,3.1807,3.1698,3.1409,3.1143,3.0817,3.0393,3.0129,2.9912,2.9767,2.9646,2.9574,2.9574,2.9465,2.9332,2.9188,2.9188,2.9103,2.8946,2.8946,2.8946,2.6512,2.6859,2.7125,2.739,2.7619,2.7824,2.7836,2.7836,2.7944,2.8198,2.8258,2.8331,2.8548,2.8596,2.8596,2.8596,0.0,2.8741,2.9031,2.9296,2.955,2.9815,3.0093,3.0333,3.0588,3.0636,3.0769,3.1034,3.0841,3.0914,3.1387,3.1421,3.1553,3.1807,3.1807,3.1807,3.1807,3.1807,3.1807,3.1807,3.1807,3.1807,3.1807,3.1807,3.1807,3.1807,3.1807,0.0,3.1807,3.1807,3.1807,3.1807,3.1807,3.1807,3.1807,3.1807,3.1807,3.1807,3.1807,3.1807,3.1807,3.1807,3.1807,3.1807,3.1807,3.1807,3.1807,3.1807,3.1807,3.1807,3.1807,3.1807,3.1807,3.1807,3.1831,3.1855,3.1855,3.1891,3.1916,3.1916,3.2097,3.2254,3.2254,3.2217,3.2205,3.2205,3.1976,3.1807,3.1807,3.1807,3.1807,3.1807,3.1807,3.171,3.1469,3.1167,3.0902,3.0672,3.0383,3.0188,3.0188,2.9984,2.9851,2.9851,2.9634,2.9489,2.9453,2.9453,2.9441,2.9405,2.9405,2.9405,2.6859,2.7137,2.739,2.7655,2.7775,2.7872,2.8089,2.8137,0.0,0.0,2.8524,2.8536,2.8584,2.8596,2.8596,2.8596,2.8777,2.9006,2.9296,2.9562,2.9827,0.0,3.0371,3.0564,3.06,3.0805,0.0,0.0,3.1276,3.1288,3.1411,3.1614,3.1759,3.1807,3.1807,3.1807,3.1807,3.1807,3.1807,3.1807,3.1807,3.1807,3.1807,3.1807,3.1807,3.1807,3.1807,0.0,3.1807,3.1807,3.1807,3.1807,3.1807,3.1807,3.1807,3.1807,3.1807,3.1807,3.1807,3.1807,3.1807,3.1807,3.1807,3.1807,3.1807,3.1807,3.1807,3.1807,3.1807,3.1807,3.1807,3.1807,3.1807,3.1807,3.1976,3.2133,3.2133,3.2302,3.2459,3.2459,3.2495,3.2519,3.2519,3.2338,3.2205,3.2205,3.1976,3.1807,3.1807,3.1807,3.1807,3.1807,3.1807,3.1795,3.1735,3.1288,3.0974,3.0938,3.0479,3.0188,3.0188,3.0165,3.0141,3.0141,3.0068,2.996,2.9731,2.9731,2.9622,2.9405,2.9405,2.9405,2.7137,2.7499,2.786,2.798,2.8102,2.8246,2.8367,0.0,0.0,2.8572,2.8596,2.8596,2.8596,2.8596,2.8596,2.8596,2.8825,2.9079,2.9369,2.9634,2.9948,3.0371,3.0527,3.0708,3.0986,3.1131,3.1312,3.159,3.1614,3.1614,3.1614,3.1735,3.1807,3.1807,3.1807,3.1807,3.1807,3.194,3.2012,3.2012,3.2145,3.2217,3.2217,3.2217,3.2217,3.2217,3.2217,0.0,3.2217,3.2217,3.2217,3.2217,3.2217,3.2217,3.2217,3.2217,3.2217,3.2217,3.2217,3.2217,3.2217,3.2217,3.2036,3.1807,3.1807,3.1807,3.1807,3.1807,3.1904,3.2012,3.2012,3.2109,3.2217,3.2217,3.2314,3.2398,3.2398,3.2522,3.2592,3.2592,3.2716,3.2812,3.2812,3.2592,3.2398,3.2398,3.206,3.1807,3.1807,3.1807,3.1807,3.1807,3.1807,3.1807,3.1807,3.1312,3.0998,3.0998,3.0503,3.0188,3.0188,3.0188,3.0188,3.0188,3.0188,3.0153,3.002,3.002,2.9948,2.9827,2.9827,2.9827,2.7414,2.7848,2.821,2.8282,2.8439,2.8596,2.8596,2.8596,2.8596,2.8596,2.8596,2.8596,2.8596,2.8596,2.8596,2.8596,2.8862,2.9175,2.9381,2.9682,3.0069,3.0552,3.066,0.0,3.1348,3.1445,0.0,3.1795,3.1807,3.1807,3.1807,3.1855,3.1891,3.1891,3.194,3.1976,3.1976,3.2181,3.229,3.229,3.2495,3.2592,3.2592,3.2592,3.2592,3.2592,3.2592,0.0,0.0,3.2592,3.2592,3.2592,3.2592,3.2592,3.2592,3.2592,3.2592,3.2592,3.2592,3.2592,3.2592,3.2592,3.2314,3.1976,3.1976,3.1976,3.1976,3.1976,3.2121,3.229,3.229,3.2435,3.2619,3.2679,3.2688,3.2688,3.2748,3.2776,3.2776,3.2776,3.2945,3.3074,3.3074,3.2812,3.2592,3.2592,3.2145,3.1807,3.1807,3.1807,3.1807,3.1807,3.1807,3.1807,3.1807,3.136,3.1059,3.0998,3.0564,3.0249,3.0188,3.0188,3.0188,3.0188,3.0188,3.0188,3.0188,3.0188,3.0188,3.0188,3.0188,3.0188,2.768,2.798,2.827,2.85,2.8584,2.8596,2.8596,0.0,2.8596,2.8596,2.8596,2.8596,2.8596,2.8596,2.8596,2.8596,0.0,2.9381,2.9405,2.9851,3.0261,3.0576,3.0817,0.0,3.136,3.1626,3.1783,3.1807,3.1807,3.1807,3.1807,3.2036,3.2169,3.2169,3.2398,3.2519,3.2519,3.2555,3.2555,3.2555,3.2592,3.2592,3.2592,3.2592,3.2592,3.2592,3.2592,0.0,0.0,3.2592,3.2592,3.2592,3.2592,3.2592,3.2592,3.2592,3.2592,3.2592,3.2592,3.2592,3.2592,3.2592,3.2555,3.2519,3.2519,3.2519,3.2519,3.2519,3.2559,3.2555,3.2555,3.2583,3.2652,3.2909,3.2954,3.3042,3.3271,3.3332,3.3332,3.3332,3.3332,3.3368,3.3368,3.2945,3.2592,3.2592,3.2145,3.1807,3.1807,3.1807,3.1807,3.1807,3.1807,3.1807,3.1807,3.1529,3.1252,3.101,3.0733,3.0442,3.02,3.0188,3.0188,3.0188,3.0188,3.0188,3.0188,3.0188,3.0188,3.0188,3.0188,3.0188,2.7739,2.8005,2.827,2.8524,2.8596,2.8596,2.8596,0.0,2.8596,2.8596,2.8596,2.8596,2.8596,2.8596,2.8596,2.8596,0.0,0.0,2.9405,2.9876,3.0371,3.0793,3.0938,3.1167,0.0,0.0,3.1879,3.2036,3.2048,3.2109,3.2266,3.2229,3.2266,3.2435,3.2559,3.2592,3.2592,3.2748,3.2848,3.2848,3.3006,3.3078,3.3078,3.3078,3.3078,3.3078,3.3078,0.0,0.0,3.3078,3.3078,3.3078,3.3078,3.3078,3.3078,3.3078,3.3078,3.3078,3.3078,3.3078,3.3078,3.3078,3.3078,3.3014,3.2688,3.2592,3.2592,3.2592,3.2716,3.2848,3.2848,3.2954,3.3102,3.3211,3.3235,3.3271,3.3368,3.3404,3.3404,3.3404,3.3404,3.3332,3.3199,3.2848,3.2559,3.2374,3.2048,3.1807,3.1807,3.1807,3.1807,3.1807,3.1807,3.1807,3.1807,3.1553,3.1348,3.124,3.0986,3.0793,3.0696,3.0539,3.0455,3.0455,3.0273,3.0188,3.0188,3.0188,3.0188,3.0188,3.0188,3.0188,2.7619,2.7944,2.8246,2.8427,2.8536,2.8596,2.8596,2.8596,2.8596,2.8596,2.8596,2.8596,2.8596,2.8596,2.8596,0.0,0.0,2.9405,2.9405,2.9876,3.0407,3.0938,3.0998,3.1215,3.1759,3.1807,3.1916,3.2181,3.2205,3.235,3.2688,3.2559,3.2519,3.2716,3.2812,3.2848,3.2848,3.3014,3.3111,3.3111,3.3308,3.3404,3.3404,3.3404,3.3404,3.3404,3.3404,0.0,0.0,3.3404,3.3404,3.3404,3.3404,3.3404,3.3404,3.3404,3.3404,3.3404,3.3404,3.3404,3.3404,3.3404,3.3404,3.3332,3.2942,3.2848,3.2848,3.2848,3.2981,3.3111,3.3111,3.3271,3.3404,3.3404,3.3404,3.3404,3.3404,3.3404,3.3404,3.3404,3.3404,3.3308,3.3042,3.2776,3.2522,3.2242,3.1976,3.1807,3.1807,3.1807,3.1807,3.1807,3.1807,3.1807,3.1807,3.1626,3.1481,3.1423,3.1215,3.1083,3.0998,3.0817,3.0721,3.0721,3.0442,3.0334,3.0334,3.0224,3.0188,3.0188,3.0188,3.0188,2.7402,2.7776,2.8198,2.821,2.8391,2.8596,2.8596,2.8596,2.8596,2.8596,2.8596,2.8596,2.8596,2.8596,2.8596,2.8596,2.9042,2.9405,2.9405,2.9876,3.0407,3.0938,3.0998,3.1215,3.1759,3.1807,3.1916,3.2181,3.2205,0.0,3.2981,3.2978,3.2978,3.3006,3.3243,3.3404,3.3404,3.3404,3.3404,3.3404,3.3404,3.3404,3.3404,3.3404,3.3404,3.3404,0.0,0.0,0.0,3.3404,3.3404,3.3404,3.3404,3.3404,3.3404,3.3404,3.3404,3.3404,3.3404,3.3404,3.3404,3.3404,3.3404,3.3404,3.3404,3.3404,3.3404,3.3404,3.3404,3.3404,3.3404,3.3404,3.3404,3.3404,3.3404,3.3404,3.3404,3.3404,3.3404,3.3404,3.3404,3.3308,3.3042,3.2776,3.2522,3.2242,3.1976,3.1807,3.1807,3.1807,3.1807,3.1807,3.1807,3.1807,3.1807,3.1807,3.1686,3.1435,3.1411,3.1264,3.101,3.0998,3.0998,3.0998,3.0733,3.06,3.06,3.0321,3.0188,3.0188,3.0188,3.0188,2.7571,2.7811,2.8005,2.8367,2.8536,2.8596,2.8596,2.8596,2.8596,2.8596,2.8596,2.8596,2.8596,2.8596,2.8596,2.8596,2.9042,2.9405,2.9405,2.9876,3.0407,3.0938,3.1324,3.1626,0.0,0.0,3.2181,3.2447,3.2655,3.2909,3.3243,3.3271,3.3271,3.3271,3.3368,3.3404,3.3404,3.3404,3.3404,3.3404,3.3404,3.3404,3.3404,3.3404,3.3404,0.0,0.0,0.0,0.0,3.3404,3.3404,3.3404,3.3404,3.3404,3.3404,3.3404,3.3404,3.3404,3.3404,3.3404,3.3404,3.3404,3.3404,3.3404,3.3404,3.3404,3.3404,3.3404,3.3404,3.3404,3.3404,3.3404,3.3404,3.3404,3.3404,3.3404,3.3404,3.3404,3.3404,3.3404,3.3404,3.3271,3.2812,3.2652,3.2447,3.2,3.1855,3.1807,3.1807,3.1807,3.1807,3.1807,3.1807,3.1807,3.1807,3.1807,3.1771,3.1686,3.1674,3.1638,3.1553,3.1372,3.1264,3.1264,3.101,3.0877,3.0877,3.0612,3.0395,3.0188,3.0188,3.0188,2.7704,2.786,2.8041,2.8379,2.8524,2.8596,2.8596,2.8596,2.8596,2.8596,2.8596,2.8596,2.8596,2.8596,2.8632,2.8729,2.9127,2.9441,2.9538,3.002,3.0564,3.1083,3.1541,0.0,0.0,3.2048,3.2302,3.2583,3.2848,3.3111,3.3404,3.3404,3.3404,3.3404,3.3404,3.3404,3.3404,3.3404,3.3404,3.3404,3.3404,3.3404,3.3404,3.3404,3.3404,0.0,0.0,0.0,0.0,3.3404,3.3404,3.3404,3.3404,3.3556,3.374,3.374,3.3896,3.4076,3.4076,3.4076,3.4048,3.3796,3.3588,3.3404,3.3404,3.3404,3.3404,3.3404,3.3404,3.3404,3.3404,3.3404,3.3404,3.3404,3.3404,3.3404,3.3404,3.3404,3.3404,3.3404,3.3332,3.3102,3.2679,3.2522,3.2302,3.1879,3.1807,3.1807,3.1807,3.1807,3.1807,3.1807,3.1807,3.1807,3.1807,3.1807,3.1807,3.1807,3.1807,3.1807,3.1807,3.1638,3.1541,3.1541,3.1288,3.1143,3.1143,3.0781,3.0527,3.0358,3.0262,3.0188,0.0,2.8005,2.821,2.8234,2.8427,2.8596,2.8596,2.8596,0.0,2.8596,2.8596,2.8596,2.8596,2.8596,2.8681,2.897,2.9236,2.9501,2.9755,3.0274,3.0817,3.1324,3.1638,0.0,3.1831,3.2073,3.2365,3.2674,3.294,3.3234,3.352,3.3528,3.3528,3.3528,3.3528,3.3488,3.3404,3.3404,3.3432,3.346,3.3432,3.3432,3.3528,3.3488,3.3488,0.0,0.0,0.0,0.0,3.3528,3.3528,3.3528,3.3528,3.3868,3.4355,3.4355,3.473,3.5192,3.5192,3.5192,3.5123,3.4538,3.3952,3.346,3.346,3.3432,3.3404,3.346,3.3432,3.3404,3.346,3.3432,3.3404,3.3404,3.3404,3.3404,3.3404,3.3404,3.3404,3.3404,3.3171,3.2909,3.2655,3.2374,3.2109,3.1843,3.1807,3.1807,3.1807,3.1807,3.1807,3.1807,3.1807,3.1807,3.1807,3.1807,3.1807,3.1807,3.1807,3.1807,3.1807,3.1807,3.1807,3.1807,3.1553,3.1409,3.1384,3.0902,3.0648,3.06,3.0333,3.0238,2.8355,0.0,2.8258,2.8451,2.8548,2.8596,0.0,2.8596,0.0,0.0,0.0,2.8596,2.8596,2.8596,2.8681,2.897,2.9236,2.9501,2.9755,3.0431,0.0,3.1348,3.1638,3.1891,3.2085,3.235,3.2807,3.3546,3.3845,3.4225,3.4749,3.4789,3.4789,3.4789,3.4789,3.4327,3.3404,3.3404,3.3616,3.4076,3.3616,3.3896,3.4761,3.4299,3.4327,0.0,0.0,0.0,3.4789,3.4789,3.4789,3.4789,3.4789,3.4845,3.4997,3.4997,3.5095,3.5192,3.5192,3.5192,3.5192,3.5037,3.4566,3.4076,3.4076,3.3768,3.3488,3.3952,3.3768,3.3528,3.398,3.374,3.3404,3.3404,3.3404,3.3404,3.3404,3.3404,3.3404,3.3404,3.3171,3.2909,3.2655,3.2374,3.2109,3.1843,3.1807,3.1807,3.1807,3.1807,3.1807,3.1807,3.1807,3.1807,3.1807,3.1807,3.1807,3.1807,3.1807,3.1807,3.1807,3.1807,3.1807,3.1807,3.1747,3.1602,3.1384,3.1264,3.0998,3.0612,3.0539,3.0407,2.856,2.8488,2.8403,2.856,2.8596,2.8596,2.8596,2.8596,0.0,0.0,0.0,2.8596,2.8596,2.8693,2.8862,0.0,2.9417,2.9767,3.0274,3.0829,3.1276,3.1553,3.171,3.1916,0.0,3.268,3.3261,3.3853,3.4401,3.4845,3.5192,3.5192,3.5192,3.5192,3.5192,3.4885,3.4231,3.4231,3.4383,3.4703,3.4383,3.4566,3.5192,3.4845,3.4885,0.0,0.0,0.0,3.5192,3.5192,3.5192,3.5192,3.5192,3.5374,3.5622,3.5622,3.5776,3.5985,3.5985,3.5831,3.5622,3.5622,3.5192,3.4703,3.4703,3.4482,3.4231,3.4299,3.4259,3.4231,3.4299,3.4048,3.374,3.346,3.3404,3.3404,3.3404,3.3404,3.3404,3.3404,3.3074,3.2776,3.2628,3.2278,3.1976,3.1831,3.1807,3.1807,3.1807,3.1807,3.1807,3.1807,3.1807,3.1807,3.1807,3.1807,3.1807,3.1807,3.1807,3.1807,3.1807,3.1807,3.1807,3.1807,3.1807,3.1735,3.1578,3.1457,3.1179,3.0781,3.066,3.0467,2.8596,2.8596,2.8596,2.8596,2.8596,2.8596,2.8596,0.0,0.0,0.0,0.0,0.0,2.8596,2.8813,0.0,0.0,0.0,0.0,3.0902,3.1228,3.1493,3.1771,3.186,0.0,3.2365,3.3139,3.3796,3.4203,3.4926,3.5374,3.5457,3.5457,3.5457,3.5457,3.5457,3.5457,3.5457,3.5275,3.5247,3.5344,3.5247,3.5275,3.5457,3.5374,3.5374,3.5457,0.0,0.0,3.5457,3.5457,3.5457,3.5457,3.5457,3.5776,3.6206,3.6206,3.6512,3.6913,3.6913,3.6608,3.6206,3.6206,3.5831,3.5344,3.5344,3.5344,3.522,3.473,3.4873,3.5095,3.4566,3.4355,3.4144,3.3556,3.3404,3.3404,3.3404,3.3404,3.3404,3.3332,3.2945,3.2592,3.2559,3.2133,3.1807,3.1807,3.1807,3.1807,3.1807,3.1807,3.1807,3.1807,3.1807,3.1807,3.1807,3.1807,3.1807,3.1807,3.1807,3.1807,3.1807,3.1807,3.1807,3.1807,3.1807,3.1807,3.1807,3.1566,3.13,3.0986,3.0769,3.0503,2.8596,2.8596,2.8596,2.8596,2.8596,2.8596,2.8596,2.8596,0.0,0.0,0.0,0.0,0.0,2.8813,2.9103,0.0,0.0,3.06,0.0,0.0,3.1493,3.1771,0.0,3.2685,3.3245,3.3837,3.4623,3.5672,3.5889,3.6178,3.6608,3.6636,3.6636,3.6636,3.6636,3.6636,3.6636,3.568,3.5457,3.5957,3.5429,3.5707,3.6636,3.6178,3.6206,3.6636,0.0,3.6636,3.6636,3.6636,3.6636,3.6636,3.6636,3.6692,3.6789,3.6789,3.6817,3.6913,3.6913,3.6844,3.6789,3.6789,3.6414,3.5957,3.5957,3.5957,3.5928,3.5831,3.5526,3.5192,3.5095,3.469,3.4144,3.3556,3.3404,3.3404,3.3404,3.3404,3.3332,3.3102,3.2812,3.2519,3.2302,3.2012,3.1807,3.1807,3.1807,3.1807,3.1807,3.1807,3.1807,3.1807,3.1807,3.1807,3.1807,3.1807,3.1807,3.1807,3.1807,3.1807,3.1807,3.1807,3.1807,3.1807,3.1807,3.1807,3.1807,3.1771,3.1493,3.0998,3.095,3.0672,2.8596,2.8596,2.8596,2.8596,2.8596,2.8596,2.8596,0.0,0.0,0.0,0.0,0.0,0.0,0.0,2.9405,2.996,0.0,3.0914,3.1179,3.1445,3.1768,0.0,0.0,3.3166,3.3852,3.4615,3.535,3.6042,3.6359,3.6636,3.6885,3.6913,3.6913,3.6913,3.6913,3.6913,3.6913,3.6387,3.6263,3.654,3.6263,3.6387,3.6885,3.6636,3.6664,3.6913,0.0,3.6913,3.6913,3.6913,3.6913,3.6913,3.6913,3.6913,3.6913,3.6913,3.6913,3.6913,3.6913,3.6913,3.6913,3.6913,3.6733,3.654,3.654,3.654,3.654,3.654,3.6331,3.5985,3.5374,3.4997,3.4538,3.3616,3.3404,3.3404,3.3404,3.3295,3.3138,3.3014,3.2679,3.2338,3.2217,3.1976,3.1807,3.1807,3.1807,3.1807,3.1807,3.1807,3.1807,3.1807,3.1807,3.1807,3.1807,3.1807,3.1807,3.1807,3.1807,3.1807,3.1807,3.1807,3.1807,3.1807,3.1807,3.1807,3.1807,3.1807,3.1529,3.0998,3.0998,3.0721,2.8596,2.8596,2.8596,2.8596,2.8596,2.8596,2.8596,0.0,0.0,0.0,0.0,0.0,0.0,2.9272,0.0,3.0491,3.0829,3.1083,3.1348,3.1732,3.2154,3.2541,3.3137,3.3762,3.4435,3.5358,3.6015,3.6263,3.6664,3.6913,3.6913,3.6913,3.6913,3.6913,3.6913,3.6913,3.6913,3.6913,3.6913,3.6913,3.6913,3.6913,3.6913,3.6913,3.6913,3.6913,3.6913,3.6913,3.6913,3.6913,3.6913,3.6913,3.6913,3.6913,3.6913,3.6913,3.6913,3.6913,3.6913,3.6913,3.6913,3.6913,3.6913,3.6913,3.6913,3.6913,3.6913,3.6913,3.6913,3.6636,3.5498,3.5192,3.4913,3.3684,3.3404,3.3404,3.3404,3.3199,3.2981,3.2917,3.2519,3.2181,3.2121,3.194,3.1807,3.1807,3.1807,3.1807,3.1807,3.1807,3.1807,3.1807,3.1807,3.1807,3.1807,3.1807,3.1807,3.1807,3.1807,3.1807,3.1807,3.1807,3.1807,3.1807,3.1807,3.1807,3.1807,3.1807,3.1529,3.0998,3.0998,3.0721,2.8596,2.8596,2.8596,2.8596,2.8596,0.0,2.8596,2.8596,0.0,2.8596,0.0,0.0,0.0,2.9429,2.9948,3.0515,3.0829,3.1083,3.1348,0.0,3.2568,3.2594,3.3832,3.4813,3.5113,3.5931,3.6551,3.6817,3.6885,3.6913,3.6913,3.6913,3.6913,3.6913,3.6913,3.6913,3.6913,3.6913,3.6913,3.6913,3.6913,3.6913,3.6913,3.6913,3.6913,3.6913,3.6913,3.6913,3.6913,3.6913,3.6913,3.6913,3.6913,3.6913,3.6913,3.6913,3.6913,3.6913,3.6913,3.6913,3.6913,3.6913,3.6913,3.6913,3.6913,3.6913,3.6913,3.6913,3.6913,3.6636,3.5498,3.5192,3.4913,3.3684,3.3404,3.3404,3.3404,3.3199,3.2945,3.2679,3.2386,3.2121,3.1879,3.1819,3.1807,3.1807,3.1807,3.1807,3.1807,3.1807,3.1807,3.1807,3.1807,3.1807,3.1807,3.1807,3.1807,3.1807,3.1807,3.1807,3.1807,3.1807,3.1807,3.1807,3.1807,3.1807,3.1807,3.1807,3.1529,3.0998,3.0998,3.0721,2.8596,2.8596,2.8596,2.8596,2.8596,0.0,0.0,0.0,0.0,0.0,0.0,0.0,0.0,0.0,3.0419,3.0793,3.1071,3.1468,3.2052,3.24,3.286,3.3577,3.4482,3.5251,3.5708,3.635,3.6806,3.6885,3.6913,3.6913,3.6913,3.6913,3.6913,3.6913,3.6913,3.6913,3.6913,3.6913,3.6913,3.6913,3.6913,3.6913,3.6913,3.6913,3.6913,3.6913,3.6913,3.6913,3.6913,3.6913,3.6913,3.6913,3.6913,3.6913,3.6913,3.6913,3.6913,3.6913,3.6913,3.6913,3.6913,3.6913,3.6913,3.6913,3.6913,3.6913,3.6913,3.6913,3.6664,3.6206,3.5402,3.5192,3.4913,3.3684,3.3404,3.334,3.3199,3.2945,3.2679,3.2398,3.2133,3.1928,3.1831,3.1807,3.1807,3.1807,3.1807,3.1807,3.1807,3.1807,3.1807,3.1807,3.1807,3.1807,3.1807,3.1807,3.1807,3.1807,3.1807,3.1807,3.1807,3.1807,3.1807,3.1807,3.1807,3.1807,3.1807,3.1807,3.1529,3.0998,3.0998,3.0721,2.8596,2.8596,2.8596,2.8596,2.8596,0.0,2.8705,2.8729,2.8777,0.0,0.0,0.0,0.0,0.0,0.0,0.0,3.1276,3.1666,3.2477,3.2754,3.3297,3.4343,3.5067,3.5666,3.6179,3.6619,3.6913,3.6913,3.6913,3.6913,3.6913,3.6913,3.6913,3.6913,3.6913,3.6913,3.6913,3.6913,3.6913,3.6913,3.6913,3.6913,3.6913,3.6913,3.6913,3.6913,3.6913,3.6913,3.6913,3.6913,3.6913,3.6913,3.6913,3.6913,3.6913,3.6913,3.6913,3.6913,3.6913,3.6913,3.6913,3.6913,3.6913,3.6913,3.6913,3.6913,3.6913,3.6913,3.6512,3.5957,3.5374,3.5068,3.4662,3.3644,3.3404,3.3332,3.3078,3.2785,3.2519,3.2254,3.1988,3.1807,3.1807,3.1807,3.1807,3.1807,3.1807,3.1807,3.1807,3.1807,3.1807,3.1807,3.1807,3.1807,3.1807,3.1807,3.1807,3.1807,3.1807,3.1807,3.1807,3.1807,3.1807,3.1807,3.1807,3.1807,3.1807,3.1807,3.1529,3.0998,3.0998,3.0721,2.8596,2.8596,2.8596,2.8596,2.8596,0.0,2.8934,2.8994,2.8994,2.9019,0.0,2.9972,0.0,0.0,0.0,3.1326,3.1411,3.1692,3.2504,3.3126,3.3812,3.4696,3.5576,3.622,3.6473,3.6726,3.6913,3.6913,3.6913,3.6913,3.6913,3.6913,3.6913,3.6913,3.6913,3.6913,3.6913,3.6913,3.6913,3.6913,3.6913,3.6913,3.6913,3.6913,3.6913,3.6913,3.6913,3.6913,3.6913,3.6913,3.6913,3.6913,3.6913,3.6913,3.6913,3.6913,3.6913,3.6913,3.6913,3.6913,3.6913,3.6913,3.6913,3.6913,3.6913,3.6913,3.6913,3.6913,3.6512,3.5957,3.5374,3.4749,3.4144,3.3556,3.3404,3.3332,3.305,3.2785,3.2519,3.2242,3.1988,3.1807,3.1807,3.1807,3.1807,3.1807,3.1807,3.1807,3.1807,3.1807,3.1807,3.1807,3.1807,3.1807,3.1807,3.1807,3.1807,3.1807,3.1807,3.1807,3.1807,3.1807,3.1807,3.1807,3.1807,3.1807,3.1807,3.1807,3.1529,3.0998,3.0998,3.0708,2.8596,2.8596,2.8596,2.8596,2.8596,0.0,0.0,2.8994,0.0,0.0,2.9996,3.0419,3.0576,0.0,0.0,3.1886,3.2123,3.2601,3.3644,3.3948,3.4397,3.5244,3.5818,3.622,3.6473,3.6726,3.6913,3.6913,3.6913,3.6913,3.6913,3.6913,3.6913,3.6913,3.6913,3.6913,3.6913,3.6913,3.6913,3.6913,3.6913,3.6913,3.6913,3.6913,3.6913,3.6913,3.6913,3.6913,3.6913,3.6913,3.6913,3.6913,3.6913,3.6913,3.6913,3.6913,3.6913,3.6913,3.6913,3.6913,3.6913,3.6913,3.6913,3.6913,3.6913,3.6913,3.6913,3.6913,3.6512,3.5957,3.5374,3.4749,3.4144,3.3556,3.3271,3.3042,3.2776,3.2522,3.2242,3.1976,3.1855,3.1807,3.1807,3.1807,3.1807,3.1807,3.1807,3.1807,3.1807,3.1807,3.1807,3.1807,3.1807,3.1807,3.1807,3.1807,3.1807,3.1807,3.1807,3.1807,3.1807,3.1807,3.1807,3.1807,3.1807,3.1807,3.1807,3.1614,3.1336,3.0998,3.0805,3.0539,2.8596,2.8596,2.8596,2.8596,2.8681,2.8849,2.9236,0.0,0.0,0.0,0.0,3.0672,3.0877,3.135,0.0,3.2296,3.2695,3.3259,3.416,3.4293,3.4675,3.5671,3.5992,3.626,3.6619,3.6806,3.6913,3.6913,3.6913,3.6913,3.6913,3.6913,3.6913,3.6913,3.6913,3.6913,3.6913,3.6913,3.6913,3.6913,3.6913,3.6913,3.6913,3.6913,3.6913,3.6913,3.6913,3.6913,3.6913,3.6913,3.6913,3.6913,3.6913,3.6913,3.6913,3.6913,3.6913,3.6913,3.6913,3.6913,3.6913,3.6913,3.6913,3.6913,3.6913,3.6913,3.6913,3.6913,3.6331,3.5652,3.5275,3.4566,3.3828,3.3367,3.3111,3.2909,3.2519,3.2314,3.2121,3.1855,3.1807,3.1807,3.1807,3.1807,3.1807,3.1807,3.1807,3.1807,3.1807,3.1807,3.1807,3.1807,3.1807,3.1807,3.1807,3.1807,3.1807,3.1807,3.1807,3.1807,3.1807,3.1807,3.1807,3.1807,3.1807,3.1807,3.1807,3.1529,3.1252,3.0986,3.0733,3.0467,2.8596,2.8596,2.8608,2.8632,2.8849,0.0,2.9682,2.9877,3.0084,3.0503,0.0,3.0871,3.1379,3.1923,3.2417,3.2717,3.3206,3.3763,3.4319,3.4372,3.4794,3.5952,3.6099,3.6299,3.6846,3.6913,3.6913,3.6913,3.6913,3.6913,3.6913,3.6913,3.6913,3.6913,3.6913,3.6913,3.6913,3.6913,3.6913,3.6913,3.6913,3.6913,3.6913,3.6913,3.6913,3.6913,3.6913,3.6913,3.6913,3.6913,3.6913,3.6913,3.6913,3.6913,3.6913,3.6913,3.6913,3.6913,3.6913,3.6913,3.6913,3.6913,3.6913,3.6913,3.6913,3.6913,3.6913,3.6913,3.6109,3.5275,3.522,3.4318,3.3391,3.3109,3.3009,3.2821,3.2302,3.2181,3.2097,3.1855,3.1807,3.1807,3.1807,3.1807,3.1807,3.1807,3.1807,3.1807,3.1807,3.1807,3.1807,3.1807,3.1807,3.1807,3.1807,3.1807,3.1807,3.1807,3.1807,3.1807,3.1807,3.1807,3.1807,3.1807,3.1807,3.1807,3.1807,3.1505,3.1228,3.0986,3.0708,3.0417,2.8596,2.8596,2.8644,2.8849,2.9284,2.9658,2.9767,3.0483,3.1029,3.0653,3.1104,3.1622,3.1981,3.2676,3.3369,3.3856,3.4054,3.4319,3.4927,3.5006,3.5285,3.6006,3.6099,3.6299,3.6846,3.6913,3.6913,3.6913,3.6913,3.6913,3.6913,3.6913,3.6913,3.6913,3.6913,3.6913,3.6913,3.6913,3.6913,3.6913,3.6913,3.6913,3.6913,3.6913,3.6913,3.6913,3.6913,3.6913,3.6913,3.6913,3.6913,3.6913,3.6913,3.6913,3.6913,3.6913,3.6913,3.6913,3.6913,3.6913,3.6913,3.6913,3.6913,3.6913,3.6913,3.6913,3.6913,3.6913,3.6414,3.5804,3.5316,3.4499,3.3709,3.3383,3.2981,3.2592,3.2266,3.2036,3.1879,3.1819,3.1807,3.1807,3.1807,3.1807,3.1807,3.1807,3.1807,3.1807,3.1807,3.1807,3.1807,3.1807,3.1807,3.1807,3.1807,3.1807,3.1807,3.1807,3.1807,3.1807,3.1807,3.1807,3.1807,3.1807,3.1807,3.1807,3.1807,3.1324,3.1059,3.0986,3.0515,3.0274,2.8596,2.8596,2.8693,2.9079,2.9501,2.9902,3.0287,3.0971,3.1509,3.1594,3.2037,3.2494,3.277,3.3396,3.3975,3.424,3.4531,3.4848,3.5164,3.5311,3.5565,3.6046,3.622,3.6446,3.6873,3.6913,3.6913,3.6913,3.6913,3.6913,3.6913,3.6913,3.6913,3.6913,3.6913,3.6913,3.6913,3.6913,3.6913,3.6913,3.6913,3.6913,3.6913,3.6913,3.6913,3.6913,3.6913,3.6913,3.6913,3.6913,3.6913,3.6913,3.6913,3.6913,3.6913,3.6913,3.6913,3.6913,3.6913,3.6913,3.6913,3.6913,3.6913,3.6913,3.6913,3.6913,3.6913,3.6913,3.629,3.5594,3.5275,3.4648,3.3931,3.3356,3.2798,3.2407,3.2383,3.2091,3.1807,3.1807,3.1807,3.1807,3.1807,3.1807,3.1807,3.1807,3.1807,3.1807,3.1807,3.1807,3.1807,3.1807,3.1807,3.1807,3.1807,3.1807,3.1807,3.1807,3.1807,3.1807,3.1807,3.1807,3.1807,3.1807,3.1807,3.1807,3.1807,3.1264,3.0998,3.0986,3.0455,3.0188,2.8596,2.8669,2.8837,2.9296,2.9634,3.0087,3.0897,3.1399,3.1929,3.2749,3.3082,3.3312,3.3579,3.4081,3.4451,3.4451,3.4874,3.5191,3.5191,3.5418,3.5712,3.6059,3.6326,3.662,3.6873,3.6913,3.6913,3.6913,3.6913,3.6913,3.6913,3.6913,3.6913,3.6913,3.6913,3.6913,3.6913,3.6913,3.6913,3.6913,3.6913,3.6913,3.6913,3.6913,3.6913,3.6913,3.6913,3.6913,3.6913,3.6913,3.6913,3.6913,3.6913,3.6913,3.6913,3.6913,3.6913,3.6913,3.6913,3.6913,3.6913,3.6913,3.6913,3.6913,3.6913,3.6913,3.6913,3.6913,3.6081,3.5192,3.5192,3.4723,3.4036,3.3315,3.2768,3.2448,3.2578,3.2261,3.1928,3.1879,3.1879,3.1891,3.194,3.194,3.194,3.194,3.1904,3.1879,3.1879,3.1843,3.1807,3.1807,3.1807,3.1807,3.1807,3.1807,3.1807,3.1807,3.1807,3.1807,3.1807,3.1807,3.1807,3.1807,3.1807,3.1783,3.1735,3.124,3.0974,3.0914,3.0443,3.0188,2.8596,2.8934,2.932,2.9393,2.9779,3.0378,3.1232,3.2019,3.2775,3.3564,3.3759,3.3876,3.4135,3.4689,3.5085,3.5085,3.5138,3.5191,3.5191,3.5418,3.5712,3.6059,3.6326,3.662,3.6873,3.6913,3.6913,3.6913,3.6913,3.6913,3.6913,3.6913,3.6913,3.6913,3.6913,3.6913,3.6913,3.6913,3.6913,3.6913,3.6913,3.6913,3.6913,3.6913,3.6913,3.6913,3.6913,3.6913,3.6913,3.6913,3.6913,3.6913,3.6913,3.6913,3.6913,3.6913,3.6913,3.6913,3.6913,3.6913,3.6913,3.6913,3.6913,3.6913,3.6913,3.6913,3.6913,3.6913,3.6081,3.5192,3.5192,3.4585,3.3927,3.3737,3.3505,3.3186,3.2713,3.2537,3.2423,3.2193,3.2145,3.2217,3.2447,3.2483,3.2483,3.2483,3.229,3.2145,3.2145,3.1952,3.1807,3.1807,3.1807,3.1807,3.1807,3.1807,3.1807,3.1807,3.1807,3.1807,3.1807,3.1807,3.1807,3.1807,3.1807,3.1686,3.1445,3.1143,3.0877,3.0648,3.0358,3.0188,2.8596,2.8982,2.9405,2.9405,2.979,3.0515,3.1665,3.2352,3.302,3.4176,3.4517,3.4676,3.4768,3.5006,3.5191,3.5191,3.5191,3.5257,3.5391,3.5698,3.5992,3.6286,3.6553,3.6766,3.6885,3.6913,3.6913,3.6913,3.6913,3.6913,3.6913,3.6913,3.6913,3.6913,3.6913,3.6913,3.6913,3.6913,3.6913,3.6913,3.6913,3.6913,3.6913,3.6913,3.6913,3.6913,3.6913,3.6913,3.6913,3.6913,3.6913,3.6913,3.6913,3.6913,3.6913,3.6913,3.6913,3.6913,3.6913,3.6913,3.6913,3.6913,3.6913,3.6913,3.6913,3.6913,3.6913,3.6913,3.6081,3.5275,3.5622,3.5173,3.4557,3.4184,3.4276,3.4201,3.326,3.2812,3.2555,3.2447,3.2423,3.2459,3.2583,3.2592,3.2592,3.2592,3.2374,3.2205,3.2205,3.1976,3.1807,3.1807,3.1807,3.1807,3.1807,3.1807,3.1807,3.1807,3.1807,3.1807,3.1807,3.1807,3.1807,3.1807,3.1807,3.1674,3.1384,3.1119,3.0865,3.06,3.0309,3.0188,2.8596,2.8982,2.9405,2.9405,2.9915,3.0731,3.2022,3.2596,3.3253,3.454,3.5016,3.5191,3.5191,3.5191,3.5191,3.5191,3.5191,3.5297,3.5565,3.5885,3.6206,3.6473,3.6726,3.6913,3.6913,3.6913,3.6913,3.6913,3.6913,3.6913,3.6913,3.6913,3.6913,3.6913,3.6913,3.6913,3.6913,3.6913,3.6913,3.6913,3.6913,3.6913,3.6913,3.6913,3.6913,3.6913,3.6913,3.6913,3.6913,3.6913,3.6913,3.6913,3.6913,3.6913,3.6913,3.6913,3.6913,3.6913,3.6913,3.6913,3.6913,3.6913,3.6913,3.6913,3.6913,3.6913,3.6913,3.6913,3.6206,3.5526,3.5985,3.5776,3.5247,3.4482,3.4761,3.4873,3.3644,3.3042,3.2724,3.2785,3.2752,3.2724,3.2785,3.2812,3.2776,3.2716,3.2471,3.2278,3.2205,3.1976,3.1807,3.1807,3.1807,3.1807,3.1807,3.1807,3.1807,3.1807,3.1807,3.1807,3.1807,3.1807,3.1807,3.1807,3.1735,3.1566,3.1288,3.1022,3.0769,3.0503,3.0285,3.0188,2.8596,2.8982,2.9405,2.9405,3.019,3.1187,3.2099,3.2904,3.3705,3.4618,3.5016,3.5191,3.5191,3.5191,3.5191,3.5191,3.5191,3.5297,3.5565,3.5885,3.6206,3.6473,3.6726,3.6913,3.6913,3.6913,3.6913,3.6913,3.6913,3.6913,3.6913,3.6913,3.6913,3.6913,3.6913,3.6913,3.6913,3.6913,3.6913,3.6913,3.6913,3.6913,3.6913,3.6913,3.6913,3.6913,3.6913,3.6913,3.6913,3.6913,3.6913,3.6913,3.6913,3.6913,3.6913,3.6913,3.6913,3.6913,3.6913,3.6913,3.6913,3.6913,3.6913,3.6913,3.6913,3.6913,3.6913,3.6913,3.6483,3.6054,3.6081,3.6081,3.5776,3.4566,3.4761,3.4873,3.3644,3.3175,3.305,3.3308,3.3147,3.3078,3.3308,3.3368,3.3271,3.3014,3.2748,3.2483,3.2229,3.1976,3.1807,3.1807,3.1807,3.1807,3.1807,3.1807,3.1807,3.1807,3.1807,3.1807,3.1807,3.1807,3.1807,3.1807,3.1541,3.1276,3.1022,3.0757,3.0491,3.0212,3.0226,3.0188,2.8596,2.8982,2.9405,2.9405,3.0081,3.1026,3.2061,3.2801,3.3547,3.4578,3.5016,3.5191,3.5191,3.5191,3.5191,3.5191,3.5191,3.5297,3.5565,3.5885,3.6206,3.6473,3.6726,3.6913,3.6913,3.6913,3.6913,3.6913,3.6913,3.6913,3.6913,3.6913,3.6913,3.6913,3.6913,3.6913,3.6913,3.6913,3.6913,3.6913,3.6913,3.6913,3.6913,3.6913,3.6913,3.6913,3.6913,3.6913,3.6913,3.6913,3.6913,3.6913,3.6913,3.6913,3.6913,3.6913,3.6913,3.6913,3.6913,3.6913,3.6913,3.6913,3.6913,3.6913,3.6913,3.6913,3.6913,3.6913,3.6512,3.6178,3.6512,3.6359,3.59,3.5068,3.4442,3.3924,3.3488,3.3332,3.3295,3.3368,3.3332,3.3295,3.3376,3.3271,3.3102,3.3006,3.2628,3.2302,3.2217,3.1976,3.1807,3.1807,3.1807,3.1807,3.1807,3.1807,3.1807,3.1807,3.1807,3.1807,3.1807,3.1807,3.1722,3.1541,3.1276,3.1095,3.0998,3.0733,3.0442,3.0188,3.0188,3.0188,2.8705,2.9042,2.9429,2.9513,3.0069,3.0877,3.1896,3.2621,3.3389,3.4406,3.4923,3.5191,3.5191,3.5191,3.5191,3.5191,3.5191,3.5297,3.5565,3.5805,3.6072,3.6446,3.6659,3.6806,3.6885,3.6913,3.6913,3.6913,3.6913,0.0,3.6913,3.6913,3.6913,3.6913,3.6913,3.6913,3.6913,3.6913,3.6913,3.6913,3.6913,3.6913,3.6913,3.6913,3.6913,3.6913,3.6913,3.6913,3.6913,3.6913,3.6913,3.6913,3.6913,3.6913,3.6913,3.6913,3.6913,3.6913,3.6913,3.6913,3.6913,3.6913,3.6913,3.6913,3.6913,3.6913,3.6913,3.6913,3.6636,3.6455,3.6817,3.6359,3.5748,3.5553,3.4423,3.346,3.3644,3.3556,3.3404,3.3404,3.3404,3.3368,3.3271,3.3111,3.2945,3.2748,3.2423,3.2169,3.2085,3.1916,3.1807,3.1807,3.1807,3.1807,3.1807,3.1807,3.1807,3.1807,3.1807,3.1807,3.1807,3.1807,3.1674,3.1423,3.1131,3.095,3.0865,3.06,3.0357,3.0188,3.0188,3.0188,0.0,0.0,0.0,2.9756,3.0228,3.0852,3.1642,3.2466,3.3324,3.4139,3.4776,3.5191,3.5191,3.5191,3.5191,3.5191,3.5191,3.5297,3.5551,3.5605,3.5818,3.6393,3.6473,3.662,3.6873,3.6913,3.6913,3.6913,3.6913,3.6913,3.6913,3.6913,3.6913,3.6913,3.6913,3.6913,3.6913,3.6913,3.6913,3.6913,3.6913,3.6913,3.6913,3.6913,3.6913,3.6913,3.6913,3.6913,3.6913,3.6913,3.6913,3.6913,3.6913,3.6913,3.6913,3.6913,3.6913,3.6913,3.6913,3.6913,3.6913,3.6913,3.6913,3.6913,3.6913,3.6913,3.6913,3.6913,3.6913,3.6913,3.6885,3.6054,3.5374,3.5928,3.473,3.3588,3.4175,3.3836,3.3432,3.3432,3.3404,3.3308,3.3069,3.3006,3.2812,3.2278,3.2193,3.2097,3.1843,3.1807,3.1807,3.1807,3.1807,3.1807,3.1807,3.1807,3.1807,3.1807,3.1807,3.1807,3.1807,3.1807,3.1662,3.1384,3.1119,3.0853,3.06,3.0334,3.0188,3.0188,3.0188,3.0188,2.8922,0.0,0.0,0.0,0.0,0.0,3.1973,3.2733,3.3439,3.3923,3.4643,3.5191,3.5191,3.5191,3.5191,3.5191,3.5191,3.5231,3.5311,3.5471,3.5658,3.5818,3.6219,3.654,3.662,3.6806,3.6913,0.0,3.6913,3.6913,3.6913,3.6913,3.6913,3.6913,3.6913,3.6913,3.6913,3.6913,3.6913,3.6913,3.6913,3.6913,3.6913,3.6913,3.6913,3.6913,3.6913,3.6913,3.6913,3.6913,3.6913,3.6913,3.6913,3.6913,3.6913,3.6913,3.6913,3.6913,3.6913,3.6913,3.6913,3.6913,3.6913,3.6913,3.6913,3.6913,3.6913,3.6913,3.6913,3.6817,3.6414,3.6081,3.5776,3.5498,3.473,3.4104,3.4259,3.4175,3.4048,3.4048,3.3541,3.3229,3.3586,3.2953,3.2362,3.2217,3.2036,3.1891,3.1819,3.1807,3.1807,3.1807,3.1807,3.1807,3.1807,3.1807,3.1807,3.1807,3.1807,3.1807,3.1807,3.1614,3.1372,3.1107,3.0853,3.0588,3.0297,3.025,3.0188,3.0188,3.0188,3.0105,0.0,0.0,0.0,0.0,0.0,0.0,3.2079,3.2548,3.3098,3.375,3.4482,3.5083,3.5177,3.5191,3.5191,3.5191,3.5191,3.5191,3.5191,3.5338,3.5471,3.5591,3.5898,3.6193,3.6313,3.658,3.6726,3.6726,3.6833,3.6913,3.6913,3.6913,3.6913,3.6913,3.6913,3.6913,3.6913,3.6913,3.6913,3.6913,3.6913,3.6913,3.6913,3.6913,3.6913,3.6913,3.6913,3.6913,3.6913,3.6913,3.6913,3.6913,3.6913,3.6913,3.6913,3.6913,3.6913,3.6913,3.6913,3.6913,3.6913,3.6913,3.6913,3.6913,3.6913,3.6913,3.6913,3.6913,3.6913,3.6817,3.6512,3.6263,3.6081,3.5957,3.5095,3.4451,3.4941,3.4562,3.4098,3.4098,3.3685,3.3402,3.3498,3.2779,3.2169,3.2048,3.1904,3.1807,3.1807,3.1807,3.1807,3.1807,3.1807,3.1807,3.1807,3.1807,3.1807,3.1807,3.1807,3.1807,3.1807,3.1541,3.1264,3.101,3.0745,3.0479,3.0188,3.0188,3.0188,3.0188,3.0188,3.0069,0.0,0.0,0.0,0.0,0.0,0.0,3.2026,3.2241,3.2586,3.3605,3.4335,3.4869,3.5097,3.5177,3.5191,3.5191,3.5191,3.5191,3.5191,3.5191,3.5297,3.5525,3.5578,3.5738,3.6033,3.6286,3.6473,3.65,3.6754,3.6913,3.6913,3.6913,3.6913,3.6913,3.6913,3.6913,3.6913,3.6913,3.6913,3.6913,3.6913,3.6913,3.6913,3.6913,3.6913,3.6913,3.6913,3.6913,3.6913,3.6913,3.6913,3.6913,3.6913,3.6913,3.6913,3.6913,3.6913,3.6913,3.6913,3.6913,3.6913,3.6913,3.6913,3.6913,3.6913,3.6913,3.6913,3.6913,3.6913,3.6885,3.6817,3.6512,3.629,3.6705,3.5624,3.4789,3.5833,3.4978,3.3975,3.3913,3.3858,3.3654,3.3185,3.2574,3.2073,3.1923,3.1834,3.1807,3.1887,3.1834,3.1807,3.1807,3.1807,3.1807,3.1807,3.1807,3.1807,3.1807,3.1807,3.1795,3.1759,3.1493,3.1228,3.0962,3.0696,3.0443,3.0188,3.0188,3.0188,3.0188,3.0164,3.002,0.0,0.0,0.0,0.0,0.0,0.0,3.2149,3.2492,3.2914,3.3133,3.404,3.4802,3.4869,3.5044,3.5191,3.5191,3.5191,3.5191,3.5191,3.5191,3.5217,3.5271,3.5458,3.5631,3.5685,3.5979,3.6287,3.6473,3.6754,3.6913,3.6913,3.6913,3.6913,3.6913,3.6913,3.6913,3.6913,3.6913,3.6913,3.6913,3.6913,3.6913,3.6913,3.6913,3.6913,3.6913,3.6913,3.6913,3.6913,3.6913,3.6913,3.6913,3.6913,3.6913,3.6913,3.6913,3.6913,3.6913,3.6913,3.6913,3.6913,3.6913,3.6913,3.6913,3.6913,3.6913,3.6913,3.6913,3.6913,3.6789,3.6359,3.6511,3.6664,3.6331,3.5985,3.5739,3.5699,3.5443,3.5112,3.4619,3.38,3.3289,3.3661,3.2695,3.2001,3.2394,3.2074,3.1967,3.2381,3.2074,3.1807,3.1807,3.1807,3.1807,3.1807,3.1807,3.1807,3.1807,3.1807,3.171,3.1481,3.1215,3.095,3.0684,3.0393,3.0236,3.0188,3.0188,3.0188,3.0188,2.9984,2.9731,0.0,0.0,0.0,3.2541,0.0,0.0,0.0,3.257,3.2877,3.3146,3.3801,3.4441,3.4736,3.4909,3.5057,3.5177,3.5191,3.5191,3.5191,3.5191,3.5191,3.5191,3.5324,3.5418,3.5418,3.5685,3.5979,3.6273,3.654,3.6699,3.6699,3.6833,3.6913,3.6913,3.6913,3.6913,3.6913,3.6913,3.6913,3.6913,3.6913,3.6913,3.6913,3.6913,3.6913,3.6913,3.6913,3.6913,3.6913,3.6913,3.6913,3.6913,3.6913,3.6913,3.6913,3.6913,3.6913,3.6913,3.6913,3.6913,3.6913,3.6913,3.6913,3.6913,3.6913,3.6913,3.6913,3.6913,3.6913,3.6844,3.6567,3.6692,3.6817,3.6567,3.6158,3.5889,3.6019,3.5592,3.5169,3.515,3.4124,3.3367,3.3661,3.288,3.2287,3.2568,3.2367,3.2314,3.2568,3.2127,3.1807,3.1807,3.1807,3.1807,3.1807,3.1807,3.1807,3.1807,3.1807,3.1686,3.1397,3.1143,3.0817,3.0419,3.0261,3.0188,3.0188,3.0188,3.0188,3.0188,2.9924,2.9658,0.0,0.0,0.0,0.0,0.0,3.2318,0.0,0.0,0.0,3.3228,3.3641,3.4054,3.4535,3.4669,3.4762,3.491,3.5044,3.5097,3.503,3.5124,3.5191,3.5191,3.5191,3.5191,3.5191,3.5431,3.5698,3.5965,3.6259,3.646,3.65,3.6727,3.6846,3.6913,3.6913,3.6913,3.6913,3.6913,3.6913,3.6913,3.6913,3.6913,3.6913,3.6913,3.6913,3.6913,3.6913,3.6913,3.6913,3.6913,3.6913,3.6913,3.6913,3.6913,3.6913,3.6913,3.6913,3.6913,3.6913,3.6913,3.6913,3.6913,3.6913,3.6913,3.6913,3.6913,3.6913,3.6913,3.6913,3.6913,3.6913,3.6913,3.6885,3.6833,3.6289,3.5858,3.6257,3.5548,3.499,3.5445,3.4502,3.3657,3.3657,3.3073,3.2648,3.2754,3.2674,3.2594,3.2594,3.2127,3.1807,3.1807,3.1807,3.1807,3.1807,3.1807,3.1807,3.1807,3.1759,3.1602,3.1324,3.101,3.0648,3.02,3.0188,3.0188,3.0188,3.0188,3.0164,3.0129,2.9851,2.9586,0.0,0.0,0.0,0.0,3.312,0.0,0.0,0.0,3.2971,3.3038,0.0,3.3908,3.4,0.0,0.0,3.4068,3.4495,3.4749,3.443,3.487,3.5191,3.5191,3.5191,3.5191,3.5191,3.5431,3.5618,3.5645,3.5952,3.626,3.6473,3.654,3.6659,3.6885,3.6913,3.6913,3.6913,3.6913,3.6913,3.6913,3.6913,3.6913,3.6913,3.6913,3.6913,3.6913,3.6913,3.6913,3.6913,3.6913,3.6913,3.6913,3.6913,3.6913,3.6913,3.6913,3.6913,3.6913,3.6913,3.6913,3.6913,3.6913,3.6913,3.6913,3.6913,3.6913,3.6913,3.6913,3.6913,3.6913,3.6913,3.6913,3.6833,3.662,3.6485,3.6285,3.5792,3.5591,3.5445,3.5271,3.4689,3.4213,3.4213,3.3312,3.2781,3.3312,3.294,3.2594,3.2594,3.2127,3.1807,3.1807,3.1807,3.1807,3.1807,3.1807,3.1807,3.1807,3.1578,3.1312,3.1059,3.0564,3.0249,3.0188,3.0188,3.0188,3.0188,3.0188,3.0081,2.9839,2.9574,2.9308,0.0,0.0,0.0,0.0,0.0,0.0,0.0,0.0,3.3051,0.0,0.0,0.0,0.0,0.0,0.0,0.0,3.4349,3.4469,3.431,3.4536,3.4817,3.5151,3.5191,3.5191,3.5191,3.5311,3.5378,3.5378,3.5645,3.5872,3.5965,3.6313,3.6553,3.6659,3.6805,3.6913,3.6913,3.6913,3.6913,3.6913,3.6913,3.6913,3.6913,3.6913,3.6913,3.6913,3.6913,3.6913,3.6913,3.6913,3.6913,3.6913,3.6913,3.6913,3.6913,3.6913,3.6913,3.6913,3.6913,3.6913,3.6913,3.6913,3.6913,3.6913,3.6913,3.6913,3.6913,3.6913,3.6913,3.6913,3.6913,3.6913,3.6833,3.6553,3.638,3.6139,3.5698,3.5471,3.5338,3.5217,3.4716,3.4425,3.4768,3.4134,3.3577,3.3498,3.3286,3.2993,3.2648,3.2408,3.2154,3.1834,3.2074,3.2154,3.1834,3.1807,3.1807,3.1807,3.1397,3.1046,3.0781,3.0393,3.0188,3.0188,3.0188,3.0188,3.0188,3.0188,2.9996,2.9574,2.9453,2.926,3.4563,0.0,0.0,0.0,0.0,0.0,0.0,0.0,0.0,0.0,0.0,0.0,0.0,0.0,0.0,0.0,0.0,3.4175,3.4056,3.419,3.4509,3.5017,3.5151,3.5191,3.5191,3.5191,3.5191,3.5191,3.5391,3.5525,3.5605,3.6005,3.634,3.6473,3.6699,3.6833,3.6913,3.6913,3.6913,3.6913,3.6913,3.6913,3.6913,3.6913,3.6913,3.6913,3.6913,3.6913,3.6913,3.6913,3.6913,3.6913,3.6913,3.6913,3.6913,3.6913,3.6913,3.6913,3.6913,3.6913,3.6913,3.6913,3.6913,3.6913,3.6913,3.6913,3.6913,3.6913,3.6913,3.6913,3.6913,3.6846,3.6726,3.6446,3.6166,3.5872,3.5578,3.5351,3.5191,3.5191,3.4848,3.4689,3.5111,3.4689,3.4107,3.3577,3.3498,3.3232,3.2461,3.2515,3.2381,3.186,3.2287,3.2381,3.186,3.1807,3.1747,3.159,3.1215,3.0853,3.0515,3.0297,3.0188,3.0188,3.0188,3.0188,3.0188,3.0141,2.9864,2.9405,2.9405,2.9224,0.0,0.0,0.0,3.4775,0.0,0.0,0.0,0.0,3.3855,0.0,0.0,0.0,0.0,0.0,0.0,0.0,0.0,0.0,0.0,3.3923,3.4429,3.4762,3.5057,3.5191,3.5191,3.5191,3.5191,3.5191,3.5204,3.5338,3.5591,3.5618,3.5885,3.6473,3.6513,3.6647,3.6913,3.6913,3.6913,3.6913,3.6913,3.6913,3.6913,3.6913,3.6913,3.6913,3.6913,3.6913,3.6913,3.6913,3.6913,3.6913,3.6913,3.6913,3.6913,3.6913,3.6913,3.6913,3.6913,3.6913,3.6913,3.6913,3.6913,3.6913,3.6913,3.6913,3.6913,3.6913,3.6913,3.6913,3.6913,3.6727,3.646,3.618,3.5859,3.5538,3.5271,3.5204,3.5191,3.5191,3.5164,3.5164,3.5191,3.4689,3.4107,3.3577,3.3498,3.3073,3.1967,3.2287,3.2381,3.186,3.2287,3.2381,3.186,3.1807,3.159,3.1059,3.101,3.0769,3.0224,3.0188,3.0188,3.0188,3.0188,3.0188,3.0188,2.9936,2.967,2.9405,2.9405,2.9127,0.0,0.0,3.4789,3.4789,0.0,0.0,0.0,0.0,0.0,0.0,0.0,0.0,0.0,0.0,0.0,0.0,0.0,0.0,0.0,3.3774,3.4068,3.4201,3.4642,3.5016,3.5177,3.5191,3.5191,3.5191,3.5191,3.5244,3.5338,3.5498,3.5805,3.6233,3.6393,3.6619,3.6913,3.6913,3.6913,3.6913,3.6913,3.6913,3.6913,3.6913,3.6913,3.6913,3.6913,3.6913,3.6913,3.6913,3.6913,3.6913,3.6913,3.6913,3.6913,3.6913,3.6913,3.6913,3.6913,3.6913,3.6913,3.6913,3.6913,3.6913,3.6913,3.6913,3.6913,3.6913,3.6913,3.6873,3.6687,3.658,3.638,3.5899,3.5672,3.5525,3.5257,3.5191,3.5191,3.5191,3.5191,3.5191,3.5191,3.5032,3.4583,3.363,3.3498,3.3206,3.2447,3.2846,3.2967,3.2381,3.2834,3.282,3.1887,3.1638,3.1372,3.1022,3.0829,3.0576,3.02,3.0188,3.0188,3.0188,3.0188,3.0104,2.9936,2.9839,2.9574,2.9151,2.9151,2.8934,3.5231,3.5057,0.0,3.495,3.4776,0.0,3.4629,0.0,0.0,0.0,0.0,0.0,0.0,0.0,0.0,0.0,0.0,0.0,0.0,3.3587,3.3761,3.3893,3.4428,3.4856,3.5043,3.5137,3.5191,3.5191,3.5191,3.5191,3.5191,3.5378,3.5605,3.5912,3.6193,3.6473,3.6766,3.6845,3.6913,3.6913,3.6913,3.6913,3.6913,3.6913,3.6913,3.6913,3.6913,3.6913,3.6913,3.6913,3.6913,3.6913,3.6913,3.6913,3.6913,3.6913,3.6913,3.6913,3.6913,3.6913,3.6913,3.6913,3.6913,3.6913,3.6913,3.6913,3.6912,3.7048,3.6913,3.6726,3.6659,3.6406,3.6072,3.5698,3.5525,3.5391,3.5231,3.5191,3.5191,3.5191,3.5191,3.5191,3.5191,3.5191,3.4795,3.3657,3.3657,3.3498,3.2701,3.3286,3.3471,3.2674,3.3126,3.3046,3.1887,3.1553,3.1276,3.101,3.0745,3.0491,3.02,3.0188,3.0236,3.0358,3.0236,3.0104,2.9948,2.9755,2.9429,2.9006,2.8898,2.8765]}]]